[[{"header":{"parameterUnit":"m.s-1","parameterCategory":1,"la1":31.0,"la2":29.5877,"lo1":-88.7671,"lo2":-86.6584,"dx":0.0162,"dy":0.0185,"nx":115,"ny":88,"refTime":"2022-12-02T06:00:00:Z","depth":0,"parameterNumber":2,"parameterNumberName":"U-component_of_WINDS"},"data":[0.0,0.0,0.0,0.0,0.0,0.0,0.0,0.0,0.0,0.0,0.0,0.0,0.0,0.0,0.0,0.0,0.0,0.0,0.0,0.0,0.0,0.0,0.0,0.0,0.0,0.0,0.0,0.0,0.0,0.0,0.0,0.0,0.0,0.0,0.0,0.0,0.0,0.0,0.0,0.0,0.0,0.0,0.0,0.0,0.0,0.0,0.0,0.0,0.0,0.0,0.0,0.0,0.0,0.0,0.0,0.0,0.0,0.0,0.0,0.0,0.0,0.0,0.0,0.0,0.0,0.0,0.0,0.0,0.0,0.0,0.0,0.0,0.0,0.0,0.0,0.0,0.0,0.0,0.0,0.0,0.0,0.0,0.0,0.0,0.0,0.0,0.0,0.0,0.0,0.0,0.0,0.0,0.0,0.0,0.0,0.0,0.0,0.0,0.0,0.0,0.0,0.0,0.0,0.0,0.0,0.0,0.0,0.0,0.0,0.0,0.0,0.0,0.0,0.0,0.0,0.0,0.0,0.0,0.0,0.0,0.0,0.0,0.0,0.0,0.0,0.0,0.0,0.0,0.0,0.0,0.0,0.0,0.0,0.0,0.0,0.0,0.0,0.0,0.0,0.0,0.0,0.0,0.0,0.0,0.0,0.0,0.0,0.0,0.0,0.0,0.0,0.0,0.0,0.0,0.0,0.0,0.0,0.0,0.0,0.0,0.0,0.0,0.0,0.0,0.0,0.0,0.0,0.0,0.0,0.0,0.0,0.0,0.0,0.0,0.0,0.0,0.0,0.0,0.0,0.0,0.0,0.0,0.0,0.0,0.0,0.0,0.0,0.0,0.0,0.0,0.0,0.0,0.0,0.0,0.0,0.0,0.0,0.0,0.0,0.0,0.0,0.0,0.0,0.0,0.0,0.0,0.0,0.0,0.0,0.0,0.0,0.0,0.0,0.0,0.0,0.0,0.0,0.0,0.0,0.0,0.0,0.0,0.0,0.0,0.0,0.0,0.0,0.0,0.0,0.0,0.0,0.0,0.0,0.0,0.0,0.0,0.0,0.0,0.0,0.0,0.0,0.0,0.0,0.0,0.0,0.0,0.0,0.0,0.0,0.0,0.0,0.0,0.0,0.0,0.0,0.0,0.0,0.0,0.0,0.0,0.0,0.0,0.0,0.0,0.0,0.0,0.0,0.0,0.0,0.0,0.0,0.0,0.0,0.0,0.0,0.0,0.0,0.0,0.0,0.0,0.0,0.0,0.0,0.0,0.0,0.0,0.0,0.0,0.0,0.0,0.0,0.0,0.0,0.0,0.0,0.0,0.0,0.0,0.0,0.0,0.0,0.0,0.0,0.0,0.0,0.0,0.0,0.0,0.0,0.0,0.0,0.0,0.0,0.0,0.0,0.0,0.0,0.0,0.0,0.0,0.0,0.0,0.0,0.0,0.0,0.0,0.0,0.0,0.0,0.0,0.0,0.0,0.0,0.0,0.0,0.0,0.0,0.0,0.0,0.0,0.0,0.0,0.0,0.0,0.0,0.0,0.0,0.0,0.0,0.0,0.0,0.0,0.0,0.0,0.0,0.0,0.0,0.0,0.0,0.0,0.0,0.0,0.0,0.0,0.0,0.0,0.0,0.0,0.0,0.0,0.0,0.0,0.0,0.0,0.0,0.0,0.0,0.0,0.0,0.0,0.0,0.0,0.0,0.0,0.0,0.0,0.0,0.0,0.0,0.0,0.0,0.0,0.0,0.0,0.0,0.0,0.0,0.0,0.0,0.0,0.0,0.0,0.0,0.0,0.0,0.0,0.0,0.0,0.0,0.0,0.0,0.0,0.0,0.0,0.0,0.0,0.0,0.0,0.0,0.0,0.0,0.0,0.0,0.0,0.0,0.0,0.0,0.0,0.0,0.0,0.0,0.0,0.0,0.0,0.0,0.0,0.0,0.0,0.0,0.0,0.0,0.0,0.0,0.0,0.0,0.0,0.0,0.0,0.0,0.0,0.0,0.0,0.0,0.0,0.0,0.0,0.0,0.0,0.0,0.0,0.0,0.0,0.0,0.0,0.0,0.0,0.0,0.0,0.0,0.0,0.0,0.0,0.0,0.0,0.0,0.0,0.0,0.0,0.0,0.0,0.0,0.0,0.0,0.0,0.0,0.0,0.0,0.0,0.0,0.0,0.0,0.0,0.0,0.0,0.0,0.0,0.0,0.0,0.0,0.0,0.0,0.0,0.0,0.0,0.0,0.0,0.0,0.0,0.0,0.0,0.0,0.0,0.0,0.0,0.0,0.0,0.0,0.0,0.0,0.0,0.0,0.0,0.0,0.0,0.0,0.0,0.0,0.0,0.0,0.0,0.0,0.0,0.0,0.0,0.0,0.0,0.0,0.0,0.0,0.0,0.0,0.0,0.0,0.0,0.0,0.0,0.0,0.0,0.0,0.0,0.0,0.0,0.0,0.0,0.0,0.0,0.0,0.0,0.0,0.0,0.0,0.0,0.0,0.0,0.0,0.0,0.0,0.0,0.0,0.0,0.0,0.0,0.0,0.0,0.0,0.0,0.0,0.0,0.0,0.0,0.0,0.0,0.0,0.0,0.0,0.0,0.0,0.0,0.0,0.0,0.0,0.0,0.0,0.0,0.0,0.0,0.0,0.0,0.0,0.0,0.0,0.0,0.0,0.0,0.0,0.0,0.0,0.0,0.0,0.0,0.0,0.0,0.0,0.0,0.0,0.0,0.0,0.0,0.0,0.0,0.0,0.0,0.0,0.0,0.0,0.0,0.0,0.0,0.0,0.0,0.0,0.0,0.0,0.0,0.0,0.0,0.0,0.0,0.0,0.0,0.0,0.0,0.0,0.0,0.0,0.0,0.0,0.0,0.0,0.0,0.0,0.0,0.0,0.0,0.0,0.0,0.0,0.0,0.0,0.0,0.0,0.0,0.0,0.0,0.0,0.0,0.0,0.0,0.0,0.0,0.0,0.0,0.0,0.0,0.0,0.0,0.0,0.0,0.0,0.0,0.0,0.0,0.0,0.0,0.0,0.0,0.0,0.0,0.0,0.0,0.0,0.0,0.0,0.0,0.0,0.0,0.0,0.0,0.0,0.0,0.0,0.0,0.0,0.0,0.0,0.0,0.0,0.0,0.0,0.0,0.0,0.0,0.0,0.0,0.0,0.0,0.0,0.0,0.0,0.0,0.0,0.0,0.0,0.0,0.0,0.0,0.0,0.0,0.0,0.0,0.0,0.0,0.0,0.0,0.0,0.0,0.0,0.0,0.0,0.0,0.0,0.0,0.0,0.0,0.0,0.0,0.0,0.0,0.0,0.0,0.0,0.0,0.0,0.0,0.0,0.0,0.0,0.0,0.0,0.0,0.0,0.0,0.0,0.0,0.0,0.0,0.0,0.0,0.0,0.0,0.0,0.0,0.0,0.0,0.0,0.0,0.0,0.0,0.0,0.0,0.0,0.0,0.0,0.0,0.0,0.0,0.0,0.0,0.0,0.0,0.0,0.0,0.0,0.0,0.0,0.0,0.0,0.0,0.0,0.0,0.0,0.0,0.0,0.0,0.0,0.0,0.0,0.0,0.0,0.0,0.0,0.0,0.0,0.0,0.0,0.0,0.0,0.0,0.0,0.0,0.0,0.0,0.0,0.0,0.0,0.0,0.0,0.0,0.0,0.0,0.0,0.0,0.0,0.0,0.0,0.0,0.0,0.0,0.0,0.0,0.0,0.0,0.0,0.0,0.0,0.0,0.0,0.0,0.0,0.0,0.0,0.0,0.0,0.0,0.0,0.0,0.0,0.0,0.0,0.0,0.0,0.0,0.0,0.0,0.0,0.0,0.0,0.0,0.0,0.0,0.0,0.0,0.0,0.0,0.0,0.0,0.0,0.0,0.0,0.0,0.0,0.0,0.0,0.0,0.0,0.0,0.0,0.0,0.0,0.0,0.0,0.0,0.0,0.0,0.0,0.0,0.0,0.0,0.0,0.0,0.0,0.0,0.0,0.0,0.0,0.0,0.0,0.0,0.0,0.0,0.0,0.0,0.0,0.0,0.0,0.0,0.0,0.0,0.0,0.0,0.0,0.0,0.0,0.0,0.0,0.0,0.0,0.0,0.0,0.0,0.0,0.0,0.0,0.0,0.0,0.0,0.0,0.0,0.0,0.0,0.0,0.0,0.0,0.0,0.0,0.0,0.0,0.0,0.0,0.0,0.0,0.0,0.0,0.0,0.0,0.0,0.0,0.0,0.0,0.0,0.0,0.0,-0.1527,0.0,0.0,0.0,-0.1437,0.0,0.0,0.0,0.0,0.0,0.0,0.0,0.0,0.0,0.0,0.0,0.0,0.0,0.0,0.0,0.0,0.0,0.0,0.0,0.0,0.0,0.0,0.0,0.0,0.0,0.0,0.0,0.0,0.0,0.0,0.0,0.0,0.0,0.0,0.0,0.0,0.0,0.0,0.0,0.0,0.0,0.0,0.0,0.0,0.0,0.0,0.0,0.0,0.0,0.0,0.0,0.0,0.0,0.0,0.0,0.0,0.0,0.0,0.0,0.0,0.0,0.0,0.0,0.0,0.0,0.0,0.0,0.0,0.0,0.0,0.0,0.0,0.0,0.0,0.0,0.0,0.0,0.0,0.0,0.0,0.0,0.0,0.0,0.0,0.0,0.0,0.0,0.0,0.0,0.0,0.0,0.0,0.0,0.0,0.0,0.0,0.0,0.0,0.0,0.0,0.0,0.0,0.0,0.0,0.0,0.0,0.0,0.0,0.0,0.0,-0.1533,-0.1407,-0.1599,-0.161,-0.141,0.0,0.0,0.0,0.0,0.0,0.0,0.0,0.0,0.0,0.0,0.0,0.0,0.0,0.0,0.0,0.0,0.0,0.0,0.0,0.0,0.0,0.0,0.0,0.0,0.0,0.0,0.0,0.0,0.0,0.0,0.0,0.0,0.0,0.0,0.0,0.0,0.0,0.0,0.0,0.0,0.0,0.0,0.0,0.0,0.0,0.0,0.0,0.0,0.0,0.0,0.0,0.0,0.0,0.0,0.0,0.0,0.0,0.0,0.0,0.0,0.0,0.0,0.0,0.0,0.0,0.0,0.0,0.0,0.0,0.0,0.0,0.0,0.0,0.0,0.0,0.0,0.0,0.0,0.0,0.0,0.0,0.0,0.0,0.0,0.0,0.0,0.0,0.0,0.0,0.0,0.0,0.0,0.0,0.0,0.0,0.0,0.0,0.0,0.0,0.0,0.0,0.0,0.0,0.0,0.0,0.0,0.0,0.0,0.0,0.0,0.0,0.0,-0.1435,-0.1446,-0.1257,0.0,0.0,0.0,0.0,0.0,0.0,0.0,0.0,0.0,0.0,0.0,0.0,0.0,0.0,0.0,0.0,0.0,0.0,0.0,0.0,0.0,0.0,0.0,0.0,0.0,0.0,0.0,0.0,0.0,0.0,0.0,0.0,0.0,0.0,0.0,0.0,0.0,0.0,0.0,0.0,0.0,0.0,0.0,0.0,0.0,0.0,0.0,0.0,0.0,0.0,0.0,0.0,0.0,0.0,0.0,0.0,0.0,0.0,0.0,0.0,0.0,0.0,0.0,0.0,0.0,0.0,0.0,0.0,0.0,0.0,0.0,0.0,0.0,0.0,0.0,0.0,0.0,0.0,0.0,0.0,0.0,0.0,0.0,0.0,0.0,0.0,0.0,0.0,0.0,0.0,0.0,0.0,0.0,0.0,0.0,0.0,0.0,0.0,0.0,0.0,0.0,0.0,0.0,0.0,0.0,0.0,0.0,0.0,0.0,0.0,-0.0777,-0.0772,-0.079,0.0,-0.0781,0.0,0.0,0.0,0.0,0.0,0.0,0.0,0.0,0.0,0.0,0.0,0.0,0.0,0.0,0.0,0.0,0.0,0.0,0.0,0.0,0.0,0.0,0.0,0.0,0.0,0.0,0.0,0.0,0.0,0.0,0.0,0.0,0.0,0.0,0.0,0.0,0.0,0.0,0.0,0.0,0.0,0.0,0.0,0.0,0.0,0.0,0.0,0.0,0.0,0.0,0.0,0.0,0.0,0.0,0.0,0.0,0.0,0.0,0.0,0.0,0.0,0.0,0.0,0.0,0.0,0.0,0.0,0.0,0.0,0.0,0.0,0.0,0.0,0.0,0.0,0.0,0.0,0.0,0.0,0.0,0.0,0.0,0.0,0.0,0.0,0.0,0.0,0.0,0.0,0.0,0.0,0.0,0.0,0.0,0.0,0.0,0.0,0.0,0.0,0.0,0.0,0.0,0.0,0.0,0.0,0.0,0.0,0.0,0.0,0.0,-0.0589,-0.0597,-0.0586,-0.059,0.0,0.0,0.0,0.0,0.0,0.0,0.0,0.0,0.0,0.0,0.0,0.0,0.0,0.0,0.0,0.0,0.0,0.0,0.0,0.0,0.0,0.0,0.0,0.0,0.0,0.0,0.0,0.0,0.0,0.0,0.0,0.0,0.0,0.0,0.0,0.0,0.0,0.0,0.0,0.0,0.0,0.0,0.0,0.0,0.0,0.0,0.0,0.0,0.0,0.0,0.0,0.0,0.0,0.0,0.0,0.0,0.0,0.0,0.0,0.0,0.0,0.0,0.0,0.0,0.0,0.0,0.0,0.0,0.0,0.0,0.0,0.0,0.0,0.0,0.0,0.0,0.0,0.0,0.0,0.0,0.0,0.0,0.0,0.0,0.0,0.0,0.0,0.0,0.0,0.0,0.0,0.0,0.0,0.0,0.0,0.0,0.0,0.0,0.0,0.0,0.0,0.0,0.0,0.0,0.0,0.0,0.0,0.0,0.0,0.0,-0.0151,-0.012,-0.0277,-0.029,-0.032,-0.033,0.0,0.0,0.0,0.0,0.0,0.0,0.0,0.0,0.0,0.0,0.0,0.0,0.0,0.0,0.0,0.0,0.0,0.0,0.0,0.0,0.0,0.0,0.0,0.0,0.0,0.0,0.0,0.0,0.0,0.0,0.0,0.0,0.0,0.0,0.0,0.0,0.0,0.0,0.0,0.0,0.0,0.0,0.0,0.0,0.0,0.0,0.0,0.0,0.0,0.0,0.0,0.0,0.0,0.0,0.0,0.0,0.0,0.0,0.0,0.0,0.0,0.0,0.0,0.0,0.0,0.0,0.0,0.0,0.0,0.0,0.0,0.0,0.0,0.0,0.0,0.0,0.0,0.0,0.0,0.0,0.0,0.0,0.0,0.0,0.0,0.0,0.0,0.0,0.0,0.0,0.0,0.0,0.0,0.0,0.0,0.0,0.0,0.0,0.0,0.0,0.0,0.0,0.0,0.0,0.0,0.0,0.0,0.0,0.0755,0.0963,0.0829,0.0295,0.019,0.0141,0.0,0.0,0.0,0.0,0.0,0.0,0.0,0.0,0.0,0.0,0.0,0.0,0.0,0.0,0.0,0.0,0.0,0.0,0.0,0.0,0.0,0.0,0.0,0.0,0.0,0.0,0.0,0.0,0.0,0.0,0.0,0.0,0.0,0.0,0.0,0.0,0.0,0.0,0.0,0.0,0.0,0.0,0.0,0.0,0.0,0.0,0.0,0.0,0.0,0.0,0.0,0.0,0.0,0.0,0.0,0.0,0.0,0.0,0.0,0.0,0.0,0.0,0.0,0.0,0.0,0.0,0.0,0.0,0.0,0.0,0.0,0.0,0.0,0.0,0.0,0.0,0.0,0.0,0.0,0.0,0.0,0.0,0.0,0.0,0.0,0.0,0.0,0.0,0.0,0.0,0.0,0.0,0.0,0.0,0.0,0.0,0.0,0.0,0.0,0.0,0.0,0.0,0.0,0.0,0.0,0.0,0.0,0.0,0.0,0.1045,0.0832,0.0824,0.0927,0.0628,0.0559,0.0,0.0,0.0,0.0,0.0,0.0,0.0,0.0,0.0,0.0,0.0,0.0,0.0,0.0,0.0,0.0,0.0,0.0,0.0,0.0,0.0,0.0,0.0,0.0,0.0,0.0,0.0,0.0,0.0,0.0,0.0,0.0,0.0,0.0,0.0,0.0,0.0,0.0,0.0,0.0,0.0,0.0,0.0,0.0,0.0,0.0,0.0,0.0,0.0,0.0,0.0,0.0,0.0,0.0,0.0,0.0,0.0,0.0,0.0,0.0,0.0,0.0,0.0,0.0,0.0,0.0,0.0,0.0,0.0,0.0,0.0,0.0,0.0,0.0,0.0,0.0,0.0,0.0,0.0,0.0,0.0,0.0,0.0,0.0,0.0,0.0,0.0,0.0,0.0,0.0,0.0,0.0,0.0,0.0,0.0,0.0,0.0,0.0,0.0,0.0,0.0,0.0,0.0,0.0,0.0,0.0,0.0,0.0,0.0,0.2222,0.1084,0.0725,0.1135,0.0837,0.0876,0.0,0.0,0.0,0.0,0.0,0.0,0.0,0.0,0.0,0.0,0.0,0.0,0.0,0.0,0.0,0.0,0.0,0.0,0.0,0.0,0.0,0.0,0.0,0.0,0.0,0.0,0.0,0.0,0.0,0.0,0.0,0.0,0.0,0.0,0.0,0.0,0.0,0.0,0.0,0.0,0.0,0.0,0.0,0.0,0.0,0.0,0.0,0.0,0.0,0.0,0.0,0.0,0.0,0.0,0.0,0.0,0.0,0.0,0.0,0.0,0.0,0.0,0.0,0.0,0.0,0.0,0.0,0.0,0.0,0.0,0.0,0.0,0.0,0.0,0.0,0.0,0.0,0.0,0.0,0.0,0.0,0.0,0.0,0.0,0.0,0.0,0.0,0.0,0.0,0.0,0.0,0.0,0.0,0.0,0.0,0.0,0.0,0.0,0.0,0.0,0.0,0.0,0.0,0.0,0.0,0.0,0.0,0.0,0.5554,0.4408,0.1858,0.0656,0.0904,0.0847,0.1051,0.0,0.0,0.0,0.0,0.0,0.0,0.0,0.0,0.0,0.0,0.0,0.0,0.0,0.0,0.0,0.0,0.0,0.0,0.0,0.0,0.0,0.0,0.0,0.0,0.0,0.0,0.0,0.0,0.0,0.0,0.0,0.0,0.0,0.0,0.0,0.0,0.0,0.0,0.0,0.0,0.0,0.0,0.0,0.0,0.0,0.0,0.0,0.0,0.0,0.0,0.0,0.0,0.0,0.0,0.0,0.0,0.0,0.0,0.0,0.0,0.0,0.0,0.0,0.0,0.0,0.0,0.0,0.0,0.0,0.0,0.0,0.0,0.0,0.0,0.0,0.0,0.0,0.0,0.0,0.0,0.0,0.0,0.0,0.0,0.0,0.0,0.0,0.0,0.0,0.0,0.0,0.0,0.0,0.0,0.0,0.0,0.0,0.0,0.0,0.0,0.0,0.0,0.0,0.0,0.0,0.0,0.0,0.0,0.0,0.4385,0.2042,0.0922,0.1218,0.0949,0.1199,0.0,0.0,0.0,0.0,0.0,0.0,0.0,0.0,0.0,0.0,0.0,0.0,0.0,0.0,0.0,0.0,0.0,0.0,0.0,0.0,0.0,0.0,0.0,0.0,0.0,0.0,0.0,0.0,0.0,0.0,0.0,0.0,0.0,0.0,0.0,0.0,0.0,0.0,0.0,0.0,0.0,0.0,0.0,0.0,0.0,0.0,0.0,0.0,0.0,0.0,0.0,0.0,0.0,0.0,0.0,0.0,0.0,0.0,0.0,0.0,0.0,0.0,0.0,0.0,0.0,0.0,0.0,0.0,0.0,0.0,0.0,0.0,0.0,0.0,0.0,0.0,0.0,0.0,0.0,0.0,0.0,0.0,0.0,0.0,0.0,0.0,0.0,0.0,0.0,0.0,0.0,0.0,0.0,0.0,0.0,0.0,0.0,0.0,0.0,0.0,0.0,0.0,0.0,0.0,0.0,0.0,0.0,0.0,0.0,0.3724,0.1912,0.1021,0.1281,0.1011,0.1269,0.2072,0.0,0.0,0.0,0.0,0.0,0.0,0.0,0.0,0.0,0.0,0.0,0.0,0.0,0.0,0.0,0.0,0.0,0.0,0.0,0.0,0.0,0.0,0.0,0.0,0.0,0.0,0.0,0.0,0.0,0.0,0.0,0.0,0.0,0.0,0.0,0.0,0.0,0.0,0.0,0.0,0.0,0.0,0.0,0.0,0.0,0.0,0.0,0.0,0.0,0.0,0.0,0.0,0.0,0.0,0.0,0.0,0.0,0.0,0.0,0.0,0.0,0.0,0.0,0.0,0.0,0.0,0.0,0.0,0.0,0.0,0.0,0.0,0.0,0.0,0.0,0.0,0.0,0.0,0.0,0.0,0.0,0.0,0.0,0.0,0.0,0.0,0.0,0.0,0.0,0.0,0.0,0.0,0.0,0.0,0.0,0.0,0.0,0.0,0.0,0.0,0.0,0.0,0.0,0.0,0.0,0.0,0.0,0.0,0.2795,0.1622,0.1062,0.1127,0.1056,0.1255,0.0,0.0,0.0,0.0,0.0,0.0,0.0,0.0,0.0,0.0,0.0,0.0,0.0,0.0,0.0,0.0,0.0,0.0,0.0,0.0,0.0,0.0,0.0,0.0,0.0,0.0,0.0,0.0,0.0,0.0,0.0,0.0,0.0,0.0,0.0,0.0,0.0,0.0,0.0,0.0,0.0,0.0,0.0,0.0,0.0,0.0,0.0,0.0,0.0,0.0,0.0,0.0,0.0,0.0,0.0,0.0,0.0,0.0,0.0,0.0,0.0,0.0,0.0,0.0,0.0,0.0,0.0,0.0,0.0,0.0,0.0,0.0,0.0,0.0,0.0,0.0,0.0,0.0,0.0,0.0,0.0,0.0,0.0,0.0,0.0,0.0,0.0,0.0,0.0,0.0,0.0,0.0,0.0,0.0,0.0,0.0,0.0,0.0,0.0,0.0,0.0,0.0,0.0,0.0,0.0,0.0,0.0,0.0,0.0,0.259,0.2443,0.2059,0.1409,0.1142,0.134,0.0,0.0,0.0,0.0,0.0,0.0,0.0,0.0,0.0,0.0,0.0,0.0,0.0,0.0,0.0,0.0,0.0,0.0,0.0,0.0,0.0,0.0,0.0,0.0,0.0,0.0,0.0,0.0,0.0,0.0,0.0,0.0,0.0,0.0,0.0,0.0,0.0,0.0,0.0,0.0,0.0,0.0,0.0,0.0,0.0,0.0,0.0,0.0,0.0,0.0,0.0,0.0,0.0,0.0,0.0,0.0,0.0,0.0,0.0,0.0,0.0,0.0,0.0,0.0,0.0,0.0,0.0,0.0,0.0,0.0,0.0,0.0,0.0,0.0,0.0,0.0,0.0,0.0,0.0,0.0,0.0,0.0,0.0,0.0,0.0,0.0,0.0,0.0,0.0,0.0,0.0,0.0,0.0,0.0,0.0,0.0,0.0,0.0,0.0,0.0,0.0,0.0,0.0,0.0,0.0,0.0,0.0,0.0,0.2472,0.2468,0.2527,0.2411,0.2106,0.19,0.1876,0.0,0.0,0.0,0.0,0.0,0.0,0.0,0.0,0.0,0.0,0.0,0.0,0.0,0.0,0.0,0.0,0.0,0.0,0.0,0.0,0.0,0.0,0.0,0.0,0.0,0.0,0.0,0.0,0.0,0.0,0.0,0.0,0.0,0.0,0.0,0.0,0.0,0.0,0.0,0.0,0.0,0.0,0.0,0.0,0.0,0.0,0.0,0.0,0.0,0.0,0.0,0.0,0.0,0.0,0.0,0.0,0.0,0.0,0.0,0.0,0.0,0.0,0.0,0.0,0.0,0.0,0.0,0.0,0.0,0.0,0.0,0.0,0.0,0.0,0.0,0.0,0.0,0.0,0.0,0.0,0.0,0.0,0.0,0.0,0.0,0.0,0.0,0.0,0.0,0.0,0.0,0.0,0.0,0.0,0.0,0.0,0.0,0.0,0.0,0.0,0.0,0.0,0.0,0.0,0.0,0.0,0.0,0.0,0.1601,0.2523,0.2358,0.2506,0.2987,0.2911,0.2552,0.0,0.0,0.0,0.0,0.0,0.0,0.0,0.0,0.0,0.0,0.0,0.0,0.0,0.0,0.0,0.0,0.0,0.0,0.0,0.0,0.0,0.0,0.0,0.0,0.0,0.0,0.0,0.0,0.0,0.0,0.0,0.0,0.0,0.0,0.0,0.0,0.0,0.0,0.0,0.0,0.0,0.0,0.0,0.0,0.0,0.0,0.0,0.0,0.0,0.0,0.0,0.0,0.0,0.0,0.0,0.0,0.0,0.0,0.0,0.0,0.0,0.0,0.0,0.0,0.0,0.0,0.0,0.0,0.0,0.0,0.0,0.0,0.0,0.0,0.0,0.0,0.0,0.0,0.0,0.0,0.0,0.0,0.0,0.0,0.0,0.0,0.0,0.0,0.0,0.0,0.0,0.0,0.0,0.0,0.0,0.0,0.0,0.0,0.0,0.0,0.0,0.0,0.0,0.0,0.0,0.0,0.0,0.0,0.2964,0.3478,0.3396,0.3476,0.3686,0.2917,0.2324,0.0,0.0,0.0,0.0,0.0,0.0,0.0,0.0,0.0,0.0,0.0,0.0,0.0,0.0,0.0,0.0,0.0,0.0,0.0,0.0,0.0,0.0,0.0,0.0,0.0,0.0,0.0,0.0,0.0,0.0,0.0,0.0,0.0,0.0,0.0,0.0,0.0,0.0,0.0,0.0,0.0,0.0,0.0,0.0,0.0,0.0,0.0,0.0,0.7673,0.0,0.0,0.0,0.0,0.0,0.0,0.0,0.0,0.0,0.0,0.0,0.0,0.0,0.0,0.0,0.0,0.0,0.0,0.0,0.0,0.0,0.0,0.0,0.0,0.0,0.0,0.0,0.0,0.0,0.0,0.0,0.0,0.0,0.0,0.0,0.0,0.0,0.0,0.0,0.0,0.0,0.0,0.0,0.0,0.0,0.0,0.0,0.0,0.0,0.0,0.0,0.0,0.0,0.0,0.0,0.0,0.0,0.0,0.0,0.2906,0.3568,0.3423,0.3436,0.3635,0.3081,0.2622,0.0,0.0,0.0,0.0,0.0,0.0,0.0,0.0,0.0,0.0,0.0,0.0,0.0,0.0,0.0,0.0,0.0,0.0,0.0,0.0,0.0,0.0,0.0,0.0,0.0,0.0,0.0,0.0,0.0,0.0,0.0,0.0,0.0,0.0,0.0,0.0,0.0,0.0,0.0,0.0,0.0,0.0,0.0,0.0,0.0,0.0,0.0,0.0,0.0,0.0,0.0,0.0,0.0,0.0,0.0,0.0,0.0,0.0,0.0,0.0,0.0,0.0,0.0,0.0,0.0,0.0,0.0,0.0,0.0,0.0,0.0,0.0,0.0,0.0,0.0,0.0,0.0,0.0,0.0,0.0,0.0,0.0,0.0,0.0,0.0,0.0,0.0,0.0,0.0,0.0,0.0,0.0,0.0,0.0,0.0,0.0,0.0,0.0,0.0,0.0,0.0,0.0,0.0,0.0,0.0,0.0,0.0,0.3072,0.2521,0.3351,0.3072,0.3047,0.3372,0.3274,0.3078,0.2768,0.0,0.0,0.0,0.0,0.0,0.0,0.0,0.0,0.0,0.0,0.0,0.0,0.0,0.0,0.0,0.0,0.0,0.0,0.0,0.0,0.0,0.0,0.0,0.0,0.0,0.0,0.0,0.0,0.0,0.0,0.0,0.0,0.0,0.0,0.0,0.0,0.0,0.0,0.5376,0.6883,0.0,0.0,0.0,0.0,0.0,0.0,0.0,0.0,0.9675,0.0,0.0,0.0,0.0,0.0,0.0,0.0,0.0,0.0,0.0,0.0,0.0,0.0,0.0,0.0,0.0,0.0,0.0,0.0,0.0,0.0,0.0,0.0,0.0,0.0,0.0,0.0,0.0,0.0,0.0,0.0,0.0,0.0,0.0,0.0,0.0,0.0,0.0,0.0,0.0,0.0,0.0,0.0,0.0,0.0,0.0,0.0,0.0,0.0,0.0,0.0,0.0,0.0,0.0,0.0,0.0,0.3148,0.3025,0.3119,0.3389,0.3066,0.3003,0.3221,0.3326,0.3113,0.2577,0.0,0.0,0.0,0.0,0.0,0.0,0.0,0.0,0.0,0.0,0.0,0.0,0.0,0.0,0.0,0.0,0.0,0.0,0.0,0.0,0.0,0.0,0.0,0.0,0.0,0.0,0.0,0.0,0.0,0.0,0.0,0.0,0.0,0.0,0.0,0.0,0.0,0.0,0.0,0.8804,0.9075,0.0,0.0,0.0,0.0,0.0,0.0,0.0,0.0,0.9982,0.0,0.0,0.0,0.0,0.0,0.0,0.0,0.0,0.0,0.0,0.0,0.0,0.0,0.0,0.0,0.0,0.0,0.0,0.0,0.0,0.0,0.0,0.0,0.0,0.0,0.0,0.0,0.0,0.0,0.0,0.0,0.0,0.0,0.0,0.0,0.0,0.0,0.0,0.0,0.0,0.0,0.0,0.0,0.0,0.0,0.0,0.0,0.0,0.0,0.0,0.0,0.0,0.0,0.0,0.0,0.28,0.2956,0.3198,0.3379,0.3169,0.3171,0.3392,0.3322,0.3108,0.0,0.0,0.0,0.0,0.0,0.0,0.0,0.0,0.0,0.0,0.0,0.0,0.0,0.0,0.0,0.0,0.0,0.0,0.0,0.0,0.0,0.0,0.0,0.0,0.0,0.0,0.0,0.0,0.0,0.0,0.0,0.0,0.0,0.0,0.0,0.0,0.0,0.0,0.0,0.0,0.9613,0.9712,1.0034,0.0,0.0,0.0,0.0,0.0,0.0,1.0126,1.0007,0.0,0.0,0.0,0.0,0.0,0.0,0.0,0.0,0.0,0.0,0.0,0.0,0.0,0.0,0.0,0.0,0.0,0.0,0.0,0.0,0.0,0.0,0.0,0.0,0.0,0.0,0.0,0.0,0.0,0.0,0.0,0.0,0.0,0.0,0.0,0.0,0.0,0.0,0.0,0.0,0.0,0.0,0.0,0.0,0.0,0.0,0.0,0.0,0.0,0.0,0.0,0.0,0.0,0.0,0.0,0.2594,0.2835,0.3138,0.3417,0.3294,0.3341,0.3555,0.3425,0.3191,0.0,0.0,0.0,0.0,0.0,0.0,0.0,0.0,0.0,0.0,0.0,0.0,0.0,0.0,0.0,0.0,0.0,0.0,0.0,0.0,0.0,0.0,0.0,0.0,0.0,0.0,0.0,0.0,0.0,0.0,0.0,0.0,0.0,0.0,0.0,0.0,0.0,0.0,0.0,0.0,0.0,1.0285,1.0678,1.1038,0.0,0.0,0.0,0.0,1.0713,1.0452,0.0,0.0,0.0,0.0,0.0,0.0,0.0,0.0,0.0,0.0,0.0,0.0,0.0,0.0,0.0,0.0,0.0,0.0,0.0,0.0,0.0,0.0,0.0,0.0,0.0,0.0,0.0,0.0,0.0,0.0,0.0,0.0,0.0,0.0,0.0,0.0,0.0,0.0,0.0,0.0,0.0,0.0,0.0,0.0,0.0,0.0,0.0,0.0,0.0,0.0,0.0,0.0,0.0,0.0,0.0,0.0,0.2066,0.26,0.3131,0.3539,0.3457,0.3392,0.3441,0.3739,0.3539,0.0,0.0,0.0,0.0,0.0,0.0,0.0,0.0,0.0,0.0,0.0,0.0,0.0,0.0,0.0,0.0,0.0,0.0,0.0,0.0,0.0,0.0,0.0,0.0,0.0,0.0,0.0,0.0,0.0,0.0,0.0,0.0,0.0,0.0,0.0,0.0,0.0,0.0,0.0,0.0,0.0,1.0891,1.0512,1.0696,1.0787,0.0,0.0,1.1265,1.1287,1.1509,0.0,0.0,0.0,0.0,0.0,0.0,0.0,0.0,0.0,0.0,0.0,0.0,0.0,0.0,0.0,0.0,0.0,0.0,0.0,0.0,0.0,0.0,0.0,0.0,0.0,0.0,0.0,0.0,0.0,0.0,0.0,0.0,0.0,0.0,0.0,0.0,0.0,0.0,0.0,0.0,0.0,0.0,0.0,0.0,0.0,0.0,0.0,0.0,0.0,0.0,0.0,0.0,0.0,0.0,0.0,0.35,0.2252,0.2776,0.3237,0.3576,0.3618,0.3666,0.3737,0.3825,0.3596,0.0,0.0,0.0,0.0,0.0,0.0,0.0,0.0,0.0,0.0,0.0,0.0,0.0,0.0,0.0,0.0,0.0,0.0,0.0,0.0,0.0,0.0,0.0,0.0,0.0,0.0,0.0,0.0,0.0,0.0,0.0,0.0,0.0,0.0,0.0,0.0,0.0,0.0,0.0,0.0,0.0,0.0,1.1168,1.1948,0.0,0.0,0.0,1.2777,1.2466,0.0,0.0,0.0,0.0,0.0,0.0,0.0,0.0,0.0,0.0,0.0,0.0,0.0,0.0,0.0,0.0,0.0,0.0,0.0,0.0,0.0,0.0,0.0,0.0,0.0,0.0,0.0,0.0,0.0,0.0,0.0,0.0,0.0,0.0,0.0,0.0,0.0,0.0,0.0,0.0,0.0,0.0,0.0,0.0,0.0,0.0,0.0,0.0,0.0,0.0,0.0,0.0,0.0,0.0,0.0,0.0,0.0,0.2444,0.2963,0.3367,0.3598,0.3804,0.3914,0.3945,0.392,0.0,0.0,0.0,0.0,0.0,0.0,0.0,0.0,0.0,0.0,0.0,0.0,0.0,0.0,0.0,0.0,0.0,0.0,0.0,0.0,0.0,0.0,0.0,0.0,0.0,0.0,0.0,0.3783,0.0,0.0,0.0,0.0,0.0,0.0,0.0,0.0,0.0,0.0,0.0,0.0,0.0,0.0,1.1437,1.1911,1.3011,1.3638,0.0,0.0,1.3877,1.3525,1.3476,1.3309,0.0,0.0,0.0,0.0,0.0,0.0,0.0,0.0,0.0,0.0,0.0,0.0,0.0,0.0,0.0,0.0,0.0,0.0,0.0,0.0,0.0,0.0,0.0,0.0,0.0,0.0,0.0,0.0,0.0,0.0,0.0,0.0,0.0,0.0,0.0,0.0,0.0,0.0,0.0,0.0,0.0,0.0,0.0,0.0,0.0,0.0,0.0,0.0,0.0,0.0,0.0,0.0,0.0,0.0,0.0,0.248,0.3048,0.3459,0.3598,0.397,0.4063,0.383,0.4049,0.377,0.0,0.0,0.0,0.0,0.0,0.0,0.0,0.0,0.0,0.0,0.0,0.0,0.0,0.0,0.0,0.0,0.0,0.0,0.0,0.0,0.0,0.0,0.0,0.0,0.0,0.0,0.0,0.0,0.0,0.0,0.0,0.0,0.0,0.0,0.0,0.0,0.0,0.0,0.0,0.0,0.0,1.2253,1.2445,1.3163,1.3823,0.0,0.0,1.4061,1.4213,1.4231,1.3891,1.2869,0.0,0.0,0.0,0.0,0.0,0.0,0.0,0.0,0.0,0.0,0.0,0.0,0.0,0.0,0.0,0.0,0.0,0.0,0.0,0.0,0.0,0.0,0.0,0.0,0.0,0.0,0.0,0.0,0.0,0.0,0.0,0.0,0.0,0.0,0.0,0.0,0.0,0.0,0.0,0.0,0.0,0.0,0.0,0.0,0.0,0.0,0.0,0.0,0.0,0.0,0.0,0.0,0.0,0.4039,0.2616,0.3117,0.3497,0.3726,0.4035,0.4155,0.4046,0.406,0.3803,0.0,0.0,0.0,0.0,0.0,0.0,0.0,0.0,0.0,0.0,0.0,0.0,0.0,0.0,0.0,0.0,0.0,0.0,0.0,0.0,0.0,0.0,0.0,0.0,0.0,0.0,0.0,0.0,0.6698,0.6705,0.5915,0.0,0.0,0.0,0.0,0.0,0.0,0.0,0.0,0.0,0.0,1.2663,1.3338,1.4175,0.0,0.0,1.5083,1.5441,1.569,1.5429,1.508,1.4672,1.4337,0.0,0.0,0.0,0.0,0.0,0.0,0.0,0.0,0.0,0.0,0.0,0.0,0.0,0.0,0.0,0.0,0.0,0.0,0.0,0.0,0.0,0.0,0.0,0.0,0.0,0.0,0.0,0.0,0.0,0.0,0.0,0.0,0.0,0.0,0.0,0.0,0.0,0.0,0.0,0.0,0.0,0.0,0.0,0.0,0.0,0.0,0.0,0.0,0.0,0.0,0.0,0.0,0.4581,0.2736,0.3245,0.3621,0.3792,0.4107,0.4355,0.4469,0.4342,0.4139,0.0,0.0,0.0,0.0,0.0,0.0,0.0,0.0,0.0,0.0,0.0,0.0,0.0,0.0,0.0,0.0,0.0,0.0,0.0,0.0,0.0,0.0,0.0,0.0,0.0,0.0,0.0,0.0,0.6764,0.6736,0.5386,0.0,0.0,0.0,0.0,0.0,0.0,0.0,0.0,0.0,0.0,1.3463,1.4193,1.5133,1.5698,1.5513,1.5935,1.639,1.657,1.6295,1.5983,1.5827,0.0,0.0,0.0,0.0,0.0,0.0,0.0,0.0,0.0,0.0,0.0,0.0,0.0,0.0,0.0,0.0,0.0,0.0,0.0,0.0,0.0,0.0,0.0,0.0,0.0,0.0,0.0,0.0,0.0,0.0,0.0327,0.0,0.0,0.0,0.0,0.0,0.0,0.0,0.0,0.0,0.0,0.0,0.0,0.0,0.0,0.0,0.0,0.0,0.0,0.0,0.0,0.0,0.0,0.5666,0.2781,0.3418,0.3801,0.3826,0.4254,0.467,0.505,0.4947,0.4911,0.4941,0.0,0.0,0.0,0.0,0.0,0.0,0.0,0.0,0.0,0.0,0.0,0.0,0.0,0.0,0.0,0.0,0.0,0.0,0.0,0.0,0.0,0.0,0.0,0.0,0.0,0.0,0.4958,0.5988,0.6563,0.0,0.0,0.0,0.0,0.0,0.0,0.0,0.0,0.0,0.0,1.3796,1.4808,1.4983,1.5899,1.6558,1.6547,1.6583,1.6606,1.6643,1.6583,1.6403,0.0,0.0,0.0,0.0,0.0,0.0,0.0,0.0,0.0,0.0,0.0,0.0,0.0,0.0,0.0,0.0,0.0,0.0,0.0,0.0,0.0,0.0,0.0,0.0,0.0,0.0,0.0,0.293,0.3028,0.0,0.0,0.0,0.0,0.0,0.0,0.0,0.0,0.0,0.0,0.0,0.4032,0.4826,0.0,0.0,0.0,0.0,0.0,0.0,0.0,0.0,0.0,0.0,0.0,0.0,0.585,0.3261,0.3561,0.3887,0.4078,0.4708,0.5103,0.5212,0.5484,0.5529,0.5331,0.0,0.0,0.0,0.0,0.0,0.0,0.0,0.0,0.0,0.0,0.0,0.0,0.0,0.0,0.0,0.0,0.0,0.0,0.0,0.0,0.0,0.0,0.0,0.0,0.0,0.5571,0.0,0.0,0.0,0.0,0.0,0.0,0.0,0.0,0.0,0.0,0.0,1.3677,1.398,1.5169,1.613,1.6535,1.6883,1.7135,0.0,0.0,0.0,0.0,0.0,0.0,0.0,0.0,0.0,0.0,0.0,0.0,0.0,0.0,1.5174,1.3068,1.2556,1.2435,1.2435,0.0,0.0,0.0,0.0,0.0,0.0,0.0,0.0,0.0,0.0,0.0,0.0,0.0,0.0,0.421,0.0,0.555,0.0,0.0,0.0,0.0,0.0,0.0,0.0,0.0,0.4438,0.3451,0.3935,0.4732,0.5048,0.0,0.5721,0.54,0.0,0.0,0.0,0.0,0.0,0.0,0.0,0.0,0.5635,0.3562,0.3722,0.398,0.4207,0.4751,0.5117,0.5304,0.5914,0.6047,0.5673,0.5942,0.5808,0.0,0.0,0.0,0.0,0.0,0.0,0.0,0.0,0.0,0.0,0.0,0.0,0.0,0.0,0.0,0.0,0.0,0.0,0.0,0.0,0.0,0.0,0.0,0.6149,0.0,0.0,0.0,0.0,0.0,0.0,0.0,0.0,0.0,1.1753,1.3519,1.4947,1.5271,1.6193,1.7003,1.7351,0.0,0.0,0.0,0.0,0.0,0.0,0.0,1.7267,1.7628,1.7099,1.6583,1.6391,1.6643,1.6871,1.6883,0.0,0.0,1.4704,1.4175,1.4055,1.4045,1.4608,1.5044,1.488,1.585,1.6773,0.0,0.0,0.0,0.0,0.0,0.0,0.0,0.0,0.5624,0.5419,0.0,0.4897,0.0,0.0,0.0,0.0,0.0,0.5339,0.0,0.0,0.3741,0.3296,0.3417,0.347,0.3548,0.3695,0.36,0.3525,0.3632,0.5299,0.0,0.0,0.0,0.0,0.0,0.0,0.5125,0.3745,0.3909,0.4066,0.4217,0.4419,0.4791,0.5332,0.6194,0.6408,0.5941,0.5842,0.5718,0.5506,0.4405,0.0,0.0,0.0,0.0,0.0,0.0,0.0,0.0,0.0,0.0,0.0,0.0,0.0,0.0,0.0,0.0,0.0,0.0,0.0,0.0,0.7286,0.0,0.0,0.0,0.0,0.0,0.0,0.0,0.0,0.0,0.0,1.3954,1.4339,1.501,1.6127,0.0,0.0,0.0,0.0,1.8229,1.8229,1.8229,1.8229,1.8217,1.8205,1.8193,1.823,0.0,0.0,1.7532,1.7435,1.746,1.7448,1.7483,1.7435,1.7399,1.6859,1.6535,1.6535,1.6547,1.6724,1.7004,1.7405,1.8043,0.1033,0.0,0.0,0.0,0.0,0.42,0.3734,0.2729,0.3029,0.3158,0.3206,0.4628,0.0,0.0,0.0,0.0,0.0,0.0,0.552,0.5676,0.4236,0.3648,0.3824,0.3924,0.3992,0.4056,0.4007,0.399,0.4028,0.4425,0.5054,0.593,0.0,0.0,0.0,0.0,0.5468,0.3889,0.4018,0.424,0.4412,0.4851,0.5363,0.5932,0.601,0.6024,0.598,0.5905,0.5752,0.5506,0.5035,0.0,0.0,0.0,0.0,0.0,0.0,0.0,0.0,0.0,0.0,0.0,0.0,0.0,0.0,0.0,0.0,0.0,0.0,0.0,0.6605,0.7666,0.825,0.0,0.0,0.0,0.0,0.0,0.0,0.0,0.0,0.0,1.5533,1.6157,1.6835,0.0,0.0,1.8543,1.8542,1.8662,1.8758,1.8771,1.877,0.0,0.0,1.8433,1.8326,1.871,1.877,1.871,1.8566,1.8542,1.8542,1.8542,1.853,1.8555,1.8494,1.7784,1.7219,1.7183,1.7472,1.781,1.8105,1.856,1.9054,0.0829,0.2117,0.3787,0.3697,0.26,0.3426,0.317,0.2121,0.2465,0.2685,0.2854,0.4065,0.4489,0.4373,0.5526,0.0,0.0,0.0,0.4991,0.5218,0.4257,0.3908,0.4087,0.4162,0.4249,0.4305,0.4207,0.4211,0.4304,0.4133,0.4433,0.523,0.0,0.0,0.5096,0.5297,0.4981,0.412,0.4164,0.4291,0.4498,0.4818,0.5144,0.551,0.5565,0.5589,0.5561,0.5767,0.5793,0.5658,0.5187,0.524,0.0,0.0,0.0,0.0,0.0,0.0,0.0,0.0,0.0,0.0,0.0,0.7083,0.0,0.0,0.0,0.0,0.9175,0.9289,0.7786,0.8812,0.0,0.0,0.0,0.0,0.0,0.0,0.0,1.3022,1.4419,1.5768,1.6765,1.7475,1.7996,1.8323,1.8717,1.9013,1.9013,0.0,1.9013,1.9013,1.9013,1.9013,1.9,1.8747,1.8639,1.8927,1.9013,1.9013,1.9013,1.9013,1.9013,1.9013,1.9013,1.9013,1.9013,1.8458,1.8024,1.8036,1.834,1.8648,1.8878,1.9212,1.9552,0.08,0.0885,0.0824,0.0879,0.1049,0.2188,0.2707,0.2806,0.3357,0.3534,0.3417,0.3414,0.3218,0.2855,0.274,0.0,0.5734,0.4165,0.3613,0.3821,0.3979,0.4093,0.4207,0.4235,0.4315,0.4487,0.4234,0.4264,0.4477,0.4261,0.4171,0.422,0.3985,0.3867,0.3906,0.3876,0.4055,0.4464,0.4311,0.4314,0.4501,0.4505,0.4519,0.4532,0.4993,0.5124,0.4904,0.5444,0.5805,0.5931,0.5114,0.489,0.5378,0.0,0.0,0.0,0.0,0.0,0.0,0.0,0.0,0.0,0.0,0.0,0.0,0.0,0.0,0.0,1.0954,0.0,1.0388,1.0356,0.0,0.0,0.0,1.0998,1.1064,1.2424,1.3505,1.3858,0.0,0.0,1.7739,1.8306,1.864,1.8627,1.8841,1.9013,1.9013,1.9013,1.9013,1.9013,1.9013,1.9013,1.9013,1.8976,1.8976,1.9,1.9013,1.9013,1.9013,1.9013,1.9013,1.9013,1.9013,1.9013,1.9013,1.8964,1.9,1.8965,1.9081,1.9224,1.937,1.95,1.963,0.0868,0.0984,0.1849,0.2233,0.2291,0.2937,0.3268,0.3399,0.3544,0.3583,0.3556,0.3569,0.3509,0.3399,0.3372,0.3654,0.4164,0.3954,0.3905,0.3976,0.4256,0.4394,0.4436,0.4422,0.4449,0.4487,0.444,0.4429,0.4487,0.444,0.4412,0.4433,0.4365,0.4222,0.3995,0.4206,0.4314,0.4261,0.4372,0.4498,0.4629,0.456,0.4546,0.466,0.4684,0.4663,0.46,0.5062,0.5697,0.6372,0.6171,0.64,0.7202,0.6395,0.0,0.0,0.0,0.0,0.0,0.0,0.0,0.0,0.0,0.8511,0.8197,0.0,0.9499,0.0,1.0567,1.0911,1.0371,1.084,0.0,0.0,1.2108,1.2581,1.3241,1.4123,1.495,1.5745,1.6788,1.7702,1.8338,1.8703,1.8907,1.8907,1.8972,1.9013,1.9013,1.9013,1.9013,1.9013,1.8987,1.9013,1.8987,1.9013,1.9013,1.9013,1.9013,1.9013,1.9013,1.9013,1.9013,1.9013,1.9013,1.9013,1.9,1.9013,1.9039,1.913,1.9183,1.9262,1.9499,1.959,1.963,0.0883,0.0981,0.1916,0.2294,0.235,0.3153,0.3523,0.3599,0.3599,0.3599,0.3599,0.3599,0.3599,0.3599,0.3599,0.3599,0.3624,0.3885,0.3993,0.4021,0.4353,0.4491,0.4491,0.4491,0.4491,0.4491,0.4491,0.4491,0.4491,0.4491,0.4491,0.4491,0.4491,0.4409,0.4246,0.4409,0.4447,0.4335,0.4505,0.4632,0.4705,0.4684,0.4702,0.478,0.4805,0.4766,0.4678,0.5297,0.5864,0.6304,0.6474,0.6897,0.7611,0.6819,0.6476,0.0,0.0,0.0,0.0,0.0,0.0,0.0,0.0,0.0,0.0,0.0,1.0198,1.0235,1.1295,1.1843,1.1496,1.2021,1.2581,1.3026,1.3313,1.3793,1.4587,1.512,1.5797,1.6819,1.7472,1.8072,1.8698,1.8894,1.9013,1.9013,1.9013,1.9013,1.9013,1.9013,1.9013,1.9,1.8762,1.8602,1.8602,1.8829,1.9013,1.9013,1.9013,1.9013,1.9013,1.9013,1.9013,1.8987,1.8789,1.8709,1.8934,1.8749,1.8667,1.8893,1.913,1.9355,1.9552,1.9656,1.9708,0.0883,0.0954,0.1553,0.1804,0.1889,0.3007,0.343,0.3374,0.3444,0.3544,0.3599,0.3599,0.3599,0.3599,0.3599,0.3619,0.366,0.3923,0.4044,0.4101,0.4409,0.4549,0.4549,0.4549,0.4556,0.4532,0.4522,0.4522,0.4491,0.4491,0.4491,0.4491,0.4491,0.4491,0.4491,0.4491,0.4491,0.4491,0.4605,0.4688,0.4705,0.4826,0.4917,0.4948,0.5216,0.5303,0.5167,0.5943,0.6391,0.6384,0.6691,0.7106,0.7648,0.719,0.7065,0.0,0.6544,0.0,0.0,0.0,0.0,0.0,0.0,0.0,0.0,1.076,1.0805,1.1113,1.2472,1.3248,1.3079,1.3378,1.3852,1.4432,1.4522,1.478,1.5411,1.578,1.6334,1.724,1.769,1.8184,1.8761,1.8934,1.9013,1.9013,1.9013,1.9013,1.9013,1.9013,1.9013,1.9,1.8563,1.835,1.8375,1.8695,1.9013,1.9013,1.9013,1.8974,1.8867,1.8842,1.8841,1.8722,1.8296,1.8172,1.8682,1.8388,1.8267,1.8548,1.9125,1.9544,1.9537,1.9656,1.9811,0.0883,0.0968,0.154,0.1804,0.186,0.2569,0.2585,0.2181,0.2655,0.3146,0.3585,0.3599,0.3599,0.3599,0.3599,0.3719,0.3941,0.4088,0.432,0.4575,0.474,0.4818,0.4818,0.4821,0.4783,0.4664,0.4679,0.46,0.4491,0.4491,0.4491,0.4491,0.4491,0.4491,0.4491,0.0,0.0,0.0,0.4519,0.4605,0.4709,0.4879,0.5031,0.5154,0.5868,0.0,0.6382,0.7022,0.7742,0.8386,0.83,0.0,0.0,0.0,0.0,0.0,0.0,0.0,0.0,0.0,0.0,0.0,1.1226,1.1555,1.1412,1.2206,1.2643,1.2407,1.3048,1.3575,1.3858,1.4101,1.459,1.5459,1.5689,1.583,1.5971,1.6528,1.6863,1.6567,1.7434,1.8104,1.8296,1.8682,1.9012,1.9013,1.9013,1.9013,1.8974,1.8987,1.9,1.8987,1.8802,1.8802,1.8827,1.8894,1.9012,1.9013,1.9013,1.8802,1.8377,1.8255,1.8079,1.7708,1.7451,1.7407,1.7598,1.7916,1.8336,1.8494,1.9457,2.0056,1.9308,1.9499,1.9936,0.0445,0.0,0.0775,0.1065,0.0,0.1692,0.1804,0.1846,0.2768,0.3316,0.3599,0.3599,0.3671,0.3798,0.3798,0.3967,0.4261,0.4383,0.454,0.4713,0.4842,0.4918,0.4918,0.4918,0.4825,0.4694,0.4765,0.4724,0.46,0.4664,0.4702,0.4702,0.4702,0.4872,0.5244,0.5661,0.5616,0.5101,0.5263,0.5585,0.6059,0.6257,0.641,0.6599,0.0,0.0,0.0,0.0,0.0,0.0,0.0,0.0,0.0,0.0,0.0,0.889,0.8527,0.873,0.9664,1.1672,1.2638,1.22,1.268,1.2827,1.2415,1.3144,1.3553,1.3427,1.3826,1.4251,1.4591,1.4739,1.5018,1.5594,1.57,1.5859,1.6179,1.6514,1.688,1.7202,1.7724,1.8213,1.8523,1.8787,1.8987,1.9013,1.9,1.8881,1.8655,1.8827,1.8841,1.8267,1.8682,1.875,1.8307,1.8682,1.8881,1.8655,1.8562,1.8321,1.7768,1.7644,1.7612,1.7514,1.732,1.7316,1.8181,1.8498,1.8638,1.8885,1.9679,2.0149,1.9499,1.9992,2.0715,0.003,0.0059,0.0178,0.0541,0.1041,0.1284,0.1723,0.2331,0.0,0.0,0.0,0.3716,0.3857,0.4095,0.4083,0.427,0.4562,0.4676,0.4765,0.4838,0.4946,0.498,0.4999,0.498,0.4903,0.4779,0.4879,0.4862,0.4738,0.486,0.4918,0.4918,0.5009,0.5487,0.6218,0.6967,0.6988,0.6291,0.6379,0.6779,0.7472,0.7658,0.782,0.8,0.8275,0.8385,0.8296,0.9069,0.9358,0.8988,0.9528,0.9806,0.9697,0.9537,0.9533,0.9732,0.9428,0.9867,1.1225,1.2075,1.2829,1.3469,1.3823,1.3832,1.3433,1.3777,1.405,1.4198,1.4549,1.4872,1.5171,1.522,1.5328,1.5517,1.5546,1.5777,1.6226,1.6401,1.6838,1.763,1.7904,1.828,1.8722,1.8921,1.8946,1.8867,1.8789,1.8615,1.8161,1.8415,1.8562,1.7984,1.8521,1.8655,1.7984,1.8334,1.8762,1.8429,1.8307,1.7999,1.7501,1.7311,1.7388,1.752,1.7347,1.7728,1.8736,1.8948,1.8996,1.9059,1.9726,2.0173,1.9935,2.0633,2.1405,0.0092,0.0291,0.0888,0.1267,0.1581,0.2745,0.3547,0.4039,0.3331,0.3505,0.4363,0.4173,0.423,0.4439,0.4439,0.459,0.4836,0.4855,0.5035,0.0,0.5334,0.5334,0.5314,0.5334,0.5236,0.5046,0.5075,0.5011,0.4889,0.4896,0.4918,0.4997,0.5533,0.6282,0.7076,0.7354,0.7761,0.8332,0.7669,0.7378,0.7498,0.7811,0.7974,0.8047,0.8865,0.9311,0.9304,1.0009,1.0383,1.0321,1.0416,1.0465,1.0434,1.0163,1.0008,1.0032,0.9938,1.0099,1.0652,1.2162,1.3442,1.4238,1.4381,1.4249,1.3883,1.4176,1.4459,1.4602,1.4835,1.5029,1.5186,1.5298,1.557,1.604,1.6155,1.6212,1.6283,1.6684,1.6866,1.6684,1.7479,1.8079,1.824,1.8629,1.8709,1.8361,1.8161,1.7998,1.7617,1.7847,1.835,1.8655,1.8867,1.8909,1.8629,1.8814,1.8879,1.8907,1.8665,1.832,1.7767,1.7559,1.7368,1.6992,1.741,1.7739,1.7735,1.8492,1.9002,1.8898,1.9625,2.019,2.0152,2.0715,2.1342,0.06,0.1246,0.142,0.1874,0.2611,0.3638,0.4325,0.4653,0.4095,0.4076,0.4464,0.4409,0.4495,0.4703,0.4721,0.488,0.5179,0.5163,0.5248,0.5408,0.5395,0.5395,0.5395,0.5395,0.5313,0.511,0.522,0.5179,0.5038,0.5114,0.5394,0.5923,0.7044,0.7752,0.802,0.8686,0.9134,0.9377,0.8681,0.8541,0.9023,0.9167,0.9296,0.9421,0.9876,1.0104,1.0104,1.0412,1.0586,1.0586,1.0586,1.0586,1.0586,1.0466,1.037,1.037,1.0352,1.0523,1.1016,1.2488,1.3713,1.4508,1.4526,1.4507,1.4502,1.4549,1.4719,1.4946,1.5059,1.5161,1.5298,1.5352,1.5502,1.5777,1.582,1.582,1.5825,1.6036,1.6216,1.6315,1.6768,1.7232,1.7575,1.7861,1.797,1.7617,1.7368,1.7143,1.7188,1.7437,1.7713,1.8011,1.8548,1.8801,1.8602,1.8509,1.8466,1.8407,1.8081,1.7739,1.743,1.7338,1.7318,1.7364,1.7723,1.8212,1.8611,1.9241,1.9555,1.9881,1.9846,2.0214,2.0258,2.0685,2.1225,0.1073,0.1963,0.2111,0.2769,0.3804,0.4448,0.481,0.498,0.4832,0.4753,0.4709,0.4653,0.4779,0.4993,0.5012,0.5156,0.5385,0.5395,0.5395,0.5395,0.5395,0.5395,0.5395,0.5395,0.533,0.5206,0.5324,0.5396,0.5415,0.5592,0.6223,0.7237,0.8377,0.896,0.8993,0.9854,1.0228,1.0041,0.9593,0.9693,1.0326,1.0364,1.0434,1.0577,1.0586,1.0586,1.0586,1.0586,1.0586,1.0586,1.0586,1.0586,1.0586,1.0586,1.0586,1.0586,1.0586,1.0949,1.1694,1.2727,1.3728,1.4617,1.4645,1.4729,1.4995,1.4902,1.4917,1.5147,1.5191,1.5249,1.5376,1.5396,1.542,1.542,1.542,1.5439,1.542,1.5512,1.5763,1.6216,1.6411,1.674,1.7076,1.7213,1.7174,1.6978,1.6599,1.6581,1.695,1.7243,1.7482,1.7685,1.8388,1.8867,1.8456,1.8456,1.8409,1.8205,1.7882,1.7699,1.7549,1.7433,1.748,1.793,1.8234,1.8727,1.9873,2.0036,1.9966,2.0138,1.9982,1.9846,1.9852,2.0188,2.0693,0.1402,0.1852,0.3166,0.4328,0.5127,0.5262,0.5318,0.5335,0.5322,0.5335,0.5268,0.513,0.5167,0.5338,0.5355,0.5362,0.5395,0.5395,0.5395,0.5395,0.5395,0.5395,0.5395,0.5395,0.5405,0.5368,0.5388,0.5692,0.6212,0.6494,0.7335,0.8597,0.8747,0.9228,1.0034,1.024,1.0383,1.0514,1.0483,1.0503,1.0555,1.0577,1.0586,1.0586,1.0586,1.0586,1.0586,1.0586,1.0586,1.0586,1.0586,1.0586,1.0586,1.0586,1.0586,1.0586,1.0609,1.1108,1.2266,1.2688,1.3427,1.4543,1.4852,1.4995,1.5147,1.5161,1.5161,1.5205,1.5205,1.5254,1.5376,1.542,1.542,1.542,1.542,1.542,1.5468,1.5907,1.623,1.6273,1.6627,1.7132,1.7034,1.7048,1.6922,1.6542,1.6482,1.6539,1.6796,1.7617,1.8244,1.839,1.8855,1.9131,1.9106,1.9251,1.8971,1.8934,1.8863,1.8553,1.8354,1.8343,1.8388,1.842,1.8973,1.9351,1.935,1.9479,1.9835,1.9682,1.9495,1.9247,1.9198,1.9336,1.9616,0.2664,0.3535,0.3968,0.4655,0.5342,0.5395,0.5395,0.5395,0.5395,0.5395,0.5379,0.5309,0.5326,0.5395,0.5395,0.5395,0.5395,0.5395,0.5395,0.5395,0.5395,0.5395,0.5395,0.5395,0.5395,0.5412,0.5491,0.5877,0.6674,0.7681,0.8565,0.916,0.9582,1.0056,1.0466,1.0482,1.053,1.0586,1.0586,1.0586,1.0586,1.0586,1.0586,1.0586,1.0586,1.0586,1.0586,1.0586,1.0586,1.0586,1.0586,1.0586,1.0586,1.0586,1.0586,1.0624,1.0949,1.153,1.2435,1.2948,1.3683,1.4813,1.4843,1.4961,1.5274,1.5249,1.522,1.5313,1.5328,1.5347,1.5405,1.542,1.542,1.542,1.542,1.542,1.542,1.5628,1.5763,1.5781,1.5983,1.6155,1.614,1.614,1.6226,1.6312,1.6482,1.6694,1.7107,1.7945,1.8446,1.8633,1.883,1.8921,1.8947,1.8588,1.8504,1.8459,1.8177,1.7989,1.8707,1.875,1.8707,1.8835,1.9164,1.9501,1.9671,1.9402,1.9452,1.9347,1.9264,1.9098,1.9098,1.9098,1.9264,0.3606,0.4506,0.4572,0.4891,0.5395,0.5395,0.5395,0.5395,0.5395,0.5395,0.5395,0.5395,0.5395,0.5395,0.5395,0.5395,0.5395,0.5395,0.5395,0.5395,0.5395,0.5395,0.5395,0.5395,0.5408,0.5488,0.5778,0.6429,0.7421,0.8538,0.9354,0.9706,1.0244,1.0545,1.0586,1.0586,1.0586,1.0586,1.0586,1.0586,1.0586,1.0586,1.0586,1.0586,1.0586,1.0586,1.0586,1.0586,1.0586,1.0586,1.0586,1.0586,1.0586,1.0586,1.0586,1.064,1.1162,1.1818,1.2527,1.3236,1.4043,1.4911,1.4961,1.504,1.5303,1.5313,1.5313,1.5391,1.542,1.5405,1.542,1.542,1.542,1.542,1.542,1.542,1.542,1.542,1.5434,1.542,1.5497,1.542,1.5454,1.5647,1.6007,1.6383,1.6866,1.7232,1.7827,1.8434,1.8898,1.8818,1.883,1.8909,1.8842,1.8375,1.8072,1.8246,1.8155,1.8082,1.8715,1.885,1.8891,1.8975,1.9065,1.9164,1.9386,1.9287,1.9198,1.9534,1.9435,1.9098,1.9098,1.9098,1.9098,0.3873,0.4184,0.4974,0.5359,0.5395,0.5395,0.5395,0.5395,0.5395,0.5395,0.5395,0.5395,0.5395,0.5395,0.5395,0.5395,0.5395,0.5395,0.5395,0.5395,0.5395,0.5395,0.5395,0.5395,0.5471,0.5716,0.6281,0.7421,0.8995,0.9081,0.953,1.0482,1.0403,1.0428,1.0555,1.0586,1.0586,1.0586,1.0586,1.0586,1.0586,1.0586,1.0586,1.0586,1.0586,1.0586,1.0586,1.0586,1.0586,1.0586,1.0586,1.0586,1.0586,1.0586,1.0609,1.0688,1.1209,1.1895,1.2765,1.356,1.4341,1.5049,1.5245,1.5366,1.5381,1.5391,1.5391,1.542,1.542,1.542,1.542,1.542,1.542,1.542,1.542,1.542,1.542,1.542,1.542,1.542,1.542,1.5434,1.5425,1.6011,1.6379,1.6807,1.7702,1.8543,1.8663,1.9254,1.9357,1.912,1.9001,1.9146,1.95,1.8566,1.8401,1.853,1.828,1.8487,1.8847,1.9098,1.9081,1.9092,1.9098,1.9115,1.9131,1.9131,1.9131,1.9247,1.9264,1.9098,1.9098,1.9098,1.9098,0.4722,0.4921,0.5259,0.5395,0.5395,0.5395,0.5395,0.5395,0.5395,0.5395,0.5395,0.5395,0.5395,0.5395,0.5395,0.5395,0.5395,0.5395,0.5395,0.5395,0.5395,0.5395,0.5395,0.5412,0.5749,0.6281,0.6674,0.7718,0.9326,0.9802,1.019,1.0514,1.053,1.0545,1.0593,1.0586,1.0586,1.0586,1.0586,1.0586,1.0586,1.0586,1.0586,1.0586,1.0586,1.0586,1.0586,1.0586,1.0586,1.0586,1.0586,1.0586,1.0586,1.0586,1.0776,1.1178,1.1787,1.2504,1.3321,1.4034,1.4647,1.5117,1.5249,1.5318,1.5391,1.542,1.542,1.542,1.542,1.542,1.542,1.542,1.542,1.542,1.542,1.542,1.542,1.542,1.542,1.542,1.542,1.5439,1.5739,1.6132,1.6722,1.7354,1.8165,1.8821,1.9254,1.9409,1.9344,1.9331,1.891,1.8629,1.9199,1.8257,1.7653,1.7791,1.7832,1.815,1.8497,1.8973,1.9061,1.9081,1.9098,1.9098,1.9115,1.9115,1.9098,1.9098,1.9098,1.9098,1.9098,1.9098,1.9098,0.5292,0.5395,0.5395,0.5395,0.5395,0.5395,0.5395,0.5395,0.5395,0.5395,0.5395,0.5395,0.5395,0.5395,0.5395,0.5395,0.5395,0.5395,0.5395,0.5395,0.5395,0.5395,0.5442,0.5624,0.6091,0.6756,0.723,0.8269,0.9678,1.012,1.0364,1.0586,1.0586,1.0586,1.0586,1.0586,1.0586,1.0586,1.0586,1.0586,1.0586,1.0586,1.0586,1.0586,1.0586,1.0586,1.0586,1.0586,1.0586,1.0586,1.0586,1.0586,1.0609,1.0782,1.1068,1.1514,1.2351,1.31,1.3758,1.4434,1.4931,1.521,1.5264,1.5313,1.5396,1.542,1.542,1.542,1.542,1.542,1.542,1.542,1.542,1.542,1.542,1.542,1.542,1.542,1.5531,1.5748,1.5806,1.5935,1.6293,1.6852,1.7468,1.8122,1.865,1.9268,1.9605,1.9539,1.916,1.9188,1.8592,1.8118,1.8075,1.7321,1.737,1.7548,1.7601,1.789,1.8268,1.8739,1.9056,1.9077,1.9098,1.9098,1.9098,1.9098,1.9098,1.9098,1.9098,1.9098,1.9098,1.9098,1.9098,0.5395,0.5395,0.5395,0.5395,0.5395,0.5395,0.5395,0.5395,0.5395,0.5395,0.5395,0.5395,0.5395,0.5395,0.5395,0.5395,0.5412,0.5475,0.5508,0.5511,0.5541,0.5557,0.5624,0.6157,0.6646,0.7149,0.8064,0.9214,1.0434,1.0018,1.0025,1.0491,1.0586,1.0586,1.0586,1.0586,1.0586,1.0586,1.0586,1.0586,1.0586,1.0586,1.0586,1.0586,1.0586,1.0586,1.0586,1.0586,1.0586,1.0586,1.0586,1.0586,1.0728,1.113,1.1506,1.181,1.2788,1.3593,1.4043,1.4627,1.5079,1.5318,1.5381,1.5391,1.5396,1.542,1.542,1.542,1.542,1.542,1.542,1.542,1.542,1.542,1.542,1.542,1.5434,1.5434,1.5671,1.6208,1.6365,1.6782,1.7454,1.7977,1.8436,1.8688,1.9215,1.967,1.9747,1.9656,1.924,1.8578,1.8188,1.7982,1.719,1.6491,1.7055,1.7502,1.7542,1.7709,1.8133,1.8574,1.8916,1.9025,1.9098,1.9098,1.9098,1.9098,1.9098,1.9098,1.9098,1.9098,1.9098,1.9098,1.9098,0.5395,0.5395,0.5395,0.5395,0.5395,0.5395,0.5395,0.5395,0.5395,0.5395,0.5395,0.5395,0.5395,0.5395,0.5395,0.5412,0.5442,0.5848,0.6075,0.6174,0.6552,0.6736,0.6781,0.699,0.754,0.8393,0.9438,1.0136,1.046,1.0364,1.0396,1.0555,1.0586,1.0586,1.0586,1.0586,1.0586,1.0586,1.0586,1.0586,1.0586,1.0586,1.0586,1.0586,1.0586,1.0586,1.0586,1.0586,1.0586,1.0586,1.0586,1.0776,1.1178,1.1397,1.1926,1.2788,1.3215,1.3887,1.4606,1.4882,1.5123,1.5332,1.542,1.542,1.542,1.542,1.542,1.542,1.542,1.542,1.542,1.542,1.542,1.542,1.542,1.5488,1.56,1.5687,1.5832,1.6066,1.6446,1.6835,1.7296,1.8056,1.8781,1.8963,1.9448,1.9798,1.976,1.9539,1.9225,1.8749,1.8361,1.7886,1.7193,1.6726,1.6938,1.7208,1.7237,1.7404,1.7859,1.8387,1.8719,1.8994,1.9067,1.9098,1.9098,1.9098,1.9098,1.9098,1.9098,1.9098,1.9098,1.9098,1.9098,0.5395,0.5395,0.5395,0.5395,0.5395,0.5395,0.5395,0.5395,0.5395,0.5395,0.5395,0.5395,0.5395,0.5462,0.567,0.5765,0.5868,0.6728,0.7165,0.7149,0.7256,0.7386,0.7484,0.7848,0.8517,0.9438,1.0247,1.0586,1.0586,1.0586,1.0586,1.0586,1.0586,1.0586,1.0586,1.0586,1.0586,1.0586,1.0586,1.0586,1.0586,1.0586,1.0586,1.0586,1.0586,1.0586,1.0586,1.0586,1.0586,1.0586,1.0586,1.0879,1.1436,1.1748,1.2366,1.3275,1.3827,1.4285,1.4911,1.5015,1.5176,1.5347,1.542,1.542,1.542,1.542,1.542,1.542,1.542,1.542,1.542,1.542,1.542,1.542,1.5478,1.56,1.5745,1.5856,1.6224,1.6574,1.7017,1.7424,1.8081,1.8526,1.9136,1.9344,1.9591,1.9811,1.9734,1.9527,1.9291,1.9054,1.8735,1.8131,1.7379,1.7073,1.693,1.6909,1.6848,1.7099,1.744,1.8112,1.8594,1.8942,1.9098,1.9098,1.9098,1.9098,1.9098,1.9098,1.9098,1.9098,1.9098,1.9098,1.9098,0.5395,0.5395,0.5395,0.5395,0.5395,0.5395,0.5395,0.5395,0.5395,0.5395,0.5395,0.5395,0.5395,0.5541,0.6013,0.6301,0.6625,0.7707,0.8291,0.8194,0.7956,0.7728,0.7896,0.8672,0.9438,1.0126,1.046,1.0586,1.0586,1.0586,1.0586,1.0586,1.0586,1.0586,1.0586,1.0586,1.0586,1.0586,1.0586,1.0586,1.0586,1.0586,1.0586,1.0586,1.0586,1.0586,1.0586,1.0586,1.0586,1.0586,1.0665,1.1021,1.1577,1.2197,1.2887,1.3616,1.4276,1.4656,1.497,1.5112,1.5249,1.5381,1.542,1.542,1.542,1.542,1.542,1.542,1.542,1.542,1.542,1.542,1.5434,1.5464,1.5604,1.5784,1.5933,1.599,1.6471,1.7451,1.7934,1.8311,1.9253,1.9553,1.9695,1.9746,1.976,1.9785,1.9798,1.9643,1.95,1.9212,1.8841,1.8161,1.7354,1.6913,1.6782,1.6697,1.6663,1.6851,1.7208,1.789,1.8553,1.8891,1.9098,1.9098,1.9098,1.9098,1.9098,1.9098,1.9098,1.9098,1.9098,1.9098,1.9098,0.5395,0.5395,0.5395,0.5395,0.5395,0.5395,0.5395,0.5395,0.5395,0.5395,0.5412,0.5395,0.5445,0.5491,0.6124,0.6412,0.6838,0.7913,0.8581,0.8694,0.892,0.9038,0.9231,0.9674,1.0056,1.0317,1.0507,1.0586,1.0586,1.0586,1.0586,1.0586,1.0586,1.0586,1.0586,1.0586,1.0586,1.0586,1.0586,1.0586,1.0586,1.0586,1.0586,1.0586,1.0586,1.0586,1.0586,1.0586,1.0586,1.0618,1.1059,1.1561,1.2212,1.2841,1.348,1.41,1.4488,1.4799,1.497,1.5127,1.5264,1.5391,1.542,1.542,1.542,1.542,1.542,1.542,1.542,1.542,1.542,1.542,1.5507,1.573,1.5832,1.6091,1.6453,1.6492,1.6737,1.7793,1.8038,1.8523,1.9095,1.9591,1.9798,1.9811,1.9811,1.9811,1.9811,1.9785,1.963,1.9081,1.8615,1.7984,1.7379,1.6881,1.6591,1.6512,1.6533,1.667,1.7166,1.7817,1.846,1.8984,1.9077,1.9098,1.9098,1.9098,1.9098,1.9181,1.9214,1.9247,1.9148,1.9098,1.9098,0.5395,0.5395,0.5395,0.5395,0.5395,0.5395,0.5395,0.5395,0.5395,0.5395,0.5445,0.5699,0.5802,0.593,0.6838,0.7312,0.754,0.8522,0.9107,0.931,0.9648,0.9814,0.9926,1.018,1.0355,1.0434,1.0545,1.0586,1.0586,1.0586,1.0586,1.0586,1.0586,1.0586,1.0586,1.0586,1.0586,1.0586,1.0586,1.0586,1.0586,1.0586,1.0586,1.0586,1.0586,1.0586,1.0602,1.0839,1.098,1.1052,1.135,1.1911,1.2826,1.3267,1.3821,1.4431,1.4695,1.4897,1.5,1.5167,1.5318,1.5391,1.542,1.542,1.542,1.542,1.542,1.542,1.542,1.542,1.542,1.5464,1.559,1.5788,1.6134,1.6438,1.6754,1.674,1.7165,1.7859,1.8348,1.8697,1.9252,1.9605,1.9747,1.9811,1.9811,1.9811,1.9798,1.9785,1.9708,1.9253,1.8867,1.8388,1.7875,1.7363,1.6811,1.6648,1.6444,1.657,1.7135,1.7755,1.8309,1.8802,1.8984,1.9098,1.9115,1.9181,1.9363,1.9413,1.9413,1.9396,1.933,1.9386,1.9353,0.5395,0.5395,0.5395,0.5395,0.5395,0.5395,0.5395,0.5395,0.5395,0.5458,0.5653,0.6157,0.6367,0.6576,0.7691,0.8501,0.8651,0.929,0.9712,0.9935,1.0142,1.0222,1.0069,1.0276,1.045,1.0561,1.0586,1.0586,1.0586,1.0586,1.0586,1.0586,1.0586,1.0586,1.0586,1.0586,1.0586,1.0586,1.0586,1.0586,1.0586,1.0586,1.0586,1.0586,1.0586,1.0681,1.0854,1.1178,1.153,1.1725,1.1709,1.239,1.3381,1.3511,1.3896,1.4437,1.4793,1.4995,1.5044,1.5245,1.5396,1.542,1.542,1.542,1.542,1.542,1.542,1.542,1.542,1.542,1.542,1.5536,1.5658,1.5803,1.64,1.6623,1.668,1.6958,1.7534,1.8161,1.8762,1.9186,1.9592,1.9811,1.9811,1.9811,1.9811,1.9811,1.9811,1.9798,1.9798,1.9682,1.933,1.8974,1.8456,1.7916,1.7324,1.6884,1.6534,1.6585,1.7135,1.7714,1.8195,1.8594,1.8864,1.9046,1.9125,1.9264,1.9561,1.9781,1.9879,1.9748,1.9633,1.9819,1.9884,0.5395,0.5395,0.5395,0.5395,0.5395,0.5395,0.5395,0.5395,0.5412,0.5699,0.6124,0.6367,0.6728,0.7256,0.8129,0.8565,0.8855,0.9504,0.9862,1.0031,1.038,1.0403,1.0308,1.045,1.0545,1.0586,1.0586,1.0586,1.0586,1.0586,1.0586,1.0586,1.0586,1.0586,1.0586,1.0586,1.0586,1.0586,1.0586,1.0586,1.0586,1.0586,1.0586,1.0586,1.0618,1.0863,1.124,1.1436,1.2004,1.2773,1.3063,1.3199,1.3556,1.3995,1.4333,1.4577,1.4862,1.5053,1.5171,1.5289,1.542,1.542,1.542,1.542,1.542,1.542,1.542,1.542,1.542,1.542,1.542,1.5425,1.5619,1.5865,1.6138,1.6503,1.6972,1.7531,1.823,1.8977,1.9147,1.9211,1.9721,1.9798,1.9811,1.9811,1.9811,1.9811,1.9811,1.9811,1.9811,1.9798,1.9396,1.904,1.8935,1.8336,1.7655,1.7129,1.6754,1.6472,1.702,1.7471,1.789,1.8361,1.8833,1.8975,1.9107,1.9584,1.9928,2.0139,2.0366,2.0366,2.0371,2.0452,2.0376,0.5395,0.5395,0.5395,0.5395,0.5395,0.5395,0.5395,0.5475,0.5749,0.6058,0.6511,0.7034,0.7572,0.7972,0.8737,0.9193,0.9412,0.9897,1.0212,1.0323,1.0507,1.053,1.0482,1.0545,1.0586,1.0586,1.0586,1.0586,1.0586,1.0586,1.0586,1.0586,1.0586,1.0586,1.0586,1.0586,1.0586,1.0586,1.0586,1.0586,1.0586,1.0586,1.0586,1.0681,1.0854,1.1193,1.1452,1.2174,1.2765,1.3381,1.3776,1.395,1.398,1.4297,1.4521,1.463,1.4867,1.5009,1.5117,1.5274,1.542,1.542,1.542,1.542,1.542,1.542,1.542,1.542,1.542,1.542,1.542,1.5507,1.5691,1.6075,1.6499,1.7028,1.7644,1.8011,1.8415,1.9187,1.937,1.9513,1.9721,1.9785,1.9811,1.9811,1.9811,1.9811,1.9811,1.9811,1.9811,1.9695,1.9291,1.908,1.9173,1.8737,1.7943,1.7421,1.7,1.6683,1.6726,1.7123,1.7502,1.7973,1.8429,1.8949,1.9185,1.9706,2.0257,2.0597,2.0837,2.1012,2.106,2.0949,2.0885,0.5475,0.5412,0.5508,0.5495,0.5395,0.5395,0.5395,0.5491,0.6108,0.6449,0.6777,0.7967,0.8404,0.885,0.9408,0.9862,1.0085,1.0333,1.0514,1.0545,1.0555,1.0577,1.0577,1.0593,1.0586,1.0586,1.0586,1.0586,1.0586,1.0586,1.0586,1.0586,1.0586,1.0586,1.0586,1.0586,1.0586,1.0586,1.0586,1.0586,1.0586,1.0602,1.0618,1.0895,1.1178,1.1654,1.2081,1.2803,1.3511,1.3662,1.4198,1.4441,1.45,1.4521,1.4551,1.461,1.4897,1.5059,1.5152,1.5289,1.542,1.542,1.542,1.542,1.542,1.542,1.542,1.542,1.542,1.542,1.542,1.5493,1.5855,1.6336,1.7112,1.7806,1.8336,1.835,1.863,1.9082,1.9501,1.9708,1.976,1.9811,1.9811,1.9811,1.9811,1.9811,1.9811,1.9811,1.9811,1.9798,1.9474,1.9119,1.9147,1.9107,1.8321,1.782,1.7352,1.7074,1.6875,1.7463,1.7894,1.7625,1.7999,1.8564,1.9236,1.9818,2.0376,2.0941,2.1487,2.1831,2.1737,2.1455,2.1455,0.5897,0.5462,0.6009,0.5914,0.5442,0.5395,0.5412,0.5511,0.6174,0.6728,0.7333,0.8118,0.8952,0.9446,0.967,0.9974,1.0244,1.0491,1.0586,1.0586,1.0586,1.0586,1.0586,1.0586,1.0586,1.0586,1.0586,1.0586,1.0586,1.0586,1.0586,1.0586,1.0586,1.0586,1.0586,1.0586,1.0586,1.0586,1.0586,1.0586,1.0586,1.0681,1.0933,1.1296,1.1623,1.2128,1.291,1.3344,1.3761,1.4258,1.4431,1.4485,1.453,1.4591,1.4725,1.4867,1.5015,1.5161,1.5259,1.5337,1.5396,1.542,1.542,1.542,1.542,1.542,1.542,1.542,1.542,1.542,1.542,1.5464,1.5855,1.6375,1.6874,1.7531,1.8431,1.8829,1.9001,1.9448,1.9682,1.9811,1.9811,1.9811,1.9811,1.9811,1.9811,1.9811,1.9811,1.9811,1.9811,1.9785,1.9734,1.9383,1.9119,1.9067,1.8735,1.8307,1.7888,1.763,1.7659,1.8208,1.8398,1.805,1.7998,1.8419,1.9096,1.9814,2.0661,2.1357,2.203,2.2634,2.246,2.2218,2.243,0.6519,0.5963,0.6268,0.6025,0.5478,0.5412,0.5607,0.5992,0.6629,0.73,0.8004,0.8705,0.9296,0.9724,0.9878,1.0117,1.0403,1.0539,1.0586,1.0586,1.0586,1.0586,1.0586,1.0586,1.0586,1.0586,1.0586,1.0586,1.0586,1.0586,1.0586,1.0586,1.0586,1.0586,1.0586,1.0586,1.0586,1.0586,1.0586,1.0586,1.0649,1.087,1.1389,1.1895,1.2343,1.2864,1.3321,1.392,1.4154,1.4426,1.4485,1.45,1.4575,1.4704,1.4834,1.4902,1.5049,1.5181,1.5289,1.5347,1.542,1.542,1.542,1.542,1.542,1.542,1.542,1.542,1.542,1.542,1.542,1.5434,1.5907,1.6662,1.6989,1.7658,1.859,1.904,1.9382,1.9669,1.9746,1.9785,1.9811,1.9811,1.9811,1.9811,1.9811,1.9811,1.9811,1.9811,1.9811,1.9798,1.9785,1.9643,1.9357,1.9304,1.9173,1.8777,1.8496,1.8228,1.8132,1.8555,1.8605,1.8379,1.8445,1.8611,1.892,1.9625,2.0691,2.1647,2.19,2.2232,2.2805,2.308,2.3095,0.7218,0.6613,0.6761,0.6416,0.5851,0.5822,0.6112,0.6662,0.7337,0.7951,0.8571,0.9231,0.966,0.99,1.0085,1.0301,1.0586,1.0586,1.0586,1.0586,1.0586,1.0586,1.0586,1.0586,1.0586,1.0586,1.0586,1.0586,1.0586,1.0586,1.0586,1.0586,1.0586,1.0586,1.0586,1.0586,1.0586,1.0586,1.0586,1.0609,1.0886,1.1374,1.2019,1.2642,1.3215,1.3511,1.3806,1.4169,1.4396,1.4485,1.45,1.453,1.4595,1.4832,1.4926,1.4863,1.5054,1.5167,1.5254,1.5332,1.542,1.542,1.542,1.542,1.542,1.542,1.542,1.542,1.542,1.542,1.5425,1.5526,1.6126,1.6891,1.7368,1.7822,1.8749,1.9263,1.9395,1.9604,1.9695,1.9785,1.9836,1.9811,1.9811,1.9811,1.9811,1.9811,1.9811,1.9811,1.9811,1.9811,1.9798,1.9798,1.9695,1.9656,1.9514,1.9253,1.9069,1.8898,1.8743,1.8736,1.8749,1.8844,1.8965,1.9122,1.9268,1.9564,2.0588,2.1309,2.1487,2.1886,2.2511,2.2957,2.3095,0.7956,0.7349,0.7967,0.7837,0.7158,0.708,0.7178,0.737,0.8032,0.8463,0.8791,0.9418,0.9926,1.018,1.0419,1.0539,1.0586,1.0586,1.0586,1.0586,1.0586,1.0586,1.0586,1.0586,1.0586,1.0586,1.0586,1.0586,1.0586,1.0586,1.0586,1.0586,1.0586,1.0586,1.0586,1.0586,1.0586,1.0586,1.0602,1.0895,1.1467,1.2074,1.2696,1.3221,1.3532,1.3806,1.4198,1.4431,1.4485,1.45,1.45,1.4565,1.4671,1.4867,1.5044,1.5161,1.5284,1.5376,1.5362,1.5381,1.542,1.542,1.542,1.542,1.542,1.542,1.542,1.542,1.542,1.542,1.5497,1.5878,1.6472,1.7104,1.7697,1.828,1.9052,1.9328,1.946,1.9651,1.9794,1.9859,1.9898,1.9849,1.9811,1.9811,1.9824,1.9874,1.9987,2.0113,2.0163,2.0251,2.0238,2.0226,2.0062,2.0025,1.9847,1.9653,1.9526,1.9448,1.9287,1.9157,1.9369,1.9479,1.9563,1.9722,1.9956,2.031,2.0769,2.1062,2.1327,2.1766,2.2289,2.2659,2.297,0.8657,0.8053,0.8371,0.8069,0.7419,0.7386,0.7647,0.8053,0.8436,0.8893,0.9322,0.9696,1.0047,1.0323,1.0523,1.0586,1.0586,1.0586,1.0586,1.0586,1.0586,1.0586,1.0586,1.0586,1.0586,1.0586,1.0586,1.0586,1.0586,1.0586,1.0586,1.0586,1.0586,1.0586,1.0586,1.0586,1.0586,1.0681,1.098,1.1639,1.2436,1.2956,1.3381,1.4001,1.404,1.4237,1.4411,1.45,1.45,1.45,1.45,1.458,1.4725,1.4887,1.5068,1.5176,1.5318,1.5396,1.5405,1.542,1.542,1.542,1.542,1.542,1.542,1.5454,1.5454,1.542,1.542,1.5439,1.557,1.594,1.6528,1.7174,1.7916,1.8494,1.9039,1.925,1.9459,1.9675,1.9905,1.9996,2.0061,1.9999,2.0113,2.0352,2.0414,2.0502,2.0691,2.0929,2.0942,2.0917,2.0854,2.0778,2.0566,2.0402,2.015,1.9958,1.9745,1.968,1.9667,1.9658,1.9756,1.9989,2.0203,2.0379,2.0596,2.0373,2.0219,2.0665,2.1218,2.1583,2.1933,2.2332,2.2659,0.9199,0.8753,0.8737,0.8414,0.7928,0.7928,0.8236,0.8721,0.8925,0.9322,0.9776,1.0069,1.026,1.0387,1.0545,1.0586,1.0586,1.0586,1.0586,1.0586,1.0586,1.0586,1.0586,1.0586,1.0586,1.0586,1.0586,1.0586,1.0586,1.0586,1.0586,1.0586,1.0586,1.0586,1.0586,1.0618,1.0665,1.0973,1.1701,1.2497,1.3268,1.3625,1.3995,1.4327,1.4485,1.45,1.45,1.45,1.45,1.45,1.45,1.458,1.4784,1.4941,1.5103,1.5225,1.5352,1.5396,1.542,1.542,1.542,1.5439,1.5599,1.5719,1.5719,1.569,1.5864,1.6007,1.5993,1.5964,1.5983,1.6443,1.7006,1.7575,1.8079,1.8602,1.9064,1.9276,1.946,1.9626,1.9893,2.0284,2.0287,2.0188,2.0364,2.0793,2.0993,2.113,2.1305,2.1545,2.1455,2.1343,2.1294,2.1206,2.1055,2.0817,2.054,2.0326,2.0125,2.0011,2.0047,1.9922,1.9842,2.0184,2.0516,2.0412,2.0227,1.9867,1.9611,2.0188,2.0728,2.1143,2.1518,2.1945,2.242,0.9468,0.9436,0.9414,0.935,0.9285,0.935,0.9334,0.9382,0.959,0.9776,1.0053,1.0339,1.0514,1.0561,1.0577,1.0586,1.0586,1.0586,1.0586,1.0586,1.0586,1.0586,1.0586,1.0586,1.0586,1.0586,1.0586,1.0586,1.0586,1.0586,1.0586,1.0586,1.0586,1.0586,1.0634,1.0713,1.1115,1.1654,1.2558,1.3154,1.3677,1.4025,1.4396,1.4441,1.45,1.45,1.45,1.45,1.45,1.45,1.45,1.4654,1.4882,1.497,1.5117,1.5303,1.5366,1.542,1.542,1.542,1.542,1.557,1.5753,1.6026,1.6097,1.6698,1.6964,1.6838,1.6736,1.6849,1.709,1.7559,1.7713,1.797,1.8348,1.8841,1.9196,1.9316,1.9486,1.959,1.9893,2.0349,2.0652,2.0577,2.0917,2.1344,2.167,2.182,2.1732,2.187,2.1757,2.1656,2.1619,2.1568,2.152,2.1331,2.1193,2.098,2.0753,2.0615,2.0552,2.0351,2.0088,1.9911,2.01,1.9987,1.9936,1.9868,1.9853,1.9946,2.0251,2.0678,2.1168,2.1644,2.2196,0.9494,0.9494,0.9494,0.9494,0.9494,0.9494,0.9564,0.9708,0.9862,1.0117,1.0355,1.0523,1.0586,1.0586,1.0586,1.0586,1.0586,1.0586,1.0586,1.0586,1.0586,1.0586,1.0586,1.0586,1.0586,1.0586,1.0586,1.0586,1.0586,1.0586,1.0586,1.0586,1.0618,1.0586,1.0649,1.1083,1.1748,1.2543,1.3215,1.3631,1.413,1.4297,1.45,1.45,1.45,1.45,1.45,1.45,1.45,1.45,1.45,1.4699,1.4941,1.4995,1.5137,1.5352,1.5405,1.542,1.542,1.542,1.542,1.5425,1.5633,1.5954,1.6372,1.6613,1.6894,1.7006,1.7282,1.7379,1.7299,1.7699,1.8066,1.8294,1.8629,1.9105,1.9341,1.9433,1.9552,1.9668,2.0071,2.0526,2.0792,2.0993,2.1444,2.1907,2.2219,2.2445,2.2332,2.2282,2.2219,2.2194,2.2196,2.2081,2.2046,2.1958,2.1857,2.1645,2.1382,2.1194,2.1018,2.0666,2.0415,2.01,1.9824,1.9836,1.9924,2.0025,2.0037,1.9949,2.0025,2.0238,2.0766,2.1331,2.1807,0.9532,0.958,0.959,0.9596,0.9596,0.958,0.9686,0.9862,1.0037,1.0253,1.0586,1.0586,1.0586,1.0586,1.0586,1.0586,1.0586,1.0586,1.0586,1.0586,1.0586,1.0586,1.0586,1.0586,1.0586,1.0586,1.0586,1.0586,1.0586,1.0586,1.0744,1.0807,1.0719,1.0697,1.1083,1.1732,1.2566,1.3275,1.3776,1.3965,1.4461,1.4485,1.45,1.45,1.45,1.45,1.45,1.45,1.45,1.45,1.453,1.4684,1.4877,1.5053,1.5152,1.5303,1.542,1.5425,1.5434,1.542,1.5497,1.5719,1.6011,1.6358,1.6655,1.6964,1.763,1.7768,1.7806,1.7699,1.7699,1.8226,1.8456,1.8642,1.8934,1.9328,1.942,1.9512,1.963,1.9772,2.0137,2.0376,2.0804,2.1069,2.1532,2.2031,2.2518,2.2744,2.2809,2.2797,2.2847,2.2832,2.2857,2.2732,2.2594,2.2508,2.2408,2.2307,2.2033,2.1681,2.143,2.108,2.0717,2.039,2.0113,1.9899,1.9861,1.9937,1.9899,1.9836,1.9937,2.0062,2.0528,2.1069,2.1306,0.9612,0.9788,0.9788,0.9788,0.9772,0.9788,0.9862,1.0021,1.018,1.0364,1.0539,1.0561,1.0577,1.0577,1.057,1.0586,1.0618,1.0649,1.0656,1.0624,1.0879,1.0728,1.0634,1.0649,1.0713,1.0602,1.0697,1.076,1.0681,1.0911,1.1115,1.1318,1.1287,1.117,1.1608,1.2758,1.3396,1.3601,1.4154,1.4387,1.4485,1.45,1.45,1.45,1.45,1.45,1.45,1.45,1.45,1.45,1.45,1.4669,1.4941,1.5009,1.5137,1.5366,1.5459,1.5497,1.5497,1.5468,1.5806,1.6255,1.6585,1.709,1.7861,1.8361,1.8562,1.8456,1.8682,1.8776,1.8881,1.8894,1.8867,1.896,1.9224,1.9407,1.9499,1.9604,1.9734,1.9785,1.9836,2.0024,2.0603,2.1093,2.1543,2.2081,2.2706,2.2995,2.3045,2.3095,2.3095,2.3095,2.3095,2.302,2.2869,2.2982,2.2945,2.2857,2.2631,2.2245,2.1857,2.1482,2.1106,2.0704,2.0377,2.01,1.9937,1.9824,1.9811,1.9811,1.9811,1.9974,2.0415,2.0691,2.0829,0.9548,0.9596,0.9596,0.9682,0.9798,0.9894,1.0037,1.019,1.026,1.0276,1.0238,1.0333,1.0403,1.0434,1.0561,1.0602,1.0681,1.1083,1.1106,1.0751,1.1358,1.1155,1.1005,1.1021,1.1005,1.0816,1.0917,1.1193,1.1225,1.1476,1.1841,1.2089,1.2197,1.2366,1.2305,1.2811,1.3139,1.401,1.4396,1.45,1.45,1.45,1.45,1.45,1.45,1.45,1.45,1.45,1.45,1.45,1.4515,1.4669,1.4926,1.5009,1.5123,1.5497,1.5753,1.6472,1.6698,1.6852,1.6684,1.6954,1.7132,1.7534,1.8052,1.8228,1.8563,1.8907,1.9,1.9013,1.8987,1.8974,1.8974,1.9092,1.9302,1.9433,1.9564,1.9695,1.9798,1.9798,1.9836,1.9836,2.0201,2.0615,2.1093,2.152,2.2031,2.2706,2.292,2.3045,2.3095,2.3095,2.3095,2.3095,2.3095,2.3095,2.302,2.2857,2.2807,2.2681,2.2295,2.1796,2.1345,2.0842,2.0566,2.0302,2.0025,1.9811,1.9811,1.9811,1.9811,1.9811,2.0062,2.0163,2.0138,0.9548,0.959,0.9612,0.9724,0.9862,0.991,1.0158,1.0618,1.08,1.0856,1.0888,1.0832,1.0753,1.0737,1.0634,1.0807,1.0933,1.1264,1.1694,1.1327,1.2027,1.1903,1.1655,1.16,1.1671,1.1445,1.1569,1.1849,1.1849,1.2274,1.242,1.2588,1.3176,1.307,1.3024,1.3245,1.367,1.4342,1.45,1.45,1.45,1.45,1.45,1.45,1.45,1.45,1.45,1.45,1.45,1.453,1.4595,1.4714,1.4921,1.5073,1.5167,1.5555,1.6069,1.6894,1.7465,1.7644,1.7562,1.7888,1.7658,1.782,1.8253,1.8509,1.8682,1.8907,1.8987,1.9013,1.9013,1.9013,1.9065,1.9183,1.9315,1.9447,1.9591,1.9734,1.9811,1.9811,1.9811,1.9811,1.9836,2.0113,2.0515,2.0904,2.1306,2.2008,2.2696,2.2859,2.2932,2.2945,2.2982,2.3007,2.3032,2.3095,2.2995,2.2844,2.2782,2.2719,2.237,2.1807,2.1394,2.1019,2.0691,2.0365,1.9987,1.9811,1.9811,1.9811,1.9811,1.9811,1.9811,1.9811,1.9811,0.9612,0.9788,0.9804,0.9868,0.9967,1.0005,1.0491,1.1334,1.1779,1.2097,1.2335,1.1663,1.1483,1.1405,1.098,1.1068,1.153,1.1663,1.1934,1.2351,1.2711,1.2512,1.2435,1.242,1.2328,1.2397,1.2497,1.252,1.2551,1.2856,1.2856,1.2856,1.345,1.3556,1.3715,1.3935,1.4267,1.4455,1.45,1.45,1.45,1.45,1.45,1.45,1.45,1.4515,1.453,1.4536,1.4551,1.4595,1.4675,1.4838,1.4985,1.5132,1.5269,1.5613,1.6155,1.7034,1.7957,1.812,1.8321,1.8535,1.8373,1.8562,1.8709,1.8841,1.8894,1.8947,1.9013,1.9013,1.9013,1.9039,1.9065,1.9184,1.9316,1.946,1.9604,1.9708,1.9785,1.9811,1.9811,1.9811,1.9811,2.0,2.0188,2.0453,2.0867,2.1307,2.1945,2.2495,2.2583,2.2646,2.2721,2.2872,2.2884,2.2721,2.2583,2.2309,2.2495,2.2458,2.2121,2.1782,2.1407,2.1031,2.0768,2.0415,1.9974,1.9811,1.9811,1.9811,1.9811,1.9811,1.9811,1.9811,1.9811,0.9548,0.9596,0.9596,0.9708,0.9989,1.0839,1.142,1.1677,1.2066,1.2228,1.212,1.2104,1.2089,1.2058,1.1996,1.205,1.232,1.2581,1.2596,1.2902,1.339,1.313,1.2993,1.2963,1.2872,1.2848,1.294,1.3215,1.3321,1.3556,1.3836,1.4034,1.4004,1.4124,1.4222,1.4402,1.447,1.45,1.45,1.45,1.45,1.45,1.45,1.45,1.45,1.4521,1.4616,1.4636,1.469,1.4867,1.4897,1.5,1.5127,1.523,1.5444,1.6585,1.6992,1.7451,1.8469,1.8735,1.8814,1.8934,1.8801,1.8841,1.896,1.9013,1.9013,1.9013,1.9013,1.9013,1.9013,1.9039,1.9131,1.9276,1.9381,1.9486,1.9617,1.9746,1.9811,1.9811,1.9811,1.9811,1.9811,1.9836,2.0012,2.0175,2.0427,2.0805,2.127,2.1832,2.2169,2.2245,2.2232,2.232,2.2106,2.1931,2.1857,2.1809,2.2008,2.2058,2.1669,2.1368,2.1256,2.0981,2.0553,2.0214,1.9887,1.9811,1.9811,1.9811,1.9811,1.9811,1.9811,1.9811,1.9811,0.9494,0.9494,0.9494,0.9862,1.0589,1.1554,1.2212,1.2628,1.2872,1.294,1.2955,1.2864,1.2765,1.2749,1.2588,1.2604,1.2933,1.3184,1.3351,1.3731,1.4094,1.389,1.3685,1.3601,1.3655,1.3556,1.3601,1.3905,1.398,1.4184,1.4455,1.4411,1.45,1.45,1.4485,1.447,1.4485,1.45,1.45,1.45,1.45,1.45,1.45,1.45,1.45,1.4586,1.4701,1.473,1.4937,1.5284,1.5386,1.5609,1.5836,1.6028,1.6379,1.7368,1.7562,1.8038,1.8762,1.896,1.8987,1.9013,1.9013,1.9,1.8987,1.9013,1.9013,1.9013,1.9013,1.9013,1.9013,1.904,1.921,1.9368,1.946,1.9526,1.9643,1.9773,1.9811,1.9811,1.9811,1.9811,1.9811,1.9811,1.9836,1.9949,2.0037,2.0213,2.0703,2.1281,2.1619,2.1782,2.1707,2.1669,2.1443,2.1305,2.1306,2.1369,2.1583,2.1532,2.1167,2.1129,2.1155,2.0766,2.0238,1.9987,1.9824,1.9811,1.9811,1.9811,1.9811,1.9824,1.9811,1.9811,1.9811,0.9516,0.9542,0.9606,1.0487,1.1625,1.2243,1.3017,1.3965,1.3965,1.4169,1.4252,1.3821,1.3563,1.3465,1.3184,1.3221,1.3472,1.3707,1.3956,1.4431,1.4387,1.4297,1.4312,1.4455,1.4222,1.4381,1.4441,1.4297,1.4417,1.4521,1.4536,1.45,1.4575,1.4565,1.4515,1.4595,1.4595,1.4515,1.456,1.4604,1.4515,1.45,1.45,1.4521,1.4541,1.4616,1.4745,1.4913,1.5147,1.5715,1.6161,1.646,1.6719,1.6947,1.741,1.7768,1.7929,1.8361,1.8789,1.9,1.9013,1.9013,1.9013,1.9013,1.9013,1.9013,1.9013,1.9013,1.9013,1.9052,1.9052,1.9092,1.9224,1.9381,1.9499,1.9591,1.9721,1.9798,1.9811,1.9811,1.9811,1.9811,1.9811,1.9811,1.9811,1.9836,1.9861,1.9911,2.0189,2.0781,2.1049,2.1261,2.1041,2.0953,2.0978,2.0865,2.0866,2.0981,2.1106,2.0917,2.0476,2.0702,2.1118,2.063,2.0129,1.9976,1.9863,1.9927,1.9952,1.9811,1.9811,1.9837,1.985,1.9952,1.985,0.9718,0.982,1.0548,1.1647,1.2819,1.31,1.364,1.4357,1.4387,1.4417,1.4455,1.4327,1.4228,1.4109,1.3965,1.4025,1.4124,1.4124,1.4318,1.4483,1.4546,1.4592,1.4528,1.4583,1.4528,1.45,1.45,1.453,1.4536,1.4586,1.4616,1.4551,1.4669,1.4758,1.4589,1.4699,1.4758,1.4595,1.4714,1.4699,1.456,1.4521,1.4512,1.4606,1.4666,1.4813,1.5054,1.5493,1.5801,1.6222,1.6708,1.6975,1.7132,1.7202,1.752,1.7957,1.8174,1.8509,1.8814,1.9013,1.9013,1.9013,1.9013,1.9013,1.9013,1.9013,1.9013,1.9013,1.9039,1.909,1.913,1.917,1.9237,1.9395,1.9539,1.9656,1.976,1.9785,1.9798,1.9811,1.9811,1.9811,1.9811,1.9811,1.9811,1.9811,1.9811,1.9862,1.9939,2.0306,2.0526,2.0639,2.0277,2.0188,2.0326,2.0426,2.0427,2.0379,2.0443,2.0152,1.99,2.0385,2.0873,2.0474,2.008,2.0156,2.0258,2.0296,2.0258,2.0118,2.008,2.022,2.0333,2.0446,2.0169,0.9804,0.9926,1.0863,1.188,1.2819,1.3306,1.3866,1.4417,1.45,1.45,1.45,1.45,1.45,1.45,1.45,1.4519,1.4519,1.4485,1.4617,1.4705,1.4772,1.4799,1.4781,1.4769,1.4676,1.4654,1.4703,1.4729,1.4645,1.4749,1.4793,1.4743,1.4911,1.4911,1.4738,1.4891,1.4911,1.4743,1.4956,1.4926,1.4758,1.4734,1.4749,1.4828,1.4872,1.5015,1.5167,1.5575,1.5874,1.6454,1.709,1.7754,1.7984,1.8106,1.8226,1.8415,1.8563,1.8655,1.8907,1.9013,1.9013,1.9039,1.9013,1.9027,1.9117,1.9117,1.9052,1.9052,1.9117,1.9157,1.9183,1.9236,1.9368,1.9512,1.9578,1.9643,1.9746,1.9798,1.9811,1.9811,1.9811,1.9811,1.9811,1.9811,1.9824,1.9901,1.9888,2.0156,2.0182,2.0219,2.032,2.0321,2.0169,1.9914,1.9987,2.0024,1.9987,1.9913,2.0042,2.0321,2.0547,2.0559,2.0597,2.0585,2.0635,2.0758,2.0833,2.082,2.0845,2.0795,2.0733,2.0696,2.082,2.0956,2.082,1.0005,1.0269,1.1202,1.1988,1.2642,1.3344,1.3965,1.4431,1.45,1.45,1.45,1.45,1.45,1.45,1.45,1.4537,1.4592,1.4674,1.4848,1.5102,1.5206,1.5262,1.5241,1.5176,1.499,1.4881,1.4877,1.4838,1.4769,1.4902,1.5,1.5024,1.5039,1.5039,1.5024,1.5068,1.5059,1.5167,1.5284,1.5313,1.521,1.5073,1.5015,1.5,1.5039,1.5112,1.5176,1.5522,1.5859,1.6595,1.7548,1.8215,1.8603,1.8722,1.8776,1.8881,1.8855,1.8921,1.9013,1.9013,1.9065,1.9092,1.908,1.9172,1.9315,1.9381,1.933,1.9356,1.942,1.9302,1.9341,1.9368,1.9512,1.9643,1.9669,1.9695,1.9773,1.9863,1.9875,1.9875,1.9888,1.9888,2.0029,2.0016,2.0003,2.0067,2.0258,2.0509,2.0721,2.0807,2.0906,2.0819,2.0671,2.0384,2.0131,2.0118,2.0232,2.0371,2.0633,2.0955,2.1151,2.1041,2.1041,2.1237,2.1298,2.1358,2.137,2.1358,2.1394,2.1369,2.1175,2.1065,2.1394,2.1529,2.1575,1.0897,1.2027,1.278,1.3459,1.4004,1.4228,1.4387,1.4485,1.45,1.45,1.45,1.45,1.45,1.4509,1.45,1.4638,1.4974,1.4964,1.5237,1.554,1.5655,1.5758,1.5703,1.5467,1.5255,1.5116,1.5028,1.4995,1.4956,1.5073,1.5132,1.5103,1.5259,1.5216,1.5088,1.5181,1.5391,1.557,1.5878,1.6022,1.6104,1.5812,1.5161,1.5112,1.5181,1.5249,1.5526,1.6354,1.6765,1.7341,1.8038,1.8642,1.8934,1.9013,1.9013,1.9013,1.9013,1.9078,1.9078,1.9093,1.9159,1.9539,1.9604,1.9785,1.9978,2.0258,2.0245,2.0308,2.0207,1.9733,1.9655,1.963,1.9734,1.9875,1.994,1.994,1.9978,2.0055,2.0105,2.0144,2.0194,2.0472,2.0906,2.0807,2.0633,2.0758,2.0992,2.1225,2.1261,2.1357,2.1477,2.1381,2.1248,2.1199,2.1102,2.0918,2.0967,2.1065,2.1187,2.1441,2.1525,2.1369,2.1429,2.173,2.1839,2.1862,2.1874,2.191,2.1777,2.1718,2.1465,2.1429,2.1815,2.2065,2.2112]},{"header":{"parameterUnit":"m.s-1","parameterCategory":1,"la1":31.0,"la2":29.5877,"lo1":-88.7671,"lo2":-86.6584,"dx":0.0162,"dy":0.0185,"nx":115,"ny":88,"refTime":"2022-12-02T06:00:00:Z","depth":0,"parameterNumber":3,"parameterNumberName":"V-component_of_WINDS"},"data":[0.0,0.0,0.0,0.0,0.0,0.0,0.0,0.0,0.0,0.0,0.0,0.0,0.0,0.0,0.0,0.0,0.0,0.0,0.0,0.0,0.0,0.0,0.0,0.0,0.0,0.0,0.0,0.0,0.0,0.0,0.0,0.0,0.0,0.0,0.0,0.0,0.0,0.0,0.0,0.0,0.0,0.0,0.0,0.0,0.0,0.0,0.0,0.0,0.0,0.0,0.0,0.0,0.0,0.0,0.0,0.0,0.0,0.0,0.0,0.0,0.0,0.0,0.0,0.0,0.0,0.0,0.0,0.0,0.0,0.0,0.0,0.0,0.0,0.0,0.0,0.0,0.0,0.0,0.0,0.0,0.0,0.0,0.0,0.0,0.0,0.0,0.0,0.0,0.0,0.0,0.0,0.0,0.0,0.0,0.0,0.0,0.0,0.0,0.0,0.0,0.0,0.0,0.0,0.0,0.0,0.0,0.0,0.0,0.0,0.0,0.0,0.0,0.0,0.0,0.0,0.0,0.0,0.0,0.0,0.0,0.0,0.0,0.0,0.0,0.0,0.0,0.0,0.0,0.0,0.0,0.0,0.0,0.0,0.0,0.0,0.0,0.0,0.0,0.0,0.0,0.0,0.0,0.0,0.0,0.0,0.0,0.0,0.0,0.0,0.0,0.0,0.0,0.0,0.0,0.0,0.0,0.0,0.0,0.0,0.0,0.0,0.0,0.0,0.0,0.0,0.0,0.0,0.0,0.0,0.0,0.0,0.0,0.0,0.0,0.0,0.0,0.0,0.0,0.0,0.0,0.0,0.0,0.0,0.0,0.0,0.0,0.0,0.0,0.0,0.0,0.0,0.0,0.0,0.0,0.0,0.0,0.0,0.0,0.0,0.0,0.0,0.0,0.0,0.0,0.0,0.0,0.0,0.0,0.0,0.0,0.0,0.0,0.0,0.0,0.0,0.0,0.0,0.0,0.0,0.0,0.0,0.0,0.0,0.0,0.0,0.0,0.0,0.0,0.0,0.0,0.0,0.0,0.0,0.0,0.0,0.0,0.0,0.0,0.0,0.0,0.0,0.0,0.0,0.0,0.0,0.0,0.0,0.0,0.0,0.0,0.0,0.0,0.0,0.0,0.0,0.0,0.0,0.0,0.0,0.0,0.0,0.0,0.0,0.0,0.0,0.0,0.0,0.0,0.0,0.0,0.0,0.0,0.0,0.0,0.0,0.0,0.0,0.0,0.0,0.0,0.0,0.0,0.0,0.0,0.0,0.0,0.0,0.0,0.0,0.0,0.0,0.0,0.0,0.0,0.0,0.0,0.0,0.0,0.0,0.0,0.0,0.0,0.0,0.0,0.0,0.0,0.0,0.0,0.0,0.0,0.0,0.0,0.0,0.0,0.0,0.0,0.0,0.0,0.0,0.0,0.0,0.0,0.0,0.0,0.0,0.0,0.0,0.0,0.0,0.0,0.0,0.0,0.0,0.0,0.0,0.0,0.0,0.0,0.0,0.0,0.0,0.0,0.0,0.0,0.0,0.0,0.0,0.0,0.0,0.0,0.0,0.0,0.0,0.0,0.0,0.0,0.0,0.0,0.0,0.0,0.0,0.0,0.0,0.0,0.0,0.0,0.0,0.0,0.0,0.0,0.0,0.0,0.0,0.0,0.0,0.0,0.0,0.0,0.0,0.0,0.0,0.0,0.0,0.0,0.0,0.0,0.0,0.0,0.0,0.0,0.0,0.0,0.0,0.0,0.0,0.0,0.0,0.0,0.0,0.0,0.0,0.0,0.0,0.0,0.0,0.0,0.0,0.0,0.0,0.0,0.0,0.0,0.0,0.0,0.0,0.0,0.0,0.0,0.0,0.0,0.0,0.0,0.0,0.0,0.0,0.0,0.0,0.0,0.0,0.0,0.0,0.0,0.0,0.0,0.0,0.0,0.0,0.0,0.0,0.0,0.0,0.0,0.0,0.0,0.0,0.0,0.0,0.0,0.0,0.0,0.0,0.0,0.0,0.0,0.0,0.0,0.0,0.0,0.0,0.0,0.0,0.0,0.0,0.0,0.0,0.0,0.0,0.0,0.0,0.0,0.0,0.0,0.0,0.0,0.0,0.0,0.0,0.0,0.0,0.0,0.0,0.0,0.0,0.0,0.0,0.0,0.0,0.0,0.0,0.0,0.0,0.0,0.0,0.0,0.0,0.0,0.0,0.0,0.0,0.0,0.0,0.0,0.0,0.0,0.0,0.0,0.0,0.0,0.0,0.0,0.0,0.0,0.0,0.0,0.0,0.0,0.0,0.0,0.0,0.0,0.0,0.0,0.0,0.0,0.0,0.0,0.0,0.0,0.0,0.0,0.0,0.0,0.0,0.0,0.0,0.0,0.0,0.0,0.0,0.0,0.0,0.0,0.0,0.0,0.0,0.0,0.0,0.0,0.0,0.0,0.0,0.0,0.0,0.0,0.0,0.0,0.0,0.0,0.0,0.0,0.0,0.0,0.0,0.0,0.0,0.0,0.0,0.0,0.0,0.0,0.0,0.0,0.0,0.0,0.0,0.0,0.0,0.0,0.0,0.0,0.0,0.0,0.0,0.0,0.0,0.0,0.0,0.0,0.0,0.0,0.0,0.0,0.0,0.0,0.0,0.0,0.0,0.0,0.0,0.0,0.0,0.0,0.0,0.0,0.0,0.0,0.0,0.0,0.0,0.0,0.0,0.0,0.0,0.0,0.0,0.0,0.0,0.0,0.0,0.0,0.0,0.0,0.0,0.0,0.0,0.0,0.0,0.0,0.0,0.0,0.0,0.0,0.0,0.0,0.0,0.0,0.0,0.0,0.0,0.0,0.0,0.0,0.0,0.0,0.0,0.0,0.0,0.0,0.0,0.0,0.0,0.0,0.0,0.0,0.0,0.0,0.0,0.0,0.0,0.0,0.0,0.0,0.0,0.0,0.0,0.0,0.0,0.0,0.0,0.0,0.0,0.0,0.0,0.0,0.0,0.0,0.0,0.0,0.0,0.0,0.0,0.0,0.0,0.0,0.0,0.0,0.0,0.0,0.0,0.0,0.0,0.0,0.0,0.0,0.0,0.0,0.0,0.0,0.0,0.0,0.0,0.0,0.0,0.0,0.0,0.0,0.0,0.0,0.0,0.0,0.0,0.0,0.0,0.0,0.0,0.0,0.0,0.0,0.0,0.0,0.0,0.0,0.0,0.0,0.0,0.0,0.0,0.0,0.0,0.0,0.0,0.0,0.0,0.0,0.0,0.0,0.0,0.0,0.0,0.0,0.0,0.0,0.0,0.0,0.0,0.0,0.0,0.0,0.0,0.0,0.0,0.0,0.0,0.0,0.0,0.0,0.0,0.0,0.0,0.0,0.0,0.0,0.0,0.0,0.0,0.0,0.0,0.0,0.0,0.0,0.0,0.0,0.0,0.0,0.0,0.0,0.0,0.0,0.0,0.0,0.0,0.0,0.0,0.0,0.0,0.0,0.0,0.0,0.0,0.0,0.0,0.0,0.0,0.0,0.0,0.0,0.0,0.0,0.0,0.0,0.0,0.0,0.0,0.0,0.0,0.0,0.0,0.0,0.0,0.0,0.0,0.0,0.0,0.0,0.0,0.0,0.0,0.0,0.0,0.0,0.0,0.0,0.0,0.0,0.0,0.0,0.0,0.0,0.0,0.0,0.0,0.0,0.0,0.0,0.0,0.0,0.0,0.0,0.0,0.0,0.0,0.0,0.0,0.0,0.0,0.0,0.0,0.0,0.0,0.0,0.0,0.0,0.0,0.0,0.0,0.0,0.0,0.0,0.0,0.0,0.0,0.0,0.0,0.0,0.0,0.0,0.0,0.0,0.0,0.0,0.0,0.0,0.0,0.0,0.0,0.0,0.0,0.0,0.0,0.0,0.0,0.0,0.0,0.0,0.0,0.0,0.0,0.0,0.0,0.0,0.0,0.0,0.0,0.0,0.0,0.0,0.0,0.0,0.0,0.0,0.0,0.0,0.0,0.0,0.0,0.0,0.0,0.0,0.0,0.0,0.0,0.0,0.0,0.0,0.0,0.0,0.0,0.0,0.0,0.0,0.0,0.0,0.0,0.0,0.0,0.0,0.0,0.0,0.0,0.0,0.0,0.0,0.0,0.0,0.0,0.0,0.0,0.0,0.0,0.0,0.0,0.0,0.0,0.0,0.0,0.0,0.0,0.0,0.0,0.0,0.0,0.0,0.0,0.0,0.0,0.0,0.0,0.0,0.0,0.0,0.0,0.0,1.1087,0.0,0.0,0.0,1.0429,0.0,0.0,0.0,0.0,0.0,0.0,0.0,0.0,0.0,0.0,0.0,0.0,0.0,0.0,0.0,0.0,0.0,0.0,0.0,0.0,0.0,0.0,0.0,0.0,0.0,0.0,0.0,0.0,0.0,0.0,0.0,0.0,0.0,0.0,0.0,0.0,0.0,0.0,0.0,0.0,0.0,0.0,0.0,0.0,0.0,0.0,0.0,0.0,0.0,0.0,0.0,0.0,0.0,0.0,0.0,0.0,0.0,0.0,0.0,0.0,0.0,0.0,0.0,0.0,0.0,0.0,0.0,0.0,0.0,0.0,0.0,0.0,0.0,0.0,0.0,0.0,0.0,0.0,0.0,0.0,0.0,0.0,0.0,0.0,0.0,0.0,0.0,0.0,0.0,0.0,0.0,0.0,0.0,0.0,0.0,0.0,0.0,0.0,0.0,0.0,0.0,0.0,0.0,0.0,0.0,0.0,0.0,0.0,0.0,0.0,1.1086,1.0255,1.1471,1.1548,1.0275,0.0,0.0,0.0,0.0,0.0,0.0,0.0,0.0,0.0,0.0,0.0,0.0,0.0,0.0,0.0,0.0,0.0,0.0,0.0,0.0,0.0,0.0,0.0,0.0,0.0,0.0,0.0,0.0,0.0,0.0,0.0,0.0,0.0,0.0,0.0,0.0,0.0,0.0,0.0,0.0,0.0,0.0,0.0,0.0,0.0,0.0,0.0,0.0,0.0,0.0,0.0,0.0,0.0,0.0,0.0,0.0,0.0,0.0,0.0,0.0,0.0,0.0,0.0,0.0,0.0,0.0,0.0,0.0,0.0,0.0,0.0,0.0,0.0,0.0,0.0,0.0,0.0,0.0,0.0,0.0,0.0,0.0,0.0,0.0,0.0,0.0,0.0,0.0,0.0,0.0,0.0,0.0,0.0,0.0,0.0,0.0,0.0,0.0,0.0,0.0,0.0,0.0,0.0,0.0,0.0,0.0,0.0,0.0,0.0,0.0,0.0,0.0,1.1847,1.1826,1.057,0.0,0.0,0.0,0.0,0.0,0.0,0.0,0.0,0.0,0.0,0.0,0.0,0.0,0.0,0.0,0.0,0.0,0.0,0.0,0.0,0.0,0.0,0.0,0.0,0.0,0.0,0.0,0.0,0.0,0.0,0.0,0.0,0.0,0.0,0.0,0.0,0.0,0.0,0.0,0.0,0.0,0.0,0.0,0.0,0.0,0.0,0.0,0.0,0.0,0.0,0.0,0.0,0.0,0.0,0.0,0.0,0.0,0.0,0.0,0.0,0.0,0.0,0.0,0.0,0.0,0.0,0.0,0.0,0.0,0.0,0.0,0.0,0.0,0.0,0.0,0.0,0.0,0.0,0.0,0.0,0.0,0.0,0.0,0.0,0.0,0.0,0.0,0.0,0.0,0.0,0.0,0.0,0.0,0.0,0.0,0.0,0.0,0.0,0.0,0.0,0.0,0.0,0.0,0.0,0.0,0.0,0.0,0.0,0.0,0.0,1.1027,1.2515,1.1947,0.0,1.134,0.0,0.0,0.0,0.0,0.0,0.0,0.0,0.0,0.0,0.0,0.0,0.0,0.0,0.0,0.0,0.0,0.0,0.0,0.0,0.0,0.0,0.0,0.0,0.0,0.0,0.0,0.0,0.0,0.0,0.0,0.0,0.0,0.0,0.0,0.0,0.0,0.0,0.0,0.0,0.0,0.0,0.0,0.0,0.0,0.0,0.0,0.0,0.0,0.0,0.0,0.0,0.0,0.0,0.0,0.0,0.0,0.0,0.0,0.0,0.0,0.0,0.0,0.0,0.0,0.0,0.0,0.0,0.0,0.0,0.0,0.0,0.0,0.0,0.0,0.0,0.0,0.0,0.0,0.0,0.0,0.0,0.0,0.0,0.0,0.0,0.0,0.0,0.0,0.0,0.0,0.0,0.0,0.0,0.0,0.0,0.0,0.0,0.0,0.0,0.0,0.0,0.0,0.0,0.0,0.0,0.0,0.0,0.0,0.0,0.0,1.0785,1.2016,1.1665,1.1254,0.0,0.0,0.0,0.0,0.0,0.0,0.0,0.0,0.0,0.0,0.0,0.0,0.0,0.0,0.0,0.0,0.0,0.0,0.0,0.0,0.0,0.0,0.0,0.0,0.0,0.0,0.0,0.0,0.0,0.0,0.0,0.0,0.0,0.0,0.0,0.0,0.0,0.0,0.0,0.0,0.0,0.0,0.0,0.0,0.0,0.0,0.0,0.0,0.0,0.0,0.0,0.0,0.0,0.0,0.0,0.0,0.0,0.0,0.0,0.0,0.0,0.0,0.0,0.0,0.0,0.0,0.0,0.0,0.0,0.0,0.0,0.0,0.0,0.0,0.0,0.0,0.0,0.0,0.0,0.0,0.0,0.0,0.0,0.0,0.0,0.0,0.0,0.0,0.0,0.0,0.0,0.0,0.0,0.0,0.0,0.0,0.0,0.0,0.0,0.0,0.0,0.0,0.0,0.0,0.0,0.0,0.0,0.0,0.0,0.0,1.0233,1.0995,1.2087,1.1539,1.0874,1.0249,0.0,0.0,0.0,0.0,0.0,0.0,0.0,0.0,0.0,0.0,0.0,0.0,0.0,0.0,0.0,0.0,0.0,0.0,0.0,0.0,0.0,0.0,0.0,0.0,0.0,0.0,0.0,0.0,0.0,0.0,0.0,0.0,0.0,0.0,0.0,0.0,0.0,0.0,0.0,0.0,0.0,0.0,0.0,0.0,0.0,0.0,0.0,0.0,0.0,0.0,0.0,0.0,0.0,0.0,0.0,0.0,0.0,0.0,0.0,0.0,0.0,0.0,0.0,0.0,0.0,0.0,0.0,0.0,0.0,0.0,0.0,0.0,0.0,0.0,0.0,0.0,0.0,0.0,0.0,0.0,0.0,0.0,0.0,0.0,0.0,0.0,0.0,0.0,0.0,0.0,0.0,0.0,0.0,0.0,0.0,0.0,0.0,0.0,0.0,0.0,0.0,0.0,0.0,0.0,0.0,0.0,0.0,0.0,1.191,1.1365,1.1944,1.3844,1.1639,1.0331,0.0,0.0,0.0,0.0,0.0,0.0,0.0,0.0,0.0,0.0,0.0,0.0,0.0,0.0,0.0,0.0,0.0,0.0,0.0,0.0,0.0,0.0,0.0,0.0,0.0,0.0,0.0,0.0,0.0,0.0,0.0,0.0,0.0,0.0,0.0,0.0,0.0,0.0,0.0,0.0,0.0,0.0,0.0,0.0,0.0,0.0,0.0,0.0,0.0,0.0,0.0,0.0,0.0,0.0,0.0,0.0,0.0,0.0,0.0,0.0,0.0,0.0,0.0,0.0,0.0,0.0,0.0,0.0,0.0,0.0,0.0,0.0,0.0,0.0,0.0,0.0,0.0,0.0,0.0,0.0,0.0,0.0,0.0,0.0,0.0,0.0,0.0,0.0,0.0,0.0,0.0,0.0,0.0,0.0,0.0,0.0,0.0,0.0,0.0,0.0,0.0,0.0,0.0,0.0,0.0,0.0,0.0,0.0,0.0,0.9788,1.1904,1.3588,1.4756,1.2934,1.1901,0.0,0.0,0.0,0.0,0.0,0.0,0.0,0.0,0.0,0.0,0.0,0.0,0.0,0.0,0.0,0.0,0.0,0.0,0.0,0.0,0.0,0.0,0.0,0.0,0.0,0.0,0.0,0.0,0.0,0.0,0.0,0.0,0.0,0.0,0.0,0.0,0.0,0.0,0.0,0.0,0.0,0.0,0.0,0.0,0.0,0.0,0.0,0.0,0.0,0.0,0.0,0.0,0.0,0.0,0.0,0.0,0.0,0.0,0.0,0.0,0.0,0.0,0.0,0.0,0.0,0.0,0.0,0.0,0.0,0.0,0.0,0.0,0.0,0.0,0.0,0.0,0.0,0.0,0.0,0.0,0.0,0.0,0.0,0.0,0.0,0.0,0.0,0.0,0.0,0.0,0.0,0.0,0.0,0.0,0.0,0.0,0.0,0.0,0.0,0.0,0.0,0.0,0.0,0.0,0.0,0.0,0.0,0.0,0.0,0.997,1.2963,1.4924,1.5623,1.3568,1.2058,0.0,0.0,0.0,0.0,0.0,0.0,0.0,0.0,0.0,0.0,0.0,0.0,0.0,0.0,0.0,0.0,0.0,0.0,0.0,0.0,0.0,0.0,0.0,0.0,0.0,0.0,0.0,0.0,0.0,0.0,0.0,0.0,0.0,0.0,0.0,0.0,0.0,0.0,0.0,0.0,0.0,0.0,0.0,0.0,0.0,0.0,0.0,0.0,0.0,0.0,0.0,0.0,0.0,0.0,0.0,0.0,0.0,0.0,0.0,0.0,0.0,0.0,0.0,0.0,0.0,0.0,0.0,0.0,0.0,0.0,0.0,0.0,0.0,0.0,0.0,0.0,0.0,0.0,0.0,0.0,0.0,0.0,0.0,0.0,0.0,0.0,0.0,0.0,0.0,0.0,0.0,0.0,0.0,0.0,0.0,0.0,0.0,0.0,0.0,0.0,0.0,0.0,0.0,0.0,0.0,0.0,0.0,0.0,0.748,1.2962,1.4609,1.5807,1.6557,1.3372,1.0612,0.0,0.0,0.0,0.0,0.0,0.0,0.0,0.0,0.0,0.0,0.0,0.0,0.0,0.0,0.0,0.0,0.0,0.0,0.0,0.0,0.0,0.0,0.0,0.0,0.0,0.0,0.0,0.0,0.0,0.0,0.0,0.0,0.0,0.0,0.0,0.0,0.0,0.0,0.0,0.0,0.0,0.0,0.0,0.0,0.0,0.0,0.0,0.0,0.0,0.0,0.0,0.0,0.0,0.0,0.0,0.0,0.0,0.0,0.0,0.0,0.0,0.0,0.0,0.0,0.0,0.0,0.0,0.0,0.0,0.0,0.0,0.0,0.0,0.0,0.0,0.0,0.0,0.0,0.0,0.0,0.0,0.0,0.0,0.0,0.0,0.0,0.0,0.0,0.0,0.0,0.0,0.0,0.0,0.0,0.0,0.0,0.0,0.0,0.0,0.0,0.0,0.0,0.0,0.0,0.0,0.0,0.0,0.0,0.0,1.1497,1.4643,1.64,1.6518,1.3893,1.1971,0.0,0.0,0.0,0.0,0.0,0.0,0.0,0.0,0.0,0.0,0.0,0.0,0.0,0.0,0.0,0.0,0.0,0.0,0.0,0.0,0.0,0.0,0.0,0.0,0.0,0.0,0.0,0.0,0.0,0.0,0.0,0.0,0.0,0.0,0.0,0.0,0.0,0.0,0.0,0.0,0.0,0.0,0.0,0.0,0.0,0.0,0.0,0.0,0.0,0.0,0.0,0.0,0.0,0.0,0.0,0.0,0.0,0.0,0.0,0.0,0.0,0.0,0.0,0.0,0.0,0.0,0.0,0.0,0.0,0.0,0.0,0.0,0.0,0.0,0.0,0.0,0.0,0.0,0.0,0.0,0.0,0.0,0.0,0.0,0.0,0.0,0.0,0.0,0.0,0.0,0.0,0.0,0.0,0.0,0.0,0.0,0.0,0.0,0.0,0.0,0.0,0.0,0.0,0.0,0.0,0.0,0.0,0.0,0.0,1.2157,1.5094,1.6688,1.663,1.4457,1.2808,1.1752,0.0,0.0,0.0,0.0,0.0,0.0,0.0,0.0,0.0,0.0,0.0,0.0,0.0,0.0,0.0,0.0,0.0,0.0,0.0,0.0,0.0,0.0,0.0,0.0,0.0,0.0,0.0,0.0,0.0,0.0,0.0,0.0,0.0,0.0,0.0,0.0,0.0,0.0,0.0,0.0,0.0,0.0,0.0,0.0,0.0,0.0,0.0,0.0,0.0,0.0,0.0,0.0,0.0,0.0,0.0,0.0,0.0,0.0,0.0,0.0,0.0,0.0,0.0,0.0,0.0,0.0,0.0,0.0,0.0,0.0,0.0,0.0,0.0,0.0,0.0,0.0,0.0,0.0,0.0,0.0,0.0,0.0,0.0,0.0,0.0,0.0,0.0,0.0,0.0,0.0,0.0,0.0,0.0,0.0,0.0,0.0,0.0,0.0,0.0,0.0,0.0,0.0,0.0,0.0,0.0,0.0,0.0,0.0,1.4419,1.5933,1.6763,1.6779,1.51,1.3183,0.0,0.0,0.0,0.0,0.0,0.0,0.0,0.0,0.0,0.0,0.0,0.0,0.0,0.0,0.0,0.0,0.0,0.0,0.0,0.0,0.0,0.0,0.0,0.0,0.0,0.0,0.0,0.0,0.0,0.0,0.0,0.0,0.0,0.0,0.0,0.0,0.0,0.0,0.0,0.0,0.0,0.0,0.0,0.0,0.0,0.0,0.0,0.0,0.0,0.0,0.0,0.0,0.0,0.0,0.0,0.0,0.0,0.0,0.0,0.0,0.0,0.0,0.0,0.0,0.0,0.0,0.0,0.0,0.0,0.0,0.0,0.0,0.0,0.0,0.0,0.0,0.0,0.0,0.0,0.0,0.0,0.0,0.0,0.0,0.0,0.0,0.0,0.0,0.0,0.0,0.0,0.0,0.0,0.0,0.0,0.0,0.0,0.0,0.0,0.0,0.0,0.0,0.0,0.0,0.0,0.0,0.0,0.0,0.0,1.5904,1.6914,1.7477,1.7541,1.5955,1.4077,0.0,0.0,0.0,0.0,0.0,0.0,0.0,0.0,0.0,0.0,0.0,0.0,0.0,0.0,0.0,0.0,0.0,0.0,0.0,0.0,0.0,0.0,0.0,0.0,0.0,0.0,0.0,0.0,0.0,0.0,0.0,0.0,0.0,0.0,0.0,0.0,0.0,0.0,0.0,0.0,0.0,0.0,0.0,0.0,0.0,0.0,0.0,0.0,0.0,0.0,0.0,0.0,0.0,0.0,0.0,0.0,0.0,0.0,0.0,0.0,0.0,0.0,0.0,0.0,0.0,0.0,0.0,0.0,0.0,0.0,0.0,0.0,0.0,0.0,0.0,0.0,0.0,0.0,0.0,0.0,0.0,0.0,0.0,0.0,0.0,0.0,0.0,0.0,0.0,0.0,0.0,0.0,0.0,0.0,0.0,0.0,0.0,0.0,0.0,0.0,0.0,0.0,0.0,0.0,0.0,0.0,0.0,0.0,1.6002,1.7562,1.8421,1.887,1.8946,1.7259,1.5492,0.0,0.0,0.0,0.0,0.0,0.0,0.0,0.0,0.0,0.0,0.0,0.0,0.0,0.0,0.0,0.0,0.0,0.0,0.0,0.0,0.0,0.0,0.0,0.0,0.0,0.0,0.0,0.0,0.0,0.0,0.0,0.0,0.0,0.0,0.0,0.0,0.0,0.0,0.0,0.0,0.0,0.0,0.0,0.0,0.0,0.0,0.0,0.0,0.0,0.0,0.0,0.0,0.0,0.0,0.0,0.0,0.0,0.0,0.0,0.0,0.0,0.0,0.0,0.0,0.0,0.0,0.0,0.0,0.0,0.0,0.0,0.0,0.0,0.0,0.0,0.0,0.0,0.0,0.0,0.0,0.0,0.0,0.0,0.0,0.0,0.0,0.0,0.0,0.0,0.0,0.0,0.0,0.0,0.0,0.0,0.0,0.0,0.0,0.0,0.0,0.0,0.0,0.0,0.0,0.0,0.0,0.0,0.0,1.774,1.9328,2.0018,2.0413,2.0447,1.878,1.7076,0.0,0.0,0.0,0.0,0.0,0.0,0.0,0.0,0.0,0.0,0.0,0.0,0.0,0.0,0.0,0.0,0.0,0.0,0.0,0.0,0.0,0.0,0.0,0.0,0.0,0.0,0.0,0.0,0.0,0.0,0.0,0.0,0.0,0.0,0.0,0.0,0.0,0.0,0.0,0.0,0.0,0.0,0.0,0.0,0.0,0.0,0.0,0.0,0.0,0.0,0.0,0.0,0.0,0.0,0.0,0.0,0.0,0.0,0.0,0.0,0.0,0.0,0.0,0.0,0.0,0.0,0.0,0.0,0.0,0.0,0.0,0.0,0.0,0.0,0.0,0.0,0.0,0.0,0.0,0.0,0.0,0.0,0.0,0.0,0.0,0.0,0.0,0.0,0.0,0.0,0.0,0.0,0.0,0.0,0.0,0.0,0.0,0.0,0.0,0.0,0.0,0.0,0.0,0.0,0.0,0.0,0.0,0.0,1.9325,2.0924,2.0502,2.0568,2.1245,1.9668,1.8034,0.0,0.0,0.0,0.0,0.0,0.0,0.0,0.0,0.0,0.0,0.0,0.0,0.0,0.0,0.0,0.0,0.0,0.0,0.0,0.0,0.0,0.0,0.0,0.0,0.0,0.0,0.0,0.0,0.0,0.0,0.0,0.0,0.0,0.0,0.0,0.0,0.0,0.0,0.0,0.0,0.0,0.0,0.0,0.0,0.0,0.0,0.0,0.0,1.1551,0.0,0.0,0.0,0.0,0.0,0.0,0.0,0.0,0.0,0.0,0.0,0.0,0.0,0.0,0.0,0.0,0.0,0.0,0.0,0.0,0.0,0.0,0.0,0.0,0.0,0.0,0.0,0.0,0.0,0.0,0.0,0.0,0.0,0.0,0.0,0.0,0.0,0.0,0.0,0.0,0.0,0.0,0.0,0.0,0.0,0.0,0.0,0.0,0.0,0.0,0.0,0.0,0.0,0.0,0.0,0.0,0.0,0.0,0.0,1.9886,2.1463,2.0735,2.0673,2.1432,2.0314,1.8881,0.0,0.0,0.0,0.0,0.0,0.0,0.0,0.0,0.0,0.0,0.0,0.0,0.0,0.0,0.0,0.0,0.0,0.0,0.0,0.0,0.0,0.0,0.0,0.0,0.0,0.0,0.0,0.0,0.0,0.0,0.0,0.0,0.0,0.0,0.0,0.0,0.0,0.0,0.0,0.0,0.0,0.0,0.0,0.0,0.0,0.0,0.0,0.0,0.0,0.0,0.0,0.0,0.0,0.0,0.0,0.0,0.0,0.0,0.0,0.0,0.0,0.0,0.0,0.0,0.0,0.0,0.0,0.0,0.0,0.0,0.0,0.0,0.0,0.0,0.0,0.0,0.0,0.0,0.0,0.0,0.0,0.0,0.0,0.0,0.0,0.0,0.0,0.0,0.0,0.0,0.0,0.0,0.0,0.0,0.0,0.0,0.0,0.0,0.0,0.0,0.0,0.0,0.0,0.0,0.0,0.0,0.0,1.8358,2.0077,2.1854,2.0948,2.0853,2.1752,2.0818,1.9505,1.7853,0.0,0.0,0.0,0.0,0.0,0.0,0.0,0.0,0.0,0.0,0.0,0.0,0.0,0.0,0.0,0.0,0.0,0.0,0.0,0.0,0.0,0.0,0.0,0.0,0.0,0.0,0.0,0.0,0.0,0.0,0.0,0.0,0.0,0.0,0.0,0.0,0.0,0.0,0.8709,1.0714,0.0,0.0,0.0,0.0,0.0,0.0,0.0,0.0,1.3706,0.0,0.0,0.0,0.0,0.0,0.0,0.0,0.0,0.0,0.0,0.0,0.0,0.0,0.0,0.0,0.0,0.0,0.0,0.0,0.0,0.0,0.0,0.0,0.0,0.0,0.0,0.0,0.0,0.0,0.0,0.0,0.0,0.0,0.0,0.0,0.0,0.0,0.0,0.0,0.0,0.0,0.0,0.0,0.0,0.0,0.0,0.0,0.0,0.0,0.0,0.0,0.0,0.0,0.0,0.0,0.0,1.9533,1.9236,2.0565,2.3645,2.156,2.1116,2.2564,2.1146,1.9519,1.7842,0.0,0.0,0.0,0.0,0.0,0.0,0.0,0.0,0.0,0.0,0.0,0.0,0.0,0.0,0.0,0.0,0.0,0.0,0.0,0.0,0.0,0.0,0.0,0.0,0.0,0.0,0.0,0.0,0.0,0.0,0.0,0.0,0.0,0.0,0.0,0.0,0.0,0.0,0.0,1.3285,1.3597,0.0,0.0,0.0,0.0,0.0,0.0,0.0,0.0,1.363,0.0,0.0,0.0,0.0,0.0,0.0,0.0,0.0,0.0,0.0,0.0,0.0,0.0,0.0,0.0,0.0,0.0,0.0,0.0,0.0,0.0,0.0,0.0,0.0,0.0,0.0,0.0,0.0,0.0,0.0,0.0,0.0,0.0,0.0,0.0,0.0,0.0,0.0,0.0,0.0,0.0,0.0,0.0,0.0,0.0,0.0,0.0,0.0,0.0,0.0,0.0,0.0,0.0,0.0,0.0,1.9389,2.0155,2.164,2.4041,2.2552,2.2295,2.3487,2.1898,2.0192,0.0,0.0,0.0,0.0,0.0,0.0,0.0,0.0,0.0,0.0,0.0,0.0,0.0,0.0,0.0,0.0,0.0,0.0,0.0,0.0,0.0,0.0,0.0,0.0,0.0,0.0,0.0,0.0,0.0,0.0,0.0,0.0,0.0,0.0,0.0,0.0,0.0,0.0,0.0,0.0,1.3988,1.3967,1.4859,0.0,0.0,0.0,0.0,0.0,0.0,1.3985,1.3539,0.0,0.0,0.0,0.0,0.0,0.0,0.0,0.0,0.0,0.0,0.0,0.0,0.0,0.0,0.0,0.0,0.0,0.0,0.0,0.0,0.0,0.0,0.0,0.0,0.0,0.0,0.0,0.0,0.0,0.0,0.0,0.0,0.0,0.0,0.0,0.0,0.0,0.0,0.0,0.0,0.0,0.0,0.0,0.0,0.0,0.0,0.0,0.0,0.0,0.0,0.0,0.0,0.0,0.0,0.0,1.922,2.0745,2.2418,2.4312,2.3441,2.3218,2.3877,2.2416,2.0732,0.0,0.0,0.0,0.0,0.0,0.0,0.0,0.0,0.0,0.0,0.0,0.0,0.0,0.0,0.0,0.0,0.0,0.0,0.0,0.0,0.0,0.0,0.0,0.0,0.0,0.0,0.0,0.0,0.0,0.0,0.0,0.0,0.0,0.0,0.0,0.0,0.0,0.0,0.0,0.0,0.0,1.4303,1.5555,1.5709,0.0,0.0,0.0,0.0,1.4813,1.4255,0.0,0.0,0.0,0.0,0.0,0.0,0.0,0.0,0.0,0.0,0.0,0.0,0.0,0.0,0.0,0.0,0.0,0.0,0.0,0.0,0.0,0.0,0.0,0.0,0.0,0.0,0.0,0.0,0.0,0.0,0.0,0.0,0.0,0.0,0.0,0.0,0.0,0.0,0.0,0.0,0.0,0.0,0.0,0.0,0.0,0.0,0.0,0.0,0.0,0.0,0.0,0.0,0.0,0.0,0.0,0.0,1.9971,2.0441,2.2104,2.5084,2.3754,2.2954,2.3025,2.2048,2.0398,0.0,0.0,0.0,0.0,0.0,0.0,0.0,0.0,0.0,0.0,0.0,0.0,0.0,0.0,0.0,0.0,0.0,0.0,0.0,0.0,0.0,0.0,0.0,0.0,0.0,0.0,0.0,0.0,0.0,0.0,0.0,0.0,0.0,0.0,0.0,0.0,0.0,0.0,0.0,0.0,0.0,1.5286,1.4909,1.5472,1.5622,0.0,0.0,1.5523,1.5482,1.5221,0.0,0.0,0.0,0.0,0.0,0.0,0.0,0.0,0.0,0.0,0.0,0.0,0.0,0.0,0.0,0.0,0.0,0.0,0.0,0.0,0.0,0.0,0.0,0.0,0.0,0.0,0.0,0.0,0.0,0.0,0.0,0.0,0.0,0.0,0.0,0.0,0.0,0.0,0.0,0.0,0.0,0.0,0.0,0.0,0.0,0.0,0.0,0.0,0.0,0.0,0.0,0.0,0.0,0.0,0.0,1.4103,1.948,2.1088,2.2759,2.4664,2.448,2.4078,2.3593,2.2707,2.1062,0.0,0.0,0.0,0.0,0.0,0.0,0.0,0.0,0.0,0.0,0.0,0.0,0.0,0.0,0.0,0.0,0.0,0.0,0.0,0.0,0.0,0.0,0.0,0.0,0.0,0.0,0.0,0.0,0.0,0.0,0.0,0.0,0.0,0.0,0.0,0.0,0.0,0.0,0.0,0.0,0.0,0.0,1.5784,1.6258,0.0,0.0,0.0,1.7053,1.6676,0.0,0.0,0.0,0.0,0.0,0.0,0.0,0.0,0.0,0.0,0.0,0.0,0.0,0.0,0.0,0.0,0.0,0.0,0.0,0.0,0.0,0.0,0.0,0.0,0.0,0.0,0.0,0.0,0.0,0.0,0.0,0.0,0.0,0.0,0.0,0.0,0.0,0.0,0.0,0.0,0.0,0.0,0.0,0.0,0.0,0.0,0.0,0.0,0.0,0.0,0.0,0.0,0.0,0.0,0.0,0.0,0.0,1.9043,2.1595,2.3313,2.4167,2.4985,2.4889,2.3816,2.3345,0.0,0.0,0.0,0.0,0.0,0.0,0.0,0.0,0.0,0.0,0.0,0.0,0.0,0.0,0.0,0.0,0.0,0.0,0.0,0.0,0.0,0.0,0.0,0.0,0.0,0.0,0.0,0.4083,0.0,0.0,0.0,0.0,0.0,0.0,0.0,0.0,0.0,0.0,0.0,0.0,0.0,0.0,1.5299,1.6526,1.7072,1.7476,0.0,0.0,1.8229,1.7687,1.7602,1.7286,0.0,0.0,0.0,0.0,0.0,0.0,0.0,0.0,0.0,0.0,0.0,0.0,0.0,0.0,0.0,0.0,0.0,0.0,0.0,0.0,0.0,0.0,0.0,0.0,0.0,0.0,0.0,0.0,0.0,0.0,0.0,0.0,0.0,0.0,0.0,0.0,0.0,0.0,0.0,0.0,0.0,0.0,0.0,0.0,0.0,0.0,0.0,0.0,0.0,0.0,0.0,0.0,0.0,0.0,0.0,1.8999,2.1602,2.3319,2.4167,2.4979,2.4608,2.2964,2.364,2.2083,0.0,0.0,0.0,0.0,0.0,0.0,0.0,0.0,0.0,0.0,0.0,0.0,0.0,0.0,0.0,0.0,0.0,0.0,0.0,0.0,0.0,0.0,0.0,0.0,0.0,0.0,0.0,0.0,0.0,0.0,0.0,0.0,0.0,0.0,0.0,0.0,0.0,0.0,0.0,0.0,0.0,1.6372,1.6422,1.7667,1.849,0.0,0.0,1.8408,1.8192,1.8153,1.77,1.6416,0.0,0.0,0.0,0.0,0.0,0.0,0.0,0.0,0.0,0.0,0.0,0.0,0.0,0.0,0.0,0.0,0.0,0.0,0.0,0.0,0.0,0.0,0.0,0.0,0.0,0.0,0.0,0.0,0.0,0.0,0.0,0.0,0.0,0.0,0.0,0.0,0.0,0.0,0.0,0.0,0.0,0.0,0.0,0.0,0.0,0.0,0.0,0.0,0.0,0.0,0.0,0.0,0.0,1.4202,1.8251,2.1336,2.3057,2.3357,2.4692,2.483,2.3621,2.34,2.2057,0.0,0.0,0.0,0.0,0.0,0.0,0.0,0.0,0.0,0.0,0.0,0.0,0.0,0.0,0.0,0.0,0.0,0.0,0.0,0.0,0.0,0.0,0.0,0.0,0.0,0.0,0.0,0.0,0.9135,0.9801,0.8708,0.0,0.0,0.0,0.0,0.0,0.0,0.0,0.0,0.0,0.0,1.6747,1.756,1.837,0.0,0.0,1.9197,1.9587,2.0037,1.977,1.9324,1.88,1.8392,0.0,0.0,0.0,0.0,0.0,0.0,0.0,0.0,0.0,0.0,0.0,0.0,0.0,0.0,0.0,0.0,0.0,0.0,0.0,0.0,0.0,0.0,0.0,0.0,0.0,0.0,0.0,0.0,0.0,0.0,0.0,0.0,0.0,0.0,0.0,0.0,0.0,0.0,0.0,0.0,0.0,0.0,0.0,0.0,0.0,0.0,0.0,0.0,0.0,0.0,0.0,0.0,1.4283,1.7779,2.1159,2.286,2.2812,2.4462,2.4935,2.4041,2.3429,2.2196,0.0,0.0,0.0,0.0,0.0,0.0,0.0,0.0,0.0,0.0,0.0,0.0,0.0,0.0,0.0,0.0,0.0,0.0,0.0,0.0,0.0,0.0,0.0,0.0,0.0,0.0,0.0,0.0,1.1271,1.1785,0.934,0.0,0.0,0.0,0.0,0.0,0.0,0.0,0.0,0.0,0.0,1.7685,1.8602,1.9282,1.9757,1.9878,2.0168,2.0605,2.1209,2.0903,2.0527,2.0326,0.0,0.0,0.0,0.0,0.0,0.0,0.0,0.0,0.0,0.0,0.0,0.0,0.0,0.0,0.0,0.0,0.0,0.0,0.0,0.0,0.0,0.0,0.0,0.0,0.0,0.0,0.0,0.0,0.0,0.0,0.3127,0.0,0.0,0.0,0.0,0.0,0.0,0.0,0.0,0.0,0.0,0.0,0.0,0.0,0.0,0.0,0.0,0.0,0.0,0.0,0.0,0.0,0.0,1.4833,1.7811,2.1132,2.2791,2.2866,2.4437,2.4818,2.3886,2.3848,2.2618,2.0004,0.0,0.0,0.0,0.0,0.0,0.0,0.0,0.0,0.0,0.0,0.0,0.0,0.0,0.0,0.0,0.0,0.0,0.0,0.0,0.0,0.0,0.0,0.0,0.0,0.0,0.0,0.8752,1.0972,1.1748,0.0,0.0,0.0,0.0,0.0,0.0,0.0,0.0,0.0,0.0,1.8143,1.9386,1.935,2.0419,2.1218,2.1227,2.1273,2.1279,2.135,2.1297,2.1066,0.0,0.0,0.0,0.0,0.0,0.0,0.0,0.0,0.0,0.0,0.0,0.0,0.0,0.0,0.0,0.0,0.0,0.0,0.0,0.0,0.0,0.0,0.0,0.0,0.0,0.0,0.0,0.8885,0.8625,0.0,0.0,0.0,0.0,0.0,0.0,0.0,0.0,0.0,0.0,0.0,1.5802,1.6659,0.0,0.0,0.0,0.0,0.0,0.0,0.0,0.0,0.0,0.0,0.0,0.0,1.539,1.9356,2.1643,2.3073,2.3655,2.4652,2.5012,2.465,2.4051,2.2756,2.0752,0.0,0.0,0.0,0.0,0.0,0.0,0.0,0.0,0.0,0.0,0.0,0.0,0.0,0.0,0.0,0.0,0.0,0.0,0.0,0.0,0.0,0.0,0.0,0.0,0.0,0.9481,0.0,0.0,0.0,0.0,0.0,0.0,0.0,0.0,0.0,0.0,0.0,1.6796,1.8199,1.9724,2.0833,2.1236,2.1683,2.1957,0.0,0.0,0.0,0.0,0.0,0.0,0.0,0.0,0.0,0.0,0.0,0.0,0.0,0.0,1.94,1.6707,1.6017,1.5863,1.5863,0.0,0.0,0.0,0.0,0.0,0.0,0.0,0.0,0.0,0.0,0.0,0.0,0.0,0.0,1.2493,0.0,1.1178,0.0,0.0,0.0,0.0,0.0,0.0,0.0,0.0,1.7009,1.8847,1.9669,2.0496,2.0581,0.0,1.804,1.6256,0.0,0.0,0.0,0.0,0.0,0.0,0.0,0.0,1.6423,2.0593,2.2091,2.3236,2.4088,2.4803,2.5149,2.509,2.411,2.2765,2.1126,1.8667,1.7581,0.0,0.0,0.0,0.0,0.0,0.0,0.0,0.0,0.0,0.0,0.0,0.0,0.0,0.0,0.0,0.0,0.0,0.0,0.0,0.0,0.0,0.0,0.0,1.186,0.0,0.0,0.0,0.0,0.0,0.0,0.0,0.0,0.0,1.4053,1.6345,1.8582,1.9991,2.1031,2.1812,2.2234,0.0,0.0,0.0,0.0,0.0,0.0,0.0,2.2126,2.2588,2.1935,2.1273,2.1026,2.135,2.1642,2.1633,0.0,0.0,1.88,1.8123,1.7969,1.7976,1.8676,1.9104,1.8561,1.9661,2.0597,0.0,0.0,0.0,0.0,0.0,0.0,0.0,0.0,1.5827,1.5092,0.0,1.3806,0.0,0.0,0.0,0.0,0.0,1.4768,0.0,0.0,2.1632,2.2909,2.295,2.2962,2.297,2.2927,2.2032,2.1569,2.1274,1.5836,0.0,0.0,0.0,0.0,0.0,0.0,1.7873,2.1512,2.2455,2.328,2.4146,2.4904,2.5233,2.5084,2.4059,2.2768,2.1154,2.0208,1.8961,1.733,1.5784,0.0,0.0,0.0,0.0,0.0,0.0,0.0,0.0,0.0,0.0,0.0,0.0,0.0,0.0,0.0,0.0,0.0,0.0,0.0,0.0,1.2096,0.0,0.0,0.0,0.0,0.0,0.0,0.0,0.0,0.0,0.0,1.6872,1.854,2.0285,2.1499,0.0,0.0,0.0,0.0,2.3332,2.3332,2.3332,2.3332,2.3342,2.3302,2.3286,2.3307,0.0,0.0,2.2465,2.2366,2.2372,2.2357,2.2428,2.2366,2.2295,2.1627,2.1211,2.1211,2.1227,2.1262,2.1139,2.1518,2.2157,1.8193,0.0,0.0,0.0,0.0,1.6203,1.7616,1.9971,1.9967,1.9729,1.9286,1.8432,0.0,0.0,0.0,0.0,0.0,0.0,1.8938,2.0599,2.2177,2.3527,2.4666,2.469,2.4679,2.4649,2.3786,2.3373,2.3287,2.1044,1.8421,1.5548,0.0,0.0,0.0,0.0,1.9887,2.234,2.3308,2.4122,2.4945,2.5102,2.5097,2.4949,2.4106,2.3397,2.2864,2.1428,2.0436,1.9937,1.7777,0.0,0.0,0.0,0.0,0.0,0.0,0.0,0.0,0.0,0.0,0.0,0.0,0.0,0.0,0.0,0.0,0.0,0.0,0.0,1.0635,1.3973,1.5765,0.0,0.0,0.0,0.0,0.0,0.0,0.0,0.0,0.0,2.1112,2.206,2.2725,0.0,0.0,2.3707,2.3733,2.3887,2.401,2.3999,2.4025,0.0,0.0,2.362,2.3456,2.3948,2.4025,2.3948,2.3763,2.3733,2.3733,2.3733,2.3717,2.3722,2.3671,2.2788,2.2064,2.2043,2.2388,2.2643,2.2509,2.297,2.3374,2.139,1.8945,1.7625,1.8123,1.9751,1.9744,2.1052,2.3224,2.3209,2.3008,2.2633,2.1931,2.095,1.9776,1.8692,0.0,0.0,0.0,2.1198,2.2829,2.3544,2.4416,2.5356,2.5384,2.5389,2.53,2.4485,2.4266,2.4567,2.3744,2.2159,1.991,0.0,0.0,1.9441,2.0075,2.1521,2.3667,2.3997,2.449,2.5267,2.5228,2.5143,2.5046,2.4533,2.4087,2.3732,2.2656,2.1762,2.107,1.9659,1.8125,0.0,0.0,0.0,0.0,0.0,0.0,0.0,0.0,0.0,0.0,0.0,0.7522,0.0,0.0,0.0,0.0,1.1743,1.2903,1.4396,1.6572,0.0,0.0,0.0,0.0,0.0,0.0,0.0,1.9604,2.1301,2.265,2.3235,2.3806,2.41,2.3853,2.4092,2.4281,2.4281,0.0,2.4281,2.4281,2.4281,2.4281,2.4292,2.3969,2.383,2.4225,2.4281,2.4281,2.4281,2.4281,2.4281,2.4281,2.4281,2.4281,2.4281,2.3625,2.3096,2.3111,2.3395,2.3575,2.3416,2.3698,2.385,2.403,2.3167,2.1566,2.1779,2.316,2.3119,2.3988,2.5491,2.5503,2.5045,2.4312,2.4292,2.3452,2.1964,2.1171,0.0,2.1494,2.2608,2.3908,2.5378,2.5393,2.5395,2.5396,2.5391,2.5358,2.5288,2.456,2.4574,2.5231,2.4555,2.4194,2.4165,2.2601,2.2145,2.2733,2.2124,2.2925,2.5154,2.4526,2.4546,2.5286,2.5305,2.5303,2.53,2.5174,2.4769,2.4036,2.3879,2.307,2.1522,2.151,2.0419,1.7942,0.0,0.0,0.0,0.0,0.0,0.0,0.0,0.0,0.0,0.0,0.0,0.0,0.0,0.0,0.0,1.6687,0.0,1.9207,1.9401,0.0,0.0,0.0,1.8954,1.8143,2.0424,2.1639,2.0643,0.0,0.0,2.3756,2.421,2.4569,2.4579,2.4416,2.4281,2.4281,2.4281,2.4281,2.4281,2.4281,2.4281,2.4281,2.4261,2.4261,2.4292,2.4281,2.4281,2.4281,2.4281,2.4281,2.4281,2.4281,2.4281,2.4281,2.4246,2.4292,2.422,2.4204,2.414,2.3947,2.3867,2.376,2.5258,2.5039,2.452,2.4155,2.3933,2.3922,2.451,2.5497,2.5517,2.5393,2.52,2.5198,2.4969,2.4571,2.4377,2.4356,2.4472,2.4705,2.5009,2.5374,2.5348,2.5325,2.5317,2.532,2.5315,2.5288,2.5099,2.512,2.5288,2.5099,2.5024,2.4981,2.4596,2.3868,2.2876,2.3851,2.4387,2.4396,2.4793,2.5108,2.5283,2.5295,2.5298,2.5297,2.5273,2.5157,2.497,2.4881,2.4863,2.4861,2.3702,2.2932,2.2755,1.9609,0.0,0.0,0.0,0.0,0.0,0.0,0.0,0.0,0.0,1.2399,1.1857,0.0,1.4628,0.0,1.8796,1.9633,1.9327,2.036,0.0,0.0,2.1649,2.1874,2.2733,2.252,2.2614,2.3399,2.3699,2.3978,2.4308,2.4374,2.4364,2.4364,2.4338,2.4281,2.4281,2.4281,2.4281,2.4281,2.4302,2.4281,2.4302,2.4281,2.4281,2.4281,2.4281,2.4281,2.4281,2.4281,2.4281,2.4281,2.4281,2.4281,2.4292,2.4281,2.4286,2.4239,2.4197,2.4135,2.3893,2.3844,2.376,2.5688,2.5684,2.5592,2.5267,2.483,2.4781,2.5066,2.5509,2.5509,2.5509,2.5509,2.5509,2.5509,2.5509,2.5509,2.5509,2.5486,2.5427,2.5391,2.5387,2.5332,2.5308,2.5308,2.5308,2.5308,2.5308,2.5308,2.5308,2.5308,2.5308,2.5308,2.5308,2.5308,2.4846,2.4002,2.4846,2.5058,2.4661,2.5067,2.5302,2.5309,2.5273,2.5448,2.5871,2.5846,2.6032,2.6445,2.6328,2.6047,2.5582,2.4975,2.4253,2.3382,2.1626,2.0424,0.0,0.0,0.0,0.0,0.0,0.0,0.0,0.0,0.0,0.0,0.0,1.7227,1.9023,2.1158,2.2128,2.1339,2.2343,2.3172,2.344,2.3323,2.3474,2.4069,2.3762,2.367,2.4131,2.4243,2.4312,2.4451,2.4374,2.4281,2.4281,2.4281,2.4281,2.4281,2.4281,2.4281,2.4292,2.4451,2.4574,2.4574,2.44,2.4281,2.4281,2.4281,2.4281,2.4281,2.4281,2.4281,2.4302,2.4431,2.4492,2.4343,2.4462,2.4549,2.44,2.4239,2.4035,2.385,2.3739,2.3696,2.5688,2.5705,2.5617,2.5601,2.5614,2.5527,2.5513,2.552,2.5511,2.5517,2.5509,2.5509,2.5509,2.5509,2.5509,2.5546,2.5638,2.558,2.562,2.571,2.5659,2.5635,2.5635,2.5635,2.5594,2.5459,2.5481,2.5401,2.5308,2.5308,2.5308,2.5308,2.5308,2.5308,2.5308,2.5308,2.5308,2.5308,2.5307,2.5292,2.5309,2.5345,2.5746,2.6535,2.6603,2.7044,2.7964,2.781,2.7008,2.5603,2.6049,2.5249,2.2856,2.329,2.2797,0.0,1.8837,0.0,0.0,0.0,0.0,0.0,0.0,0.0,0.0,1.9091,2.0268,2.0791,2.3364,2.4721,2.4057,2.4606,2.4925,2.4685,2.4654,2.4477,2.4132,2.4591,2.4766,2.4169,2.4687,2.4885,2.4477,2.4343,2.4281,2.4281,2.4281,2.4281,2.4281,2.4281,2.4281,2.4292,2.4578,2.4714,2.4719,2.4502,2.4281,2.4281,2.4281,2.4312,2.4395,2.439,2.4416,2.4482,2.4754,2.4869,2.4513,2.4709,2.4799,2.4614,2.4342,2.4108,2.3912,2.3713,2.3635,2.5688,2.5704,2.5637,2.5601,2.5597,2.5515,2.5533,2.5571,2.5526,2.551,2.5511,2.5509,2.5509,2.5509,2.5509,2.5847,2.6466,2.6463,2.6802,2.7434,2.7406,2.7412,2.7412,2.7431,2.7041,2.6368,2.6365,2.6003,2.5308,2.5308,2.5308,2.5308,2.5308,2.5308,2.5308,0.0,0.0,0.0,2.5303,2.5307,2.5328,2.5932,2.634,2.6515,2.7026,0.0,2.8493,2.8362,2.8336,2.8539,2.8076,0.0,0.0,0.0,0.0,0.0,0.0,0.0,0.0,0.0,0.0,0.0,2.1085,2.1062,2.0828,2.2687,2.3715,2.3243,2.4252,2.5099,2.5523,2.5636,2.5788,2.5984,2.5982,2.5896,2.5809,2.5573,2.5447,2.5664,2.5249,2.4918,2.4754,2.4513,2.4307,2.4281,2.4281,2.4281,2.4312,2.4302,2.4292,2.4302,2.4421,2.4421,2.4426,2.4374,2.4307,2.4281,2.4281,2.4421,2.4694,2.4784,2.4912,2.5202,2.5332,2.5387,2.5279,2.503,2.4894,2.4655,2.4653,2.4548,2.4273,2.3893,2.3759,2.6344,0.0,2.6297,2.6033,0.0,2.5608,2.5601,2.5598,2.5534,2.5508,2.5509,2.5509,2.5716,2.6092,2.6092,2.6541,2.7286,2.7287,2.7499,2.7886,2.7903,2.789,2.789,2.789,2.745,2.6621,2.7024,2.6794,2.6003,2.6368,2.6579,2.6579,2.6579,2.6529,2.6438,2.6352,2.6142,2.5789,2.5797,2.5929,2.6243,2.6638,2.7024,2.742,0.0,0.0,0.0,0.0,0.0,0.0,0.0,0.0,0.0,0.0,0.0,2.4803,2.4206,2.3426,2.2526,2.4403,2.4972,2.3529,2.4005,2.406,2.335,2.4688,2.5355,2.4957,2.5563,2.611,2.6391,2.6421,2.6443,2.6539,2.6521,2.6427,2.6209,2.5953,2.5716,2.5503,2.5166,2.4839,2.4609,2.4457,2.4302,2.4281,2.4292,2.4385,2.4533,2.4426,2.4416,2.4799,2.4513,2.4436,2.4769,2.4513,2.4385,2.4533,2.4604,2.4759,2.5112,2.5198,2.5388,2.5904,2.6199,2.6318,2.63,2.6174,2.6099,2.5993,2.5791,2.5674,2.5584,2.5077,2.4687,2.7226,2.7226,2.7226,2.6811,2.6132,2.614,2.6076,2.5989,0.0,0.0,0.0,2.5926,2.6301,2.6897,2.6919,2.7344,2.8109,2.813,2.8194,2.834,2.8321,2.8335,2.8352,2.8335,2.7893,2.7101,2.7758,2.7662,2.6871,2.7563,2.789,2.789,2.7874,2.7744,2.7549,2.7369,2.7082,2.665,2.6509,2.6692,2.7175,2.7326,2.7727,2.8366,2.845,2.8825,2.9602,2.9435,2.9016,2.8397,2.822,2.7835,2.7148,2.6977,2.6875,2.6783,2.6394,2.6087,2.5894,2.6306,2.623,2.5466,2.5963,2.5981,2.5264,2.5877,2.6285,2.6183,2.6726,2.7039,2.6917,2.6867,2.6784,2.6607,2.659,2.6453,2.6157,2.6025,2.5744,2.5208,2.5014,2.4789,2.4482,2.4354,2.4359,2.4395,2.4431,2.4563,2.4853,2.4689,2.4604,2.4981,2.4634,2.4533,2.4981,2.4749,2.4451,2.4679,2.4939,2.5234,2.5583,2.5876,2.6271,2.6978,2.7229,2.7332,2.7388,2.7313,2.7446,2.7474,2.712,2.6862,2.7064,2.6708,2.6169,2.8125,2.8123,2.8052,2.796,2.7846,2.7716,2.7644,2.7537,2.6884,2.6961,2.7547,2.7616,2.7686,2.7733,2.7733,2.8183,2.8994,2.9011,2.9396,0.0,3.0058,3.0058,3.0041,3.0058,2.9599,2.88,2.8874,2.8508,2.7816,2.7854,2.789,2.7896,2.7735,2.7555,2.7361,2.7268,2.746,2.7904,2.7364,2.712,2.7208,2.7871,2.8272,2.8414,2.8885,2.9196,2.9341,2.9171,2.9019,2.8896,2.8862,2.8802,2.8668,2.8018,2.7638,2.7609,2.7352,2.6876,2.6241,2.7039,2.7408,2.7026,2.7083,2.6799,2.6042,2.6661,2.7086,2.6964,2.6971,2.6975,2.6909,2.68,2.6598,2.6272,2.6201,2.6166,2.6122,2.5844,2.5726,2.5844,2.5313,2.4912,2.4819,2.4553,2.4492,2.4729,2.4853,2.4971,2.5218,2.5079,2.4714,2.4533,2.4395,2.4338,2.4553,2.4436,2.441,2.4364,2.5282,2.6013,2.6464,2.7232,2.7931,2.8526,2.8272,2.8183,2.8416,2.7741,2.7584,2.7821,2.7865,2.7917,2.7993,2.8187,2.8035,2.8959,2.8899,2.891,2.8591,2.8082,2.7987,2.8205,2.8569,2.824,2.8006,2.7887,2.7935,2.8179,2.858,2.8597,2.9066,2.9847,2.985,3.0053,3.0382,3.0404,3.0404,3.0404,3.0404,2.9942,2.9165,2.9602,2.9371,2.8662,2.9006,2.9193,2.9031,2.8719,2.8313,2.7853,2.8082,2.8165,2.8024,2.7797,2.7881,2.8242,2.8585,2.877,2.8729,2.8989,2.9138,2.9138,2.905,2.8987,2.8987,2.8987,2.8987,2.8987,2.8656,2.8442,2.8442,2.8345,2.8052,2.7526,2.7642,2.758,2.7214,2.7249,2.7104,2.664,2.6971,2.7145,2.6998,2.6958,2.69,2.68,2.6725,2.6615,2.6453,2.6427,2.6427,2.6402,2.6297,2.6141,2.6078,2.579,2.5458,2.5246,2.5069,2.4991,2.5218,2.5389,2.5566,2.5512,2.5342,2.515,2.4962,2.4614,2.4446,2.4574,2.4619,2.487,2.5422,2.6155,2.6928,2.7592,2.8362,2.8786,2.9259,2.9134,2.9039,2.9179,2.8932,2.8721,2.8591,2.8877,2.9002,2.9066,2.91,2.8782,2.9785,2.9701,2.973,2.9264,2.8537,2.8483,2.884,2.9465,2.947,2.9087,2.852,2.847,2.8845,2.9443,2.9459,2.9811,3.0346,3.0404,3.0404,3.0404,3.0404,3.0404,3.0404,3.0404,3.0038,2.9525,3.0099,3.0027,2.9487,2.9991,3.0166,2.9858,2.9579,2.9081,2.8415,2.8873,2.8784,2.8208,2.826,2.8556,2.906,2.9067,2.9062,2.9011,2.8987,2.8987,2.8987,2.8987,2.8987,2.8987,2.8987,2.8987,2.8987,2.8987,2.8987,2.8987,2.8987,2.8852,2.8495,2.8048,2.7572,2.7133,2.7185,2.7162,2.7016,2.7023,2.7015,2.6909,2.6884,2.6851,2.6733,2.67,2.6708,2.6708,2.6708,2.6674,2.6708,2.6632,2.6462,2.6141,2.6041,2.5808,2.5587,2.5519,2.5521,2.5652,2.5899,2.5933,2.567,2.5474,2.5288,2.517,2.4709,2.4395,2.4659,2.4659,2.5107,2.6212,2.6857,2.7583,2.8462,2.9013,2.9417,2.9877,2.9829,2.9753,2.9708,2.974,2.974,2.9576,2.9729,2.9913,2.9886,2.9684,2.9382,3.0573,3.0549,3.0441,3.0318,3.0133,3.013,3.016,3.0256,3.0278,3.0256,3.0069,3.0153,3.0166,3.0275,3.0272,3.0311,3.0404,3.0404,3.0404,3.0404,3.0404,3.0404,3.0404,3.0404,3.0362,3.025,3.0365,3.025,2.9948,2.9988,2.9834,2.9495,2.9471,2.9324,2.9038,2.9069,2.9019,2.8888,2.89,2.8955,2.8998,2.9011,2.8987,2.8987,2.8987,2.8987,2.8987,2.8987,2.8987,2.8987,2.8987,2.8987,2.8987,2.8987,2.8987,2.8987,2.8999,2.8749,2.821,2.8044,2.772,2.7173,2.7072,2.7016,2.6909,2.69,2.69,2.6876,2.6876,2.6825,2.6733,2.6708,2.6708,2.6708,2.6708,2.6708,2.6657,2.6375,2.6132,2.6105,2.5881,2.5549,2.5615,2.5605,2.5689,2.5935,2.5997,2.5961,2.5771,2.5218,2.4768,2.4684,2.438,2.4213,2.4209,2.4094,2.4808,2.5763,2.6753,2.7865,2.8949,2.9969,3.0717,3.0356,3.029,3.012,3.0191,3.0247,2.9968,3.0092,3.0236,3.0395,3.0426,3.0315,3.0135,3.0646,3.0578,3.0524,3.0467,3.0393,3.0404,3.0404,3.0404,3.0404,3.0404,3.0407,3.0399,3.0396,3.0404,3.0404,3.0404,3.0404,3.0404,3.0404,3.0404,3.0404,3.0404,3.0404,3.0404,3.0404,3.0401,3.0367,3.0235,3.0029,2.9767,2.9566,2.9387,2.9272,2.9154,2.9051,2.9045,2.9028,2.8987,2.8987,2.8987,2.8987,2.8987,2.8987,2.8987,2.8987,2.8987,2.8987,2.8987,2.8987,2.8987,2.8987,2.8987,2.8987,2.8987,2.8987,2.8994,2.8852,2.8582,2.8136,2.7926,2.7595,2.7071,2.7055,2.699,2.6792,2.6851,2.6867,2.6792,2.6784,2.675,2.6716,2.6708,2.6708,2.6708,2.6708,2.6708,2.6708,2.6564,2.6462,2.6428,2.6306,2.6201,2.621,2.621,2.6157,2.6104,2.5997,2.5861,2.5542,2.4985,2.4618,2.4476,2.4374,2.4354,2.4333,2.4584,2.5352,2.6702,2.7692,2.8579,2.972,3.0337,3.0753,3.0698,3.0447,3.0209,3.0075,3.0273,3.0241,3.0332,3.0384,3.0489,3.0489,3.0489,3.0384,3.0609,3.0489,3.0479,3.0449,3.0404,3.0404,3.0404,3.0404,3.0404,3.0404,3.0404,3.0404,3.0404,3.0404,3.0404,3.0404,3.0404,3.0404,3.0404,3.0404,3.0404,3.0404,3.0404,3.0404,3.0382,3.0348,3.0254,3.0082,2.9833,2.9594,2.9387,2.9273,2.913,2.9022,2.8987,2.8987,2.8987,2.8987,2.8987,2.8987,2.8987,2.8987,2.8987,2.8987,2.8987,2.8987,2.8987,2.8987,2.8987,2.8987,2.8987,2.8987,2.8987,2.8987,2.8987,2.8988,2.8749,2.8443,2.8095,2.779,2.7413,2.704,2.699,2.6924,2.6775,2.6792,2.6792,2.6725,2.6708,2.6716,2.6708,2.6708,2.6708,2.6708,2.6708,2.6708,2.6708,2.6708,2.67,2.6708,2.6641,2.6708,2.6666,2.653,2.6314,2.6059,2.5726,2.5458,2.5021,2.4602,2.4297,2.4359,2.4374,2.4338,2.439,2.4719,2.59,2.7178,2.8056,2.8797,3.0244,3.0574,3.064,3.0589,3.051,3.0447,3.0284,3.0347,3.0426,3.0188,3.0252,3.0489,3.0489,3.0489,3.0489,3.0576,3.0495,3.0436,3.039,3.0404,3.0404,3.0404,3.0404,3.0404,3.0404,3.0404,3.0404,3.0404,3.0404,3.0404,3.0404,3.0404,3.0404,3.0404,3.0404,3.0404,3.0404,3.0404,3.0404,3.0351,3.0286,3.0114,2.9833,2.9478,2.9472,2.933,2.9045,2.9074,2.9044,2.8998,2.8987,2.8987,2.8987,2.8987,2.8987,2.8987,2.8987,2.8987,2.8987,2.8987,2.8987,2.8987,2.8987,2.8987,2.8987,2.8987,2.8987,2.8987,2.8987,2.8999,2.897,2.8731,2.8411,2.801,2.7612,2.7258,2.6941,2.6808,2.6716,2.6708,2.6725,2.6725,2.6708,2.6708,2.6708,2.6708,2.6708,2.6708,2.6708,2.6708,2.6708,2.6708,2.6708,2.6708,2.6708,2.6708,2.67,2.6683,2.6289,2.6085,2.5788,2.5134,2.4496,2.4404,2.4016,2.3958,2.4172,2.4266,2.4177,2.3867,2.4527,2.5619,2.6866,2.7882,2.84,2.9585,3.0489,3.0499,3.0516,3.0489,3.0479,3.0468,3.0468,3.0468,3.0395,3.0384,3.0489,3.0489,3.0489,3.0489,3.0456,3.0425,3.0408,3.0404,3.0404,3.0404,3.0404,3.0404,3.0404,3.0404,3.0404,3.0404,3.0404,3.0404,3.0404,3.0404,3.0404,3.0404,3.0404,3.0404,3.0404,3.0404,3.0404,3.0401,3.0279,3.0114,3.0029,2.9778,2.9355,2.9241,2.9128,2.9034,2.9028,2.9022,2.9005,2.8987,2.8987,2.8987,2.8987,2.8987,2.8987,2.8987,2.8987,2.8987,2.8987,2.8987,2.8987,2.8987,2.8987,2.8987,2.8987,2.8987,2.8987,2.8987,2.8917,2.8743,2.8456,2.8127,2.7771,2.7396,2.7117,2.6925,2.6851,2.6767,2.6725,2.6708,2.6708,2.6708,2.6708,2.6708,2.6708,2.6708,2.6708,2.6708,2.6708,2.6708,2.6708,2.6708,2.6708,2.6708,2.6708,2.6674,2.6521,2.6261,2.5843,2.5399,2.4802,2.4307,2.4016,2.3941,2.3994,2.3979,2.4313,2.4553,2.411,2.4758,2.5715,2.6847,2.7823,2.8524,2.9529,3.029,3.0466,3.0499,3.0489,3.0489,3.0479,3.0479,3.0489,3.0489,3.0489,3.0489,3.0489,3.0489,3.0489,3.0402,3.0404,3.0404,3.0404,3.0404,3.0404,3.0404,3.0404,3.0404,3.0404,3.0404,3.0404,3.0404,3.0404,3.0404,3.0404,3.0404,3.0404,3.0404,3.0404,3.0404,3.0404,3.0376,3.0343,3.0192,3.0011,2.99,2.9629,2.9241,2.9132,2.9067,2.8987,2.8987,2.8987,2.8987,2.8987,2.8987,2.8987,2.8987,2.8987,2.8987,2.8987,2.8987,2.8987,2.8987,2.8987,2.8987,2.8987,2.8987,2.8987,2.8987,2.8987,2.8999,2.8935,2.8785,2.8589,2.8195,2.7855,2.7557,2.7254,2.7006,2.685,2.6842,2.6792,2.67,2.6708,2.6708,2.6708,2.6708,2.6708,2.6708,2.6708,2.6708,2.6708,2.6708,2.6708,2.6708,2.6708,2.6598,2.647,2.6436,2.6358,2.6138,2.5735,2.5297,2.4857,2.4415,2.398,2.3756,2.3835,2.4141,2.4069,2.4532,2.4908,2.4964,2.5469,2.5813,2.6797,2.7762,2.8526,2.9234,2.9953,3.0423,3.0456,3.0489,3.0489,3.0489,3.0489,3.0489,3.0489,3.0489,3.0489,3.0489,3.0489,3.0489,3.0404,3.0404,3.0404,3.0404,3.0404,3.0404,3.0404,3.0404,3.0404,3.0404,3.0404,3.0404,3.0404,3.0404,3.0404,3.0404,3.0401,3.037,3.0364,3.0383,3.0358,3.0355,3.0343,3.0179,3.0055,2.992,2.9706,2.939,2.9062,2.9147,2.9165,2.9021,2.8987,2.8987,2.8987,2.8987,2.8987,2.8987,2.8987,2.8987,2.8987,2.8987,2.8987,2.8987,2.8987,2.8987,2.8987,2.8987,2.8987,2.8987,2.8987,2.8987,2.8934,2.8761,2.8613,2.8468,2.802,2.7639,2.7413,2.7151,2.6925,2.6767,2.6708,2.6725,2.67,2.6708,2.6708,2.6708,2.6708,2.6708,2.6708,2.6708,2.6708,2.6708,2.6708,2.6708,2.67,2.67,2.6539,2.6191,2.6094,2.5781,2.5307,2.4914,2.4576,2.441,2.4022,2.3677,2.3638,2.3739,2.4053,2.4542,2.4833,2.5007,2.5605,2.6199,2.6325,2.6663,2.7568,2.8409,2.9019,2.9688,3.0234,3.0373,3.0489,3.0489,3.0489,3.0489,3.0489,3.0489,3.0489,3.0489,3.0489,3.0489,3.0489,3.0404,3.0404,3.0404,3.0404,3.0404,3.0404,3.0404,3.0404,3.0404,3.0404,3.0404,3.0404,3.0404,3.0404,3.0404,3.0401,3.0376,3.026,3.0196,3.0176,3.0096,3.0075,3.0045,2.9977,2.9823,2.9574,2.9319,2.9127,2.9033,2.9067,2.9055,2.8998,2.8987,2.8987,2.8987,2.8987,2.8987,2.8987,2.8987,2.8987,2.8987,2.8987,2.8987,2.8987,2.8987,2.8987,2.8987,2.8987,2.8987,2.8987,2.8987,2.8917,2.8743,2.8657,2.8398,2.802,2.7822,2.7514,2.7184,2.7056,2.69,2.6758,2.6708,2.6708,2.6708,2.6708,2.6708,2.6708,2.6708,2.6708,2.6708,2.6708,2.6708,2.6708,2.6708,2.6691,2.6649,2.6598,2.6512,2.6347,2.6066,2.5769,2.5462,2.4881,2.4338,2.4271,2.3909,2.3595,2.3627,2.3835,2.4114,2.4462,2.4729,2.5075,2.5579,2.591,2.6052,2.6435,2.7253,2.7954,2.8615,2.939,2.992,3.0323,3.0439,3.0489,3.0489,3.0489,3.0489,3.0489,3.0489,3.0489,3.0489,3.0489,3.0489,3.0404,3.0404,3.0404,3.0404,3.0404,3.0404,3.0404,3.0404,3.0404,3.0404,3.0404,3.0404,3.0404,3.0392,3.0314,3.0276,3.0276,3.0037,2.9916,2.992,2.9934,2.9902,2.9878,2.9744,2.9579,2.9319,2.9088,2.8987,2.8987,2.8987,2.8987,2.8987,2.8987,2.8987,2.8987,2.8987,2.8987,2.8987,2.8987,2.8987,2.8987,2.8987,2.8987,2.8987,2.8987,2.8987,2.8987,2.8987,2.8987,2.8987,2.8987,2.8857,2.862,2.8493,2.8188,2.7793,2.7544,2.7332,2.704,2.6983,2.6892,2.675,2.6708,2.6708,2.6708,2.6708,2.6708,2.6708,2.6708,2.6708,2.6708,2.6708,2.6708,2.6708,2.6674,2.6649,2.6563,2.652,2.625,2.5984,2.5649,2.5351,2.4887,2.4557,2.4085,2.3994,2.3792,2.3584,2.3649,2.382,2.4036,2.4224,2.4472,2.4899,2.5406,2.5612,2.5731,2.6257,2.6897,2.7431,2.7978,2.8986,2.9721,3.0241,3.0489,3.0489,3.0489,3.0489,3.0489,3.0489,3.0489,3.0489,3.0489,3.0489,3.0489,3.0404,3.0404,3.0404,3.0404,3.0404,3.0404,3.0404,3.0404,3.0404,3.0404,3.0404,3.0404,3.0404,3.0358,3.0228,3.0129,3.004,2.9801,2.9644,2.9671,2.9756,2.9815,2.9792,2.9514,2.9319,2.9151,2.9033,2.8987,2.8987,2.8987,2.8987,2.8987,2.8987,2.8987,2.8987,2.8987,2.8987,2.8987,2.8987,2.8987,2.8987,2.8987,2.8987,2.8987,2.8987,2.8987,2.8987,2.8987,2.8987,2.8987,2.8958,2.8803,2.8563,2.8262,2.7954,2.7649,2.7315,2.7135,2.7007,2.695,2.6851,2.6708,2.6708,2.6708,2.6708,2.6708,2.6708,2.6708,2.6708,2.6708,2.6708,2.6708,2.67,2.6683,2.6623,2.6563,2.6451,2.6416,2.6073,2.5332,2.4969,2.4718,2.4042,2.3799,2.3681,2.3664,2.3627,2.3606,2.3595,2.3724,2.3867,2.4099,2.4416,2.4853,2.5399,2.5765,2.5874,2.6114,2.6667,2.7033,2.7639,2.8664,2.9655,3.0158,3.0489,3.0489,3.0489,3.0489,3.0489,3.0489,3.0489,3.0489,3.0489,3.0489,3.0489,3.0404,3.0404,3.0404,3.0404,3.0404,3.0404,3.0404,3.0404,3.0404,3.0404,3.0401,3.0404,3.0395,3.0367,3.0186,3.0086,2.9992,2.9726,2.9561,2.9528,2.9522,2.9506,2.9446,2.9283,2.9154,2.9084,2.9015,2.8987,2.8987,2.8987,2.8987,2.8987,2.8987,2.8987,2.8987,2.8987,2.8987,2.8987,2.8987,2.8987,2.8987,2.8987,2.8987,2.8987,2.8987,2.8987,2.8987,2.8987,2.8987,2.8975,2.881,2.857,2.8255,2.7975,2.7716,2.745,2.7247,2.7079,2.7007,2.6942,2.6842,2.6725,2.6708,2.6708,2.6708,2.6708,2.6708,2.6708,2.6708,2.6708,2.6708,2.6708,2.6657,2.6572,2.6512,2.6355,2.6108,2.6106,2.5927,2.5118,2.4942,2.4609,2.4168,2.3792,2.3595,2.3584,2.3584,2.3584,2.3584,2.3606,2.376,2.4204,2.4563,2.4981,2.5406,2.5809,2.6043,2.6139,2.6426,2.6709,2.7505,2.8548,2.9506,3.0307,3.0456,3.0489,3.0489,3.0489,3.0489,3.0437,3.0416,3.0395,3.0458,3.0489,3.0489,3.0404,3.0404,3.0404,3.0404,3.0404,3.0404,3.0404,3.0404,3.0404,3.0404,3.0395,3.0289,3.0289,3.0244,2.9992,2.988,2.9823,2.9598,2.9444,2.936,2.9312,2.9278,2.924,2.9152,2.9091,2.9062,2.9022,2.8987,2.8987,2.8987,2.8987,2.8987,2.8987,2.8987,2.8987,2.8987,2.8987,2.8987,2.8987,2.8987,2.8987,2.8987,2.8987,2.8987,2.8987,2.8987,2.8981,2.8893,2.884,2.8791,2.8675,2.8404,2.7982,2.7775,2.7569,2.7321,2.7136,2.7048,2.6991,2.6875,2.6767,2.6725,2.6708,2.6708,2.6708,2.6708,2.6708,2.6708,2.6708,2.6708,2.6708,2.6683,2.6632,2.6537,2.6329,2.6117,2.5892,2.5901,2.5598,2.5095,2.4739,2.4477,2.4068,2.3756,2.3638,2.3584,2.3584,2.3584,2.3595,2.3606,2.367,2.4042,2.4395,2.4709,2.5059,2.5441,2.5855,2.6007,2.6252,2.6518,2.7455,2.8449,2.9301,3.0052,3.0307,3.0489,3.0479,3.0437,3.0321,3.0289,3.0289,3.03,3.0342,3.0284,3.0305,3.0404,3.0404,3.0404,3.0404,3.0404,3.0404,3.0404,3.0404,3.0404,3.0373,3.0317,3.0179,3.0115,3.0051,2.9805,2.9584,2.95,2.9407,2.9291,2.9216,2.9145,2.9117,2.9191,2.9119,2.9057,2.9017,2.8987,2.8987,2.8987,2.8987,2.8987,2.8987,2.8987,2.8987,2.8987,2.8987,2.8987,2.8987,2.8987,2.8987,2.8987,2.8987,2.8987,2.8987,2.8987,2.8952,2.8887,2.8743,2.8582,2.8482,2.8488,2.8199,2.7742,2.7701,2.7532,2.7296,2.7105,2.7016,2.6966,2.6808,2.67,2.6708,2.6708,2.6708,2.6708,2.6708,2.6708,2.6708,2.6708,2.6708,2.6708,2.664,2.6615,2.6529,2.6118,2.5999,2.5963,2.5712,2.5275,2.4853,2.4451,2.412,2.3767,2.3584,2.3584,2.3584,2.3584,2.3584,2.3584,2.3595,2.3595,2.3692,2.4005,2.4312,2.4659,2.503,2.5443,2.5784,2.6079,2.6509,2.7455,2.8383,2.9118,2.9721,3.0152,3.0406,3.0495,3.0384,3.0194,3.0027,2.9962,3.0049,3.0124,2.9979,2.9935,3.0404,3.0404,3.0404,3.0404,3.0404,3.0404,3.0404,3.0404,3.0401,3.0289,3.0186,3.0115,3.0037,2.9934,2.9688,2.9566,2.948,2.9359,2.9262,2.9184,2.9061,2.9074,2.9108,2.9057,2.9022,2.8987,2.8987,2.8987,2.8987,2.8987,2.8987,2.8987,2.8987,2.8987,2.8987,2.8987,2.8987,2.8987,2.8987,2.8987,2.8987,2.8987,2.8987,2.8987,2.8975,2.8863,2.8718,2.862,2.8365,2.8027,2.7894,2.7829,2.7679,2.7503,2.7351,2.72,2.7089,2.6983,2.6917,2.6783,2.6708,2.6708,2.6708,2.6708,2.6708,2.6708,2.6708,2.6708,2.6708,2.6708,2.6708,2.6683,2.6615,2.6469,2.6303,2.603,2.5703,2.5301,2.4778,2.4235,2.4152,2.4125,2.3685,2.3595,2.3584,2.3584,2.3584,2.3584,2.3584,2.3584,2.3584,2.3595,2.3952,2.4261,2.4318,2.4724,2.5214,2.5575,2.5892,2.6234,2.7204,2.8028,2.8664,2.9383,3.0102,3.022,3.0137,3.0156,2.993,2.9788,2.9633,2.9633,2.9606,2.955,2.9579,3.0404,3.0404,3.0404,3.0404,3.0404,3.0404,3.0404,3.037,3.0279,3.0199,3.0065,2.9947,2.9815,2.9751,2.9556,2.9438,2.9348,2.9209,2.9141,2.9102,2.9015,2.9028,2.9045,2.9022,2.8987,2.8987,2.8987,2.8987,2.8987,2.8987,2.8987,2.8987,2.8987,2.8987,2.8987,2.8987,2.8987,2.8987,2.8987,2.8987,2.8987,2.8987,2.8987,2.8952,2.8887,2.8737,2.8614,2.8293,2.801,2.7742,2.7592,2.7526,2.7511,2.7392,2.7274,2.7193,2.7064,2.7008,2.6925,2.6792,2.6708,2.6708,2.6708,2.6708,2.6708,2.6708,2.6708,2.6708,2.6708,2.6708,2.6708,2.6657,2.6572,2.6296,2.6055,2.5666,2.5198,2.4962,2.4689,2.4094,2.3973,2.3856,2.3685,2.3606,2.3584,2.3584,2.3584,2.3584,2.3584,2.3584,2.3584,2.3681,2.4036,2.4229,2.4131,2.4446,2.5011,2.5377,2.5684,2.603,2.6605,2.737,2.8078,2.8797,2.9456,2.9566,2.9507,2.9561,2.9613,2.9449,2.928,2.9154,2.912,2.92,2.9246,3.037,3.0401,3.0364,3.0386,3.0404,3.0404,3.0404,3.0367,3.0189,3.0098,3.0026,2.9732,2.9612,2.9522,2.939,2.9262,2.9186,2.9078,2.9034,2.9022,2.8998,2.9011,2.9011,2.9005,2.8987,2.8987,2.8987,2.8987,2.8987,2.8987,2.8987,2.8987,2.8987,2.8987,2.8987,2.8987,2.8987,2.8987,2.8987,2.8987,2.8987,2.8981,2.8975,2.8851,2.8743,2.8532,2.8332,2.8014,2.7701,2.7627,2.7421,2.7338,2.7307,2.7274,2.7258,2.7226,2.7048,2.6958,2.6883,2.6783,2.6708,2.6708,2.6708,2.6708,2.6708,2.6708,2.6708,2.6708,2.6708,2.6708,2.6708,2.6666,2.6452,2.6112,2.561,2.5108,2.4724,2.4714,2.4528,2.4178,2.3841,2.367,2.3627,2.3584,2.3584,2.3584,2.3584,2.3584,2.3584,2.3584,2.3584,2.3595,2.3888,2.4198,2.4152,2.4183,2.4759,2.5098,2.5424,2.5705,2.6047,2.6572,2.7294,2.807,2.8596,2.8792,2.8959,2.9038,2.9032,2.8989,2.8807,2.8547,2.8618,2.883,2.883,3.0251,3.0392,3.0209,3.0248,3.0376,3.0404,3.0401,3.0383,3.0176,3.0037,2.9895,2.9712,2.9512,2.9399,2.9326,2.9224,2.913,2.9021,2.8987,2.8987,2.8987,2.8987,2.8987,2.8987,2.8987,2.8987,2.8987,2.8987,2.8987,2.8987,2.8987,2.8987,2.8987,2.8987,2.8987,2.8987,2.8987,2.8987,2.8987,2.8987,2.8987,2.8952,2.8858,2.8676,2.8544,2.8313,2.7964,2.7782,2.76,2.739,2.7321,2.7315,2.7291,2.7192,2.712,2.7064,2.6983,2.69,2.68,2.6733,2.67,2.6708,2.6708,2.6708,2.6708,2.6708,2.6708,2.6708,2.6708,2.6708,2.6708,2.6683,2.6452,2.611,2.5767,2.5301,2.4653,2.44,2.4266,2.3909,2.3692,2.3584,2.3584,2.3584,2.3584,2.3584,2.3584,2.3584,2.3584,2.3584,2.3584,2.3606,2.3649,2.3962,2.4198,2.4214,2.4472,2.4769,2.505,2.5208,2.5545,2.5853,2.6459,2.7238,2.7948,2.8397,2.8512,2.8495,2.8372,2.8245,2.8071,2.7889,2.8079,2.8247,2.8104,3.0103,3.0238,3.0136,3.0206,3.0389,3.0401,3.0346,3.0212,3.0059,2.9903,2.9742,2.9565,2.9426,2.9328,2.9256,2.9175,2.9074,2.9004,2.8987,2.8987,2.8987,2.8987,2.8987,2.8987,2.8987,2.8987,2.8987,2.8987,2.8987,2.8987,2.8987,2.8987,2.8987,2.8987,2.8987,2.8987,2.8987,2.8987,2.8987,2.8987,2.8964,2.8881,2.8639,2.8411,2.8219,2.7986,2.7771,2.7542,2.7444,2.7346,2.7315,2.7307,2.7267,2.7153,2.7038,2.7023,2.6941,2.6867,2.6783,2.675,2.6708,2.6708,2.6708,2.6708,2.6708,2.6708,2.6708,2.6708,2.6708,2.6708,2.6708,2.67,2.6375,2.5905,2.5668,2.5189,2.4558,2.4261,2.3988,2.3728,2.3664,2.3606,2.3584,2.3584,2.3584,2.3584,2.3584,2.3584,2.3584,2.3584,2.3584,2.3595,2.3606,2.3724,2.3984,2.4026,2.4131,2.4415,2.4629,2.4803,2.5043,2.5363,2.5785,2.6401,2.709,2.7756,2.7853,2.7769,2.7646,2.7552,2.7502,2.7485,2.7572,2.7597,2.7585,2.9923,3.0062,3.003,3.0105,3.028,3.0305,3.0208,3.0052,2.9914,2.9737,2.9584,2.9446,2.9349,2.9269,2.9186,2.9089,2.8987,2.8987,2.8987,2.8987,2.8987,2.8987,2.8987,2.8987,2.8987,2.8987,2.8987,2.8987,2.8987,2.8987,2.8987,2.8987,2.8987,2.8987,2.8987,2.8987,2.8987,2.8987,2.8987,2.8999,2.8875,2.8645,2.8359,2.8065,2.7822,2.7701,2.7577,2.7436,2.7362,2.7315,2.7307,2.7291,2.7234,2.7106,2.7032,2.7022,2.6916,2.6875,2.6825,2.6758,2.6708,2.6708,2.6708,2.6708,2.6708,2.6708,2.6708,2.6708,2.6708,2.6708,2.6683,2.6624,2.6219,2.5733,2.5389,2.5073,2.4462,2.4109,2.3978,2.3807,2.3707,2.3657,2.364,2.3584,2.3584,2.3584,2.3584,2.3584,2.3584,2.3584,2.3584,2.3584,2.3595,2.3595,2.3681,2.3713,2.3831,2.4042,2.4188,2.4297,2.4565,2.4864,2.5366,2.5877,2.6224,2.6809,2.692,2.702,2.6891,2.6849,2.6982,2.7087,2.7157,2.742,2.7585,2.9756,2.9891,2.9732,2.9767,2.9958,2.9996,2.9973,2.9906,2.9715,2.9575,2.9499,2.9367,2.924,2.9152,2.9068,2.9004,2.8987,2.8987,2.8987,2.8987,2.8987,2.8987,2.8987,2.8987,2.8987,2.8987,2.8987,2.8987,2.8987,2.8987,2.8987,2.8987,2.8987,2.8987,2.8987,2.8987,2.8987,2.8987,2.8981,2.8851,2.8607,2.8315,2.802,2.7797,2.7669,2.7577,2.7421,2.7321,2.7315,2.7307,2.7307,2.725,2.7127,2.7064,2.6966,2.69,2.6809,2.6733,2.6742,2.6708,2.6708,2.6708,2.6708,2.6708,2.6708,2.6708,2.6708,2.6708,2.6708,2.6708,2.6641,2.6393,2.598,2.5568,2.5186,2.4789,2.4276,2.4082,2.395,2.3945,2.3853,2.3773,2.374,2.3655,2.3584,2.3584,2.3599,2.3659,2.3793,2.3943,2.4003,2.4107,2.4092,2.4077,2.3883,2.3838,2.3758,2.3868,2.3846,2.3909,2.4139,2.4492,2.5044,2.5501,2.5756,2.5906,2.6096,2.6143,2.6081,2.6096,2.6132,2.6404,2.6681,2.7033,2.7435,2.958,2.9729,2.9621,2.9725,2.9894,2.9902,2.9836,2.9729,2.9603,2.9489,2.9397,2.9296,2.9178,2.9102,2.901,2.8987,2.8987,2.8987,2.8987,2.8987,2.8987,2.8987,2.8987,2.8987,2.8987,2.8987,2.8987,2.8987,2.8987,2.8987,2.8987,2.8987,2.8987,2.8987,2.8987,2.8987,2.8987,2.8952,2.884,2.8538,2.8179,2.7943,2.7742,2.7478,2.7481,2.7423,2.7354,2.7307,2.7307,2.7307,2.7307,2.7242,2.712,2.7031,2.6975,2.6892,2.6767,2.67,2.6716,2.6708,2.6708,2.6708,2.6708,2.6708,2.6708,2.6666,2.6666,2.6708,2.6708,2.6674,2.6598,2.6333,2.5944,2.5521,2.503,2.4655,2.4286,2.4119,2.3976,2.4001,2.404,2.3989,2.3935,2.3834,2.3943,2.4201,2.4302,2.4406,2.4631,2.4915,2.493,2.49,2.4825,2.4735,2.4455,2.4261,2.3988,2.397,2.3741,2.3795,2.3805,2.4141,2.4615,2.4878,2.5032,2.5166,2.5292,2.5271,2.522,2.5236,2.5259,2.5693,2.6138,2.6644,2.7033,2.9456,2.9551,2.9556,2.9649,2.9783,2.9783,2.9699,2.9561,2.9479,2.9397,2.927,2.9191,2.9124,2.9079,2.9022,2.8987,2.8987,2.8987,2.8987,2.8987,2.8987,2.8987,2.8987,2.8987,2.8987,2.8987,2.8987,2.8987,2.8987,2.8987,2.8987,2.8987,2.8987,2.8987,2.8987,2.8975,2.8958,2.8821,2.8513,2.8151,2.7818,2.7667,2.7503,2.7376,2.7315,2.7307,2.7307,2.7307,2.7307,2.7307,2.7307,2.7242,2.7087,2.7024,2.6933,2.6842,2.6725,2.67,2.6708,2.6708,2.6708,2.6674,2.6581,2.6487,2.6487,2.6505,2.6401,2.6314,2.6323,2.6341,2.6306,2.5998,2.5633,2.5246,2.4912,2.4574,2.4291,2.4098,2.395,2.3915,2.4025,2.4308,2.4204,2.4059,2.4242,2.4698,2.4963,2.5154,2.539,2.5648,2.557,2.5435,2.5349,2.5244,2.5064,2.4754,2.4451,2.4197,2.3984,2.3875,2.4024,2.3874,2.399,2.4188,2.4369,2.438,2.4483,2.4425,2.438,2.449,2.4676,2.5169,2.5644,2.6153,2.6749,2.9412,2.9422,2.9409,2.9429,2.945,2.9429,2.9434,2.9419,2.9352,2.927,2.9197,2.9096,2.9034,2.9017,2.9011,2.8987,2.8987,2.8987,2.8987,2.8987,2.8987,2.8987,2.8987,2.8987,2.8987,2.8987,2.8987,2.8987,2.8987,2.8987,2.8987,2.8987,2.8987,2.8987,2.8969,2.894,2.8767,2.8532,2.8124,2.7851,2.7619,2.7488,2.7362,2.7338,2.7307,2.7307,2.7307,2.7307,2.7307,2.7307,2.7307,2.7202,2.7056,2.7007,2.6925,2.6775,2.6716,2.6708,2.6708,2.6708,2.6708,2.6598,2.6445,2.628,2.6236,2.5835,2.5661,2.5744,2.5834,2.576,2.5577,2.5282,2.515,2.4991,2.4739,2.4416,2.4187,2.4067,2.3929,2.3844,2.3999,2.4331,2.4612,2.4496,2.49,2.5408,2.5797,2.6004,2.5899,2.6063,2.5929,2.5809,2.5764,2.5704,2.5618,2.5393,2.5229,2.4975,2.4706,2.4541,2.4466,2.4227,2.3913,2.3729,2.3928,2.3793,2.3759,2.3995,2.4083,2.3929,2.4107,2.4616,2.5199,2.5794,2.6452,2.9383,2.9383,2.9383,2.9383,2.9383,2.9383,2.9381,2.9334,2.9262,2.9175,2.9091,2.901,2.8987,2.8987,2.8987,2.8987,2.8987,2.8987,2.8987,2.8987,2.8987,2.8987,2.8987,2.8987,2.8987,2.8987,2.8987,2.8987,2.8987,2.8987,2.8987,2.8987,2.8975,2.8987,2.8964,2.8779,2.8493,2.8131,2.7822,2.7642,2.7434,2.7392,2.7307,2.7307,2.7307,2.7307,2.7307,2.7307,2.7307,2.7307,2.7307,2.7178,2.7024,2.7016,2.6892,2.6725,2.6716,2.6708,2.6708,2.6708,2.6708,2.6683,2.6539,2.6324,2.6043,2.589,2.5707,2.5633,2.5472,2.5406,2.5437,2.516,2.4922,2.4779,2.4553,2.4234,2.4071,2.3972,2.385,2.3754,2.4079,2.4462,2.4724,2.4963,2.5528,2.6108,2.6509,2.6779,2.6644,2.6584,2.6509,2.6479,2.6452,2.6345,2.6273,2.6168,2.6048,2.5767,2.5453,2.5202,2.4993,2.4575,2.4276,2.3928,2.3599,2.364,2.3719,2.3838,2.3853,2.3748,2.3838,2.4092,2.472,2.5393,2.5989,2.9391,2.9376,2.9352,2.937,2.937,2.9376,2.932,2.9262,2.9202,2.9106,2.8987,2.8987,2.8987,2.8987,2.8987,2.8987,2.8987,2.8987,2.8987,2.8987,2.8987,2.8987,2.8987,2.8987,2.8987,2.8987,2.8987,2.8987,2.8987,2.8987,2.8929,2.8905,2.8959,2.8946,2.8779,2.85,2.8099,2.7793,2.7592,2.7519,2.7305,2.7315,2.7307,2.7307,2.7307,2.7307,2.7307,2.7307,2.7307,2.7307,2.7291,2.7186,2.7081,2.6983,2.6883,2.6775,2.6708,2.6683,2.67,2.6708,2.6641,2.6487,2.6289,2.6052,2.5863,2.5661,2.5208,2.5112,2.5108,2.516,2.516,2.4829,2.4659,2.4543,2.4343,2.4082,2.3982,2.3882,2.376,2.3668,2.3999,2.4257,2.4765,2.5053,2.5633,2.6285,2.6896,2.7165,2.7213,2.7198,2.7258,2.727,2.73,2.7151,2.6986,2.6854,2.6734,2.6614,2.6258,2.5839,2.554,2.5094,2.4634,2.4246,2.3943,2.3689,2.3644,2.3733,2.3689,2.3614,2.3733,2.3883,2.441,2.5053,2.5364,2.9365,2.9307,2.9307,2.9307,2.9312,2.9307,2.9262,2.9207,2.9152,2.9067,2.9004,2.9017,2.9011,2.9011,2.8992,2.8987,2.8975,2.8964,2.8982,2.8994,2.8857,2.8934,2.8969,2.8964,2.894,2.8981,2.8946,2.8923,2.8952,2.8845,2.8767,2.8688,2.87,2.8725,2.8551,2.8034,2.7735,2.7657,2.7444,2.7345,2.7315,2.7307,2.7307,2.7307,2.7307,2.7307,2.7307,2.7307,2.7307,2.7307,2.7307,2.7194,2.7024,2.7008,2.6892,2.6716,2.6641,2.6641,2.6641,2.6657,2.6436,2.6139,2.5908,2.5577,2.5069,2.4729,2.4604,2.4659,2.4513,2.4441,2.4385,2.4374,2.4395,2.4323,2.414,2.3993,2.3919,2.3782,2.3674,2.3606,2.3665,2.3864,2.4526,2.5109,2.5674,2.6345,2.7121,2.7465,2.7525,2.7585,2.7585,2.7585,2.7585,2.7495,2.7315,2.745,2.7405,2.73,2.7031,2.6539,2.6048,2.5573,2.5098,2.4619,2.4231,2.3928,2.3733,2.3599,2.3584,2.3584,2.3584,2.3778,2.4276,2.4605,2.4795,2.9386,2.937,2.937,2.9363,2.9283,2.9251,2.9202,2.9128,2.9124,2.9119,2.9112,2.9078,2.9074,2.9062,2.9017,2.8981,2.8952,2.8779,2.8792,2.8947,2.8651,2.8731,2.8809,2.8803,2.8809,2.8881,2.8864,2.8737,2.8725,2.8583,2.8412,2.8308,2.8262,2.8188,2.8215,2.7989,2.7858,2.7496,2.7362,2.7307,2.7307,2.7307,2.7307,2.7307,2.7307,2.7307,2.7307,2.7307,2.7307,2.7307,2.7299,2.7194,2.7032,2.7008,2.69,2.6641,2.6445,2.598,2.5835,2.5735,2.5844,2.5645,2.5549,2.5275,2.4932,2.4803,2.4578,2.4364,2.4292,2.4281,2.4302,2.4312,2.4312,2.4245,2.4103,2.3972,2.3865,2.3707,2.3595,2.3595,2.364,2.364,2.4048,2.4541,2.5109,2.5618,2.6285,2.7121,2.7375,2.7525,2.7585,2.7585,2.7585,2.7585,2.7585,2.7585,2.7495,2.73,2.724,2.7091,2.6599,2.5947,2.5382,2.4784,2.4455,2.4141,2.3838,2.3584,2.3584,2.3584,2.3584,2.3584,2.3883,2.4003,2.3973,2.9386,2.9352,2.9365,2.9328,2.9262,2.9246,2.9139,2.8975,2.8887,2.8845,2.8833,2.8875,2.8904,2.891,2.8969,2.8905,2.8858,2.8688,2.8495,2.8663,2.8334,2.8386,2.8489,2.8533,2.8483,2.8596,2.8545,2.843,2.843,2.8228,2.8143,2.8068,2.7819,2.7869,2.789,2.7807,2.7644,2.7368,2.7307,2.7307,2.7307,2.7307,2.7307,2.7307,2.7307,2.7307,2.7307,2.7307,2.7307,2.7291,2.7234,2.717,2.7057,2.695,2.6875,2.6607,2.6254,2.5707,2.5323,2.5198,2.5256,2.505,2.5189,2.5098,2.4809,2.4619,2.4513,2.4364,2.4302,2.4281,2.4281,2.4281,2.4266,2.4197,2.4092,2.3961,2.3818,2.3674,2.3584,2.3584,2.3584,2.3584,2.3614,2.3943,2.4421,2.4885,2.5364,2.6228,2.7078,2.7273,2.739,2.7405,2.745,2.748,2.751,2.7585,2.7465,2.7285,2.721,2.7136,2.6689,2.5989,2.5468,2.4967,2.4605,2.4216,2.3793,2.3584,2.3584,2.3584,2.3584,2.3584,2.3584,2.3584,2.3584,2.9365,2.9307,2.9302,2.928,2.9205,2.9213,2.9021,2.8682,2.8481,2.8326,2.8159,2.8507,2.8601,2.8632,2.884,2.8785,2.8582,2.8507,2.8373,2.8195,2.8013,2.8102,2.8136,2.8143,2.8183,2.8132,2.8109,2.812,2.8106,2.7968,2.7968,2.7968,2.773,2.7679,2.7622,2.7534,2.7407,2.733,2.7307,2.7307,2.7307,2.7307,2.7307,2.7307,2.7307,2.7299,2.7291,2.7266,2.7258,2.7234,2.7169,2.708,2.6999,2.6917,2.6817,2.6573,2.6201,2.5615,2.5001,2.4883,2.4759,2.4624,2.4745,2.4604,2.4492,2.4416,2.4374,2.4333,2.4281,2.4281,2.4281,2.4286,2.4266,2.4172,2.4067,2.395,2.3807,2.3696,2.3606,2.3584,2.3584,2.3584,2.3584,2.3808,2.4033,2.4321,2.4814,2.5337,2.6153,2.6839,2.6944,2.7018,2.7108,2.7288,2.7303,2.7108,2.6944,2.6587,2.6839,2.6794,2.6363,2.5959,2.5483,2.5008,2.4668,2.4276,2.3778,2.3584,2.3584,2.3584,2.3584,2.3584,2.3584,2.3584,2.3584,2.9386,2.937,2.937,2.9334,2.9218,2.8893,2.8669,2.8543,2.8339,2.8248,2.8252,2.8301,2.8308,2.8321,2.8347,2.8303,2.8208,2.8093,2.8086,2.7947,2.776,2.784,2.7904,2.7918,2.7961,2.795,2.7908,2.7822,2.7771,2.7679,2.7562,2.7506,2.7521,2.746,2.743,2.7337,2.7323,2.7307,2.7307,2.7307,2.7307,2.7307,2.7307,2.7307,2.7307,2.7274,2.7201,2.7168,2.7161,2.7064,2.7048,2.6991,2.6942,2.6884,2.6717,2.5908,2.5642,2.5332,2.4649,2.4472,2.4436,2.4343,2.4446,2.4416,2.4323,2.4281,2.4281,2.4281,2.4281,2.4281,2.4281,2.4286,2.4213,2.4098,2.4014,2.3903,2.3771,2.3664,2.3584,2.3584,2.3584,2.3584,2.3584,2.3614,2.3823,2.4018,2.4291,2.4739,2.5292,2.6019,2.645,2.6539,2.6524,2.6629,2.6375,2.6165,2.6048,2.5962,2.6228,2.6288,2.5824,2.5465,2.5304,2.4948,2.444,2.4036,2.3674,2.3584,2.3584,2.3584,2.3584,2.3584,2.3584,2.3584,2.3584,2.9383,2.9383,2.9383,2.9262,2.8944,2.8552,2.8297,2.8115,2.7961,2.7908,2.7901,2.7986,2.801,2.8017,2.8068,2.8061,2.7933,2.7836,2.7757,2.7615,2.7475,2.7557,2.7637,2.7657,2.7652,2.7679,2.7657,2.7549,2.7511,2.7429,2.733,2.7354,2.7307,2.7307,2.7315,2.7323,2.7315,2.7307,2.7307,2.7307,2.7307,2.7307,2.7307,2.7307,2.7307,2.7217,2.7111,2.7094,2.6981,2.6809,2.675,2.6598,2.6486,2.6348,2.6085,2.5389,2.5256,2.4942,2.4451,2.4323,2.4302,2.4281,2.4281,2.4292,2.4302,2.4281,2.4281,2.4281,2.4281,2.4281,2.4281,2.4261,2.4151,2.4024,2.395,2.3871,2.375,2.3616,2.3584,2.3584,2.3584,2.3584,2.3584,2.3584,2.3614,2.3748,2.3853,2.4062,2.4646,2.5334,2.5764,2.5959,2.5869,2.5824,2.5555,2.539,2.5364,2.5438,2.5693,2.5633,2.5226,2.5181,2.5184,2.472,2.4092,2.3793,2.3573,2.3584,2.3584,2.3584,2.3584,2.3573,2.3584,2.3584,2.3584,2.9396,2.9368,2.9347,2.896,2.8459,2.8242,2.7915,2.7519,2.7519,2.7436,2.7415,2.7569,2.7654,2.7723,2.7836,2.7797,2.7698,2.7605,2.7501,2.7321,2.7345,2.7392,2.7384,2.733,2.743,2.737,2.7338,2.7392,2.7329,2.7274,2.7266,2.7307,2.7267,2.725,2.7299,2.7234,2.7234,2.7299,2.7275,2.7251,2.7299,2.7307,2.7307,2.7274,2.7241,2.7201,2.7086,2.6972,2.6841,2.6513,2.6243,2.6057,2.5868,2.5696,2.5361,2.5112,2.502,2.4729,2.4431,2.4292,2.4281,2.4281,2.4281,2.4281,2.4281,2.4281,2.4281,2.4281,2.4281,2.4276,2.4276,2.4245,2.414,2.4014,2.3893,2.3818,2.3685,2.3595,2.3584,2.3584,2.3584,2.3584,2.3584,2.3584,2.3584,2.3614,2.3644,2.3729,2.3981,2.4657,2.4891,2.5198,2.5076,2.4971,2.5001,2.4866,2.484,2.4948,2.5098,2.49,2.4403,2.4672,2.5139,2.4477,2.3751,2.3675,2.3541,2.3486,2.3465,2.3584,2.3584,2.3562,2.3551,2.3465,2.3551,2.931,2.9296,2.898,2.8514,2.8007,2.7855,2.7659,2.736,2.7345,2.7329,2.733,2.7376,2.7405,2.7467,2.7519,2.7488,2.746,2.746,2.7359,2.7382,2.7393,2.7479,2.7359,2.7462,2.7359,2.7307,2.7307,2.7291,2.7266,2.7217,2.7201,2.7258,2.7194,2.7146,2.7259,2.7178,2.7146,2.7234,2.717,2.7178,2.7275,2.7274,2.7256,2.7184,2.7152,2.7071,2.6916,2.6666,2.6461,2.6183,2.5852,2.5677,2.5549,2.5503,2.5285,2.5001,2.4843,2.4619,2.4436,2.4281,2.4281,2.4281,2.4281,2.4281,2.4281,2.4281,2.4281,2.4281,2.4286,2.4271,2.4239,2.4208,2.413,2.3978,2.3861,2.3739,2.3627,2.3606,2.3595,2.3584,2.3584,2.3584,2.3584,2.3584,2.3584,2.3584,2.3584,2.3618,2.3553,2.3907,2.3848,2.4059,2.4085,2.4059,2.4223,2.4343,2.4317,2.4153,2.4175,2.391,2.3585,2.3815,2.4064,2.3867,2.3459,2.329,2.3176,2.3168,2.3201,2.3297,2.333,2.3209,2.3109,2.3009,2.3279,2.9302,2.924,2.8863,2.8417,2.8007,2.7779,2.7547,2.7329,2.7307,2.7307,2.7307,2.7307,2.7307,2.7307,2.7307,2.7341,2.7341,2.7315,2.7599,2.7729,2.7782,2.7833,2.7799,2.7739,2.7457,2.738,2.722,2.7162,2.7185,2.7129,2.7105,2.7154,2.704,2.704,2.7179,2.7073,2.704,2.7154,2.7015,2.7032,2.7146,2.7137,2.7129,2.7063,2.7039,2.6983,2.6875,2.664,2.6418,2.6015,2.5577,2.5121,2.4981,2.4893,2.4829,2.4689,2.4578,2.4533,2.4364,2.4281,2.4281,2.4286,2.4281,2.4271,2.425,2.425,2.4276,2.4276,2.425,2.4218,2.4197,2.4156,2.4024,2.3882,2.3829,2.375,2.3664,2.3595,2.3584,2.3584,2.3584,2.3584,2.3584,2.3584,2.3573,2.3508,2.3519,2.3264,2.3242,2.3183,2.3095,2.312,2.3253,2.3497,2.3819,2.3864,2.3793,2.36,2.3363,2.312,2.2946,2.2909,2.2901,2.2912,2.2867,2.2728,2.266,2.2672,2.2649,2.2669,2.2725,2.2785,2.2672,2.2546,2.2672,2.9213,2.91,2.8713,2.8372,2.8065,2.7782,2.7519,2.7321,2.7307,2.7307,2.7307,2.7307,2.7307,2.7307,2.7307,2.7376,2.7479,2.7635,2.7962,2.8403,2.8524,2.8516,2.8439,2.8319,2.7753,2.7301,2.7081,2.708,2.7096,2.7023,2.6991,2.7,2.6992,2.6992,2.7,2.6975,2.6958,2.6875,2.6809,2.6792,2.685,2.695,2.6983,2.6991,2.6992,2.695,2.6892,2.6649,2.6427,2.5924,2.5266,2.4813,2.4548,2.4482,2.4441,2.4385,2.438,2.4354,2.4281,2.4281,2.4266,2.4245,2.4229,2.4156,2.4092,2.4014,2.403,2.4009,2.3982,2.4103,2.4071,2.4024,2.3882,2.375,2.3728,2.3707,2.3616,2.3541,2.353,2.353,2.3519,2.3519,2.3373,2.3384,2.3421,2.3366,2.3201,2.2953,2.2762,2.2657,2.2566,2.2646,2.2782,2.3065,2.3286,2.3297,2.3198,2.3076,2.2815,2.2521,2.2337,2.244,2.244,2.2282,2.2224,2.2165,2.2154,2.2165,2.213,2.2128,2.2314,2.2417,2.213,2.2027,2.1955,2.8809,2.8292,2.8003,2.7748,2.7521,2.7405,2.7345,2.7315,2.7307,2.7307,2.7307,2.7307,2.7307,2.7324,2.7307,2.7566,2.8161,2.8144,2.8618,2.9187,2.9059,2.9137,2.8922,2.8339,2.7698,2.7306,2.7042,2.7016,2.7015,2.695,2.6917,2.6933,2.68,2.6825,2.6942,2.6867,2.6725,2.6598,2.6393,2.6306,2.6279,2.6478,2.69,2.695,2.6934,2.6851,2.6624,2.6077,2.5815,2.5408,2.4942,2.4543,2.4343,2.4281,2.4281,2.4281,2.4281,2.4255,2.4255,2.4219,2.4167,2.3861,2.3782,2.3631,2.3469,2.3227,2.3212,2.3131,2.3246,2.37,2.3765,2.376,2.3674,2.353,2.345,2.345,2.3417,2.3352,2.3308,2.3275,2.3257,2.2987,2.2566,2.2657,2.2815,2.2703,2.2486,2.2293,2.2258,2.214,2.2023,2.2116,2.2244,2.2291,2.2383,2.2555,2.2509,2.2417,2.2302,2.2058,2.1976,2.2128,2.207,2.1801,2.172,2.1696,2.1684,2.1648,2.1754,2.1813,2.2035,2.207,2.1744,2.1518,2.147]}]]